[[{"header":{"parameterUnit":"m.s-1","parameterCategory":1,"la1":30.6,"la2":28.766,"lo1":-90.7593,"lo2":-88.6598,"dy":0.0162,"dx":0.0183,"nx":116,"ny":114,"refTime":"2023-08-05T06:00:00:Z","depth":0,"parameterNumber":2,"parameterNumberName":"U-component_of_WINDS"},"data":[0.0,0.0,0.0,0.0,0.0,0.0,0.0,0.0,0.0,0.0,0.0,0.0,0.0,0.0,0.0,0.0,0.0,0.0,0.0,0.0,0.0,0.0,0.0,0.0,0.0,0.0,0.0,0.0,0.0,0.0,0.0,0.0,0.0,0.0,0.0,0.0,0.0,0.0,0.0,0.0,0.0,0.0,0.0,0.0,0.0,0.0,0.0,0.0,0.0,0.0,0.0,0.0,0.0,0.0,0.0,0.0,0.0,0.0,0.0,0.0,0.0,0.0,0.0,0.0,0.0,0.0,0.0,0.0,0.0,0.0,0.0,0.0,0.0,0.0,0.0,0.0,0.0,0.0,0.0,0.0,0.0,0.0,0.0,0.0,0.0,0.0,0.0,0.0,0.0,0.0,0.0,0.0,0.0,0.0,0.0,0.0,0.0,0.0,0.0,0.0,0.0,0.0,0.0,0.0,0.0,0.0,0.0,0.0,0.0,0.0,0.0,0.0,0.0,0.0,0.0,0.0,0.0,0.0,0.0,0.0,0.0,0.0,0.0,0.0,0.0,0.0,0.0,0.0,0.0,0.0,0.0,0.0,0.0,0.0,0.0,0.0,0.0,0.0,0.0,0.0,0.0,0.0,0.0,0.0,0.0,0.0,0.0,0.0,0.0,0.0,0.0,0.0,0.0,0.0,0.0,0.0,0.0,0.0,0.0,0.0,0.0,0.0,0.0,0.0,0.0,0.0,0.0,0.0,0.0,0.0,0.0,0.0,0.0,0.0,0.0,0.0,0.0,0.0,0.0,0.0,0.0,0.0,0.0,0.0,0.0,0.0,0.0,0.0,0.0,0.0,0.0,0.0,0.0,0.0,0.0,0.0,0.0,0.0,0.0,0.0,0.0,0.0,0.0,0.0,0.0,0.0,0.0,0.0,0.0,0.0,0.0,0.0,0.0,0.0,0.0,0.0,0.0,0.0,0.0,0.0,0.0,0.0,0.0,0.0,0.0,0.0,0.0,0.0,0.0,0.0,0.0,0.0,0.0,0.0,0.0,0.0,0.0,0.0,0.0,0.0,0.0,0.0,0.0,0.0,0.0,0.0,0.0,0.0,0.0,0.0,0.0,0.0,0.0,0.0,0.0,0.0,0.0,0.0,0.0,0.0,0.0,0.0,0.0,0.0,0.0,0.0,0.0,0.0,0.0,0.0,0.0,0.0,0.0,0.0,0.0,0.0,0.0,0.0,0.0,0.0,0.0,0.0,0.0,0.0,0.0,0.0,0.0,0.0,0.0,0.0,0.0,0.0,0.0,0.0,0.0,0.0,0.0,0.0,0.0,0.0,0.0,0.0,0.0,0.0,0.0,0.0,0.0,0.0,0.0,0.0,0.0,0.0,0.0,0.0,0.0,0.0,0.0,0.0,0.0,0.0,0.0,0.0,0.0,0.0,0.0,0.0,0.0,0.0,0.0,0.0,0.0,0.0,0.0,0.0,0.0,0.0,0.0,0.0,0.0,0.0,0.0,0.0,0.0,0.0,0.0,0.0,0.0,0.0,0.0,0.0,0.0,0.0,0.0,0.0,0.0,0.0,0.0,0.0,0.0,0.0,0.0,0.0,0.0,0.0,0.0,0.0,0.0,0.0,0.0,0.0,0.0,0.0,0.0,0.0,0.0,0.0,0.0,0.0,0.0,0.0,0.0,0.0,0.0,0.0,0.0,0.0,0.0,0.0,0.0,0.0,0.0,0.0,0.0,0.0,0.0,0.0,0.0,0.0,0.0,0.0,0.0,0.0,0.0,0.0,0.0,0.0,0.0,0.0,0.0,0.0,0.0,0.0,0.0,0.0,0.0,0.0,0.0,0.0,0.0,0.0,0.0,0.0,0.0,0.0,0.0,0.0,0.0,0.0,0.0,0.0,0.0,0.0,0.0,0.0,0.0,0.0,0.0,0.0,0.0,0.0,0.0,0.0,0.0,0.0,0.0,0.0,0.0,0.0,0.0,0.0,0.0,0.0,0.0,0.0,0.0,0.0,0.0,0.0,0.0,0.0,0.0,0.0,0.0,0.0,0.0,0.0,0.0,0.0,0.0,0.0,0.0,0.0,0.0,0.0,0.0,0.0,0.0,0.0,0.0,0.0,0.0,0.0,0.0,0.0,0.0,0.0,0.0,0.0,0.0,0.0,0.0,0.0,0.0,0.0,0.0,0.0,0.0,0.0,0.0,0.0,0.0,0.0,0.0,0.0,0.0,0.0,0.0,0.0,0.0,0.0,0.0,0.0,0.0,0.0,0.0,0.0,0.0,0.0,0.0,0.0,0.0,0.0,0.0,0.0,0.0,0.0,0.0,0.0,0.0,0.0,0.0,0.0,0.0,0.0,0.0,0.0,0.0,0.0,0.0,0.0,0.0,0.0,0.0,0.0,0.0,0.0,0.0,0.0,0.0,0.0,0.0,0.0,0.0,0.0,0.0,0.0,0.0,0.0,0.0,0.0,0.0,0.0,0.0,0.0,0.0,0.0,0.0,0.0,0.0,0.0,0.0,0.0,0.0,0.0,0.0,0.0,0.0,0.0,0.0,0.0,0.0,0.0,0.0,0.0,0.0,0.0,0.0,0.0,0.0,0.0,0.0,0.0,0.0,0.0,0.0,0.0,0.0,0.0,0.0,0.0,0.0,0.0,0.0,0.0,0.0,0.0,0.0,0.0,0.0,0.0,0.0,0.0,0.0,0.0,0.0,0.0,0.0,0.0,0.0,0.0,0.0,0.0,0.0,0.0,0.0,0.0,0.0,0.0,0.0,0.0,0.0,0.0,0.0,0.0,0.0,0.0,0.0,0.0,0.0,0.0,0.0,0.0,0.0,0.0,0.0,0.0,0.0,0.0,0.0,0.0,0.0,0.0,0.0,0.0,0.0,0.0,0.0,0.0,0.0,0.0,0.0,0.0,0.0,0.0,0.0,0.0,0.0,0.0,0.0,0.0,0.0,0.0,0.0,0.0,0.0,0.0,0.0,0.0,0.0,0.0,0.0,0.0,0.0,0.0,0.0,0.0,0.0,0.0,0.0,0.0,0.0,0.0,0.0,0.0,0.0,0.0,0.0,0.0,0.0,0.0,0.0,0.0,0.0,0.0,0.0,0.0,0.0,0.0,0.0,0.0,0.0,0.0,0.0,0.0,0.0,0.0,0.0,0.0,0.0,0.0,0.0,0.0,0.0,0.0,0.0,0.0,0.0,0.0,0.0,0.0,0.0,0.0,0.0,0.0,0.0,0.0,0.0,0.0,0.0,0.0,0.0,0.0,0.0,0.0,0.0,0.0,0.0,0.0,0.0,0.0,0.0,0.0,0.0,0.0,0.0,0.0,0.0,0.0,0.0,0.0,0.0,0.0,0.0,0.0,0.0,0.0,0.0,0.0,0.0,0.0,0.0,0.0,0.0,0.0,0.0,0.0,0.0,0.0,0.0,0.0,0.0,0.0,0.0,0.0,0.0,0.0,0.0,0.0,0.0,0.0,0.0,0.0,0.0,0.0,0.0,0.0,0.0,0.0,0.0,0.0,0.0,0.0,0.0,0.0,0.0,0.0,0.0,0.0,0.0,0.0,0.0,0.0,0.0,0.0,0.0,0.0,0.0,0.0,0.0,0.0,0.0,0.0,0.0,0.0,0.0,0.0,0.0,0.0,0.0,0.0,0.0,0.0,0.0,0.0,0.0,0.0,0.0,0.0,0.0,0.0,0.0,0.0,0.0,0.0,0.0,0.0,0.0,0.0,0.0,0.0,0.0,0.0,0.0,0.0,0.0,0.0,0.0,0.0,0.0,0.0,0.0,0.0,0.0,0.0,0.0,0.0,0.0,0.0,0.0,0.0,0.0,0.0,0.0,0.0,0.0,0.0,0.0,0.0,0.0,0.0,0.0,0.0,0.0,0.0,0.0,0.0,0.0,0.0,0.0,0.0,0.0,0.0,0.0,0.0,0.0,0.0,0.0,0.0,0.0,0.0,0.0,0.0,0.0,0.0,0.0,0.0,0.0,0.0,0.0,0.0,0.0,0.0,0.0,0.0,0.0,0.0,0.0,0.0,0.0,0.0,0.0,0.0,0.0,0.0,0.0,0.0,0.0,0.0,0.0,0.0,0.0,0.0,0.0,0.0,0.0,0.0,0.0,0.0,0.0,0.0,0.0,0.0,0.0,0.0,0.0,0.0,0.0,0.0,0.0,0.0,0.0,0.0,0.0,0.0,0.0,0.0,0.0,0.0,0.0,0.0,0.0,0.0,0.0,0.0,0.0,0.0,0.0,0.0,0.0,0.0,0.0,0.0,0.0,0.0,0.0,0.0,0.0,0.0,0.0,0.0,0.0,0.0,0.0,0.0,0.0,0.0,0.0,0.0,0.0,0.0,0.0,0.0,0.0,0.0,0.0,0.0,0.0,0.0,0.0,0.0,0.0,0.0,0.0,0.0,0.0,0.0,0.0,0.0,0.0,0.0,0.0,0.0,0.0,0.0,0.0,0.0,0.0,0.0,0.0,0.0,0.0,0.0,0.0,0.0,0.0,0.0,0.0,0.0,0.0,0.0,0.0,0.0,0.0,0.0,0.0,0.0,0.0,0.0,0.0,0.0,0.0,0.0,0.0,0.0,0.0,0.0,0.0,0.0,0.0,0.0,0.0,0.0,0.0,0.0,0.0,0.0,0.0,0.0,0.0,0.0,0.0,0.0,0.0,0.0,0.0,0.0,0.0,0.0,0.0,0.0,0.0,0.0,0.0,0.0,0.0,0.0,0.0,0.0,0.0,0.0,0.0,0.0,0.0,0.0,0.0,0.0,0.0,0.0,0.0,0.0,0.0,0.0,0.0,0.0,0.0,0.0,0.0,0.0,0.0,0.0,0.0,0.0,0.0,0.0,0.0,0.0,0.0,0.0,0.0,0.0,0.0,0.0,0.0,0.0,0.0,0.0,0.0,0.0,0.0,0.0,0.0,0.0,0.0,0.0,0.0,0.0,0.0,0.0,0.0,0.0,0.0,0.0,0.0,0.0,0.0,0.0,0.0,0.0,0.0,0.0,0.0,0.0,0.0,0.0,0.0,0.0,0.0,0.0,0.0,0.0,0.0,0.0,0.0,0.0,0.0,0.0,0.0,0.0,0.0,0.0,0.0,0.0,0.0,0.0,0.0,0.0,0.0,0.0,0.0,0.0,0.0,0.0,0.0,0.0,0.0,0.0,0.0,0.0,0.0,0.0,0.0,0.0,0.0,0.0,0.0,0.0,0.0,0.0,0.0,0.0,0.0,0.0,0.0,0.0,0.0,0.0,0.0,0.0,0.0,0.0,0.0,0.0,0.0,0.0,0.0,0.0,0.0,0.0,0.0,0.0,0.0,0.0,0.0,0.0,0.0,0.0,0.0,0.0,0.0,0.0,0.0,0.0,0.0,0.0,0.0,0.0,0.0,0.0,0.0,0.0,0.0,0.0,0.0,0.0,0.0,0.0,0.0,0.0,0.0,0.0,0.0,0.0,0.0,0.0,0.0,0.0,0.0,0.0,0.0,0.0,0.0,0.0,0.0,0.0,0.0,0.0,0.0,0.0,0.0,0.0,0.0,0.0,0.0,0.0,0.0,0.0,0.0,0.0,0.0,0.0,0.0,0.0,0.0,0.0,0.0,0.0,0.0,0.0,0.0,0.0,0.0,0.0,0.0,0.0,0.0,0.0,0.0,0.0,0.0,0.0,0.0,0.0,0.0,0.0,0.0,0.0,0.0,0.0,0.0,0.0,0.0,0.0,0.0,0.0,0.0,0.0,0.0,0.0,0.0,0.0,0.0,0.0,0.0,0.0,0.0,0.0,0.0,0.0,0.0,0.0,0.0,0.0,0.0,0.0,0.0,0.0,0.0,0.0,0.0,0.0,0.0,0.0,0.0,0.0,0.0,0.0,0.0,0.0,0.0,0.0,0.0,0.0,0.0,0.0,0.0,0.0,0.0,0.0,0.0,0.0,0.0,0.0,0.0,0.0,0.0,0.0,0.0,0.0,0.0,0.0,0.0,0.0,0.0,0.0,0.0,0.0,0.0,0.0,0.0,0.0,0.0,0.0,0.0,0.0,0.0,0.0,0.0,0.0,0.0,0.0,-6.2621,0.0,0.0,0.0,0.0,0.0,0.0,0.0,0.0,0.0,0.0,0.0,0.0,0.0,0.0,0.0,0.0,0.0,0.0,0.0,0.0,0.0,0.0,0.0,0.0,0.0,0.0,0.0,0.0,0.0,0.0,0.0,0.0,0.0,0.0,0.0,0.0,0.0,0.0,0.0,0.0,0.0,0.0,0.0,0.0,0.0,0.0,0.0,0.0,0.0,0.0,0.0,0.0,0.0,0.0,0.0,0.0,0.0,0.0,0.0,0.0,0.0,0.0,0.0,0.0,0.0,0.0,0.0,0.0,0.0,0.0,0.0,0.0,0.0,0.0,0.0,0.0,0.0,0.0,0.0,0.0,0.0,0.0,0.0,0.0,0.0,0.0,0.0,0.0,0.0,0.0,0.0,0.0,0.0,0.0,0.0,0.0,0.0,0.0,0.0,0.0,0.0,0.0,0.0,0.0,0.0,0.0,0.0,0.0,0.0,0.0,0.0,0.0,0.0,0.0,0.0,0.0,-6.3899,0.0,0.0,0.0,0.0,0.0,0.0,0.0,0.0,0.0,0.0,0.0,0.0,0.0,0.0,0.0,0.0,0.0,0.0,0.0,0.0,0.0,0.0,0.0,0.0,0.0,0.0,0.0,0.0,0.0,0.0,0.0,0.0,0.0,0.0,0.0,0.0,0.0,0.0,0.0,0.0,0.0,0.0,0.0,0.0,0.0,0.0,0.0,0.0,0.0,0.0,0.0,0.0,0.0,0.0,0.0,0.0,0.0,0.0,0.0,0.0,0.0,0.0,0.0,0.0,0.0,0.0,0.0,0.0,0.0,0.0,0.0,0.0,0.0,0.0,0.0,0.0,0.0,0.0,0.0,0.0,0.0,0.0,0.0,0.0,0.0,0.0,0.0,0.0,0.0,0.0,0.0,0.0,0.0,0.0,0.0,0.0,0.0,0.0,0.0,0.0,0.0,0.0,0.0,0.0,0.0,0.0,0.0,0.0,-6.8808,-6.9937,-6.972,-7.1313,-7.2038,-7.1929,-6.9637,-6.7281,-6.5019,-6.4056,0.0,0.0,0.0,0.0,0.0,0.0,0.0,0.0,0.0,0.0,0.0,0.0,0.0,0.0,0.0,0.0,0.0,0.0,0.0,0.0,0.0,0.0,0.0,0.0,0.0,0.0,0.0,0.0,0.0,0.0,0.0,0.0,0.0,0.0,0.0,0.0,0.0,0.0,0.0,0.0,0.0,0.0,0.0,0.0,0.0,0.0,0.0,0.0,0.0,0.0,0.0,0.0,0.0,0.0,0.0,0.0,0.0,0.0,0.0,0.0,0.0,0.0,0.0,0.0,0.0,0.0,0.0,0.0,0.0,0.0,0.0,0.0,0.0,0.0,0.0,0.0,0.0,0.0,0.0,0.0,0.0,0.0,0.0,0.0,0.0,0.0,-5.0972,-5.114,0.0,0.0,0.0,0.0,0.0,0.0,0.0,0.0,0.0,0.0,0.0,0.0,0.0,-6.6082,-6.789,-7.1822,-7.3567,-7.313,-7.6663,-7.7615,-7.6311,-7.7905,-7.8666,-7.8558,-7.6697,0.0,-6.7412,-6.6038,0.0,0.0,0.0,0.0,0.0,0.0,0.0,0.0,0.0,0.0,0.0,0.0,0.0,0.0,0.0,0.0,0.0,0.0,0.0,0.0,0.0,0.0,0.0,0.0,0.0,0.0,0.0,0.0,0.0,0.0,0.0,0.0,0.0,0.0,0.0,0.0,0.0,0.0,0.0,0.0,0.0,0.0,0.0,0.0,0.0,0.0,0.0,0.0,0.0,0.0,0.0,0.0,0.0,0.0,0.0,0.0,0.0,0.0,0.0,0.0,0.0,0.0,0.0,0.0,0.0,0.0,0.0,0.0,0.0,0.0,0.0,0.0,0.0,0.0,0.0,0.0,0.0,0.0,0.0,0.0,0.0,0.0,0.0,0.0,0.0,-5.1651,-5.301,-5.2137,-5.3013,-5.2994,0.0,0.0,0.0,0.0,0.0,0.0,0.0,0.0,0.0,-6.7477,-6.9522,-7.1513,-7.3486,-7.5927,-7.7304,-7.7691,-8.0214,-8.0981,-8.0223,-8.1853,-8.236,-8.1853,-8.0529,-7.7666,-7.356,-6.9353,-6.5794,-6.275,0.0,0.0,0.0,0.0,-5.7105,-5.6908,0.0,0.0,0.0,0.0,0.0,0.0,0.0,0.0,0.0,0.0,0.0,0.0,0.0,0.0,0.0,0.0,0.0,0.0,0.0,0.0,0.0,0.0,0.0,0.0,0.0,0.0,0.0,0.0,0.0,0.0,0.0,0.0,0.0,0.0,0.0,0.0,0.0,0.0,0.0,0.0,0.0,0.0,0.0,0.0,0.0,0.0,0.0,0.0,0.0,0.0,0.0,0.0,0.0,0.0,0.0,0.0,0.0,0.0,0.0,0.0,0.0,0.0,0.0,0.0,0.0,0.0,0.0,0.0,0.0,0.0,0.0,0.0,0.0,0.0,0.0,0.0,0.0,-5.3456,-5.5148,-5.3195,-5.6113,-5.7034,0.0,0.0,0.0,0.0,0.0,0.0,-6.699,-6.8458,-7.0624,-7.3707,-7.5359,-7.7279,-7.9608,-8.0564,-8.1456,-8.2168,-8.33,-8.3629,-8.3302,-8.4498,-8.4529,-8.3689,-8.2759,-8.1083,-7.8559,-7.2629,-6.86,-6.5783,-6.2264,-6.069,-6.0239,-5.9607,-5.9266,-5.9353,0.0,0.0,0.0,0.0,0.0,0.0,0.0,0.0,0.0,0.0,0.0,0.0,0.0,0.0,0.0,0.0,0.0,0.0,0.0,0.0,0.0,0.0,0.0,0.0,0.0,0.0,0.0,0.0,0.0,0.0,0.0,0.0,0.0,0.0,0.0,0.0,0.0,0.0,0.0,0.0,0.0,0.0,0.0,0.0,0.0,0.0,0.0,0.0,0.0,0.0,0.0,0.0,0.0,0.0,0.0,0.0,0.0,0.0,0.0,0.0,0.0,0.0,0.0,0.0,0.0,0.0,0.0,0.0,0.0,0.0,0.0,0.0,0.0,0.0,0.0,0.0,0.0,0.0,0.0,-5.4292,-5.9603,0.0,0.0,0.0,0.0,-6.3649,-6.5962,-6.8752,-7.1982,-7.2936,-7.5579,-8.0351,-8.2076,-8.4095,-8.6483,-8.7883,-8.8215,-8.7521,-8.7267,-8.6718,-8.5918,-8.584,-8.5306,-8.4289,-8.3372,-8.1948,-8.0041,-7.5379,-7.125,-6.7464,-6.4485,-6.2454,-6.1235,-6.1197,-6.0891,-6.0604,0.0,0.0,0.0,0.0,0.0,0.0,0.0,0.0,0.0,0.0,0.0,0.0,0.0,0.0,0.0,0.0,0.0,0.0,0.0,0.0,0.0,0.0,0.0,0.0,0.0,0.0,0.0,0.0,0.0,0.0,0.0,0.0,0.0,0.0,0.0,0.0,0.0,0.0,0.0,0.0,0.0,0.0,0.0,0.0,0.0,0.0,0.0,0.0,0.0,0.0,0.0,0.0,0.0,0.0,0.0,0.0,0.0,0.0,0.0,0.0,0.0,0.0,0.0,0.0,0.0,0.0,0.0,0.0,0.0,0.0,0.0,0.0,0.0,0.0,0.0,0.0,0.0,0.0,0.0,-6.0318,-6.5157,0.0,-6.372,-6.5422,-6.7504,-6.9376,-7.1725,-7.4771,-7.8552,-7.9984,-8.2003,-8.4792,-8.593,-8.7142,-8.8536,-8.9053,-8.902,-8.8509,-8.8361,-8.7738,-8.6637,-8.548,-8.4792,-8.4278,-8.2286,-8.1309,-8.097,-7.7772,-7.4784,-7.1921,-6.8977,-6.7184,-6.6271,-6.5597,-6.5144,-6.4848,0.0,0.0,0.0,0.0,0.0,0.0,0.0,0.0,0.0,0.0,0.0,0.0,0.0,0.0,0.0,0.0,0.0,0.0,0.0,0.0,0.0,0.0,0.0,0.0,0.0,0.0,0.0,0.0,0.0,0.0,0.0,0.0,0.0,0.0,0.0,0.0,0.0,0.0,0.0,0.0,0.0,0.0,-4.2166,0.0,0.0,0.0,0.0,0.0,0.0,0.0,0.0,0.0,0.0,0.0,0.0,0.0,0.0,0.0,0.0,0.0,0.0,0.0,0.0,0.0,0.0,0.0,0.0,0.0,0.0,0.0,0.0,0.0,0.0,0.0,0.0,0.0,0.0,0.0,-6.4047,-6.4207,-6.9547,-7.2087,-6.9229,-7.1138,-7.3487,-7.5616,-7.7745,-8.0388,-8.3654,-8.5086,-8.6444,-8.7802,-8.8353,-8.8867,-8.9382,-8.9674,-8.9495,-8.891,-8.9128,-8.8317,-8.6574,-8.5401,-8.4355,-8.3391,-8.1609,-8.0966,-8.0994,-7.9389,-7.757,-7.5439,-7.2191,-7.05,-6.9678,-6.8446,-6.7655,-6.7123,0.0,0.0,0.0,0.0,0.0,0.0,0.0,0.0,0.0,0.0,0.0,0.0,0.0,0.0,0.0,0.0,0.0,0.0,0.0,0.0,0.0,0.0,0.0,0.0,0.0,0.0,0.0,0.0,0.0,0.0,0.0,0.0,0.0,0.0,0.0,0.0,0.0,0.0,0.0,0.0,0.0,0.0,-4.3689,0.0,0.0,0.0,0.0,0.0,0.0,0.0,0.0,0.0,0.0,0.0,0.0,0.0,0.0,0.0,0.0,0.0,0.0,0.0,0.0,0.0,0.0,0.0,0.0,0.0,0.0,0.0,0.0,0.0,0.0,0.0,0.0,0.0,-5.6671,-6.2887,-6.6976,-6.5836,-7.265,-7.657,-7.4221,-7.7598,-8.0608,-8.2186,-8.3765,-8.538,-8.6995,-8.7802,-8.861,-8.9345,-8.9382,-8.9382,-8.9382,-9.0225,-9.008,-8.9093,-8.9714,-8.8561,-8.5867,-8.5621,-8.4088,-8.1603,-8.1522,-8.1014,-8.0175,-8.0141,-7.9261,-7.757,-7.3916,-7.2056,-7.1165,-6.9423,-6.8159,-6.7045,0.0,0.0,0.0,0.0,0.0,0.0,0.0,0.0,0.0,0.0,0.0,0.0,0.0,0.0,0.0,0.0,0.0,0.0,0.0,0.0,0.0,0.0,0.0,0.0,0.0,0.0,0.0,0.0,0.0,0.0,0.0,0.0,0.0,0.0,0.0,0.0,0.0,0.0,0.0,0.0,0.0,0.0,-4.4692,0.0,0.0,0.0,0.0,0.0,0.0,0.0,0.0,0.0,0.0,0.0,0.0,0.0,0.0,0.0,0.0,0.0,0.0,0.0,0.0,0.0,0.0,0.0,0.0,0.0,0.0,0.0,0.0,0.0,0.0,0.0,0.0,-6.0227,-6.1392,-6.6455,-7.1231,-7.4335,-7.8343,-8.0828,-8.0755,-8.2296,-8.3691,-8.4719,-8.5747,-8.7068,-8.8683,-8.8977,-8.9197,-8.9382,-8.9382,-8.9382,-8.9382,-9.0225,-9.008,-8.9093,-8.9714,-8.8561,-8.5867,-8.4429,-8.2986,-8.1522,-8.0307,-7.9612,-7.9363,-7.8822,-7.8044,-7.7029,-7.5405,-7.4018,-7.2699,-7.1154,-6.9502,-6.7959,0.0,0.0,0.0,0.0,0.0,0.0,0.0,0.0,0.0,0.0,0.0,0.0,0.0,0.0,0.0,0.0,0.0,0.0,0.0,0.0,0.0,0.0,0.0,0.0,0.0,0.0,0.0,0.0,0.0,0.0,0.0,0.0,0.0,0.0,0.0,0.0,0.0,0.0,0.0,0.0,0.0,0.0,-4.655,-4.4178,-4.3558,-4.3902,-4.3086,-4.3336,-4.3838,-4.2026,0.0,0.0,0.0,0.0,0.0,0.0,0.0,0.0,0.0,0.0,0.0,0.0,0.0,0.0,0.0,0.0,0.0,0.0,0.0,0.0,0.0,0.0,0.0,0.0,-6.0949,-6.4467,-6.6798,-7.0281,-7.4189,-7.8427,-8.0869,-8.2774,-8.4278,-8.5123,-8.582,-8.6261,-8.7692,-8.8793,-8.9345,-9.0041,-9.0115,-8.9419,-8.9382,-8.9052,-8.8391,-8.9197,-8.902,-8.7879,-8.8602,-8.7412,-8.4564,-8.3476,-8.2083,0.0,-7.951,-7.8754,-7.8179,-7.8044,-7.7367,0.0,0.0,0.0,0.0,0.0,-6.9088,-6.7658,0.0,0.0,0.0,0.0,0.0,0.0,0.0,0.0,0.0,0.0,0.0,0.0,0.0,0.0,0.0,0.0,0.0,0.0,0.0,0.0,0.0,0.0,0.0,0.0,0.0,0.0,0.0,0.0,0.0,0.0,0.0,0.0,0.0,0.0,0.0,0.0,0.0,0.0,0.0,0.0,0.0,0.0,-4.8427,-4.5449,-4.5584,-4.7161,-4.5638,-4.52,-4.5182,-4.423,0.0,0.0,0.0,0.0,0.0,0.0,0.0,0.0,0.0,0.0,0.0,0.0,0.0,0.0,0.0,0.0,0.0,0.0,0.0,0.0,0.0,0.0,0.0,0.0,-6.4885,-6.8763,-7.2194,-7.3995,-7.6234,-7.9543,-8.1415,-8.3361,-8.5563,-8.6518,-8.7031,-8.7142,-8.9124,-9.0078,-8.9419,0.0,0.0,0.0,0.0,-8.8536,-8.7031,-8.7767,-8.7486,-8.6121,-8.6872,-8.5607,-8.2561,-8.2548,-8.1248,-7.8991,-7.8991,-7.8213,-7.6961,-7.7604,-7.6927,-7.5303,-7.3984,-7.3341,-7.2708,-6.967,-6.7837,-6.6767,0.0,0.0,0.0,0.0,0.0,0.0,0.0,0.0,0.0,0.0,0.0,0.0,0.0,0.0,0.0,0.0,0.0,0.0,0.0,0.0,0.0,0.0,0.0,0.0,0.0,0.0,0.0,0.0,0.0,0.0,0.0,0.0,0.0,0.0,0.0,0.0,0.0,0.0,0.0,0.0,0.0,0.0,-4.7784,-4.7137,-4.6663,-4.6412,-4.669,-4.7629,-4.8454,-4.6911,-4.6993,-4.7291,-4.4943,0.0,0.0,0.0,0.0,0.0,0.0,0.0,0.0,0.0,0.0,0.0,0.0,0.0,0.0,0.0,0.0,0.0,0.0,0.0,0.0,-6.4075,-6.7384,-7.0982,-7.5488,-7.6527,-7.7756,-8.0461,-8.2774,-8.4572,-8.5673,-8.6518,-8.7288,-8.7912,-8.839,-8.8904,-8.9345,-8.9711,-8.9417,-8.8463,-8.8426,-8.7986,-8.7031,-8.7627,-8.7122,-8.5492,0.0,0.0,-8.1171,-8.1007,-7.998,-7.8213,-7.8213,-7.7705,-7.6927,-7.7063,-7.5845,-7.3883,-7.3612,-7.2303,-7.0423,-6.958,-6.8271,-6.6834,0.0,0.0,0.0,0.0,0.0,0.0,0.0,0.0,0.0,0.0,0.0,0.0,0.0,0.0,0.0,0.0,0.0,0.0,0.0,0.0,0.0,0.0,0.0,0.0,0.0,0.0,0.0,0.0,0.0,0.0,0.0,0.0,0.0,0.0,0.0,0.0,0.0,0.0,0.0,0.0,0.0,0.0,-4.8605,-4.8199,-4.7997,-4.8016,-4.8769,-4.9382,-4.9648,-4.8826,-4.8728,-4.8537,-4.6297,-4.5304,-4.4598,0.0,0.0,0.0,0.0,0.0,0.0,0.0,0.0,0.0,0.0,0.0,0.0,0.0,0.0,-5.4399,0.0,0.0,-6.2612,-6.7411,-6.9821,-7.2512,-7.6507,-7.7945,-7.9323,-8.1342,-8.2663,-8.3875,-8.5086,-8.6297,-8.6995,-8.6995,-8.8133,-8.8793,-8.8793,-8.9197,-8.905,-8.8243,-8.8206,-8.7802,-8.7031,-8.6721,-8.5865,-8.4452,-8.3706,-8.2132,-7.9933,-7.9447,-7.8564,-7.7435,-7.7435,-7.6792,-7.5709,-7.4965,-7.3747,-7.2394,-7.2394,-7.1109,-6.9199,-6.8562,-6.7502,-6.6302,0.0,0.0,0.0,0.0,0.0,0.0,0.0,0.0,0.0,0.0,0.0,0.0,0.0,0.0,0.0,0.0,0.0,0.0,0.0,0.0,0.0,0.0,0.0,0.0,0.0,0.0,0.0,0.0,0.0,0.0,0.0,0.0,0.0,0.0,0.0,0.0,0.0,0.0,0.0,0.0,0.0,0.0,-5.0078,-4.9101,-4.9119,-4.9725,-5.0228,-5.0028,-4.9575,-4.9775,-4.941,-4.8564,-4.7226,-4.706,-4.6793,-4.3781,-4.4397,0.0,0.0,0.0,0.0,0.0,0.0,0.0,0.0,0.0,-5.0748,-5.2258,-5.4893,-5.7804,-6.0738,-6.2713,-6.5403,-6.9914,-7.1749,-7.3713,-7.6935,-7.8526,-7.9947,-8.1746,-8.2223,-8.2957,-8.4242,-8.582,-8.6518,-8.5857,-8.7766,-8.8647,-8.7986,-8.861,-8.8647,-8.7986,-8.7986,-8.7586,-8.6786,-8.5731,-8.4573,-8.3321,-8.1569,-8.0068,-7.8855,-7.8111,-7.7367,-7.6657,-7.6521,-7.5676,-7.4289,-7.2935,-7.1887,-7.1075,-7.0895,-6.9805,-6.8304,-6.7691,-6.669,-6.5692,0.0,0.0,0.0,0.0,0.0,0.0,0.0,0.0,0.0,0.0,0.0,0.0,0.0,0.0,0.0,0.0,0.0,0.0,0.0,0.0,0.0,0.0,0.0,0.0,0.0,0.0,0.0,0.0,0.0,0.0,0.0,0.0,0.0,0.0,0.0,0.0,0.0,0.0,0.0,0.0,0.0,0.0,-5.1661,-5.0073,-4.952,-4.9571,-4.9164,-4.8539,-4.7998,-4.9039,-4.8518,-4.7618,-4.8811,-4.8494,-4.7472,-4.6389,0.0,-4.342,-4.2495,-4.2766,-4.3723,-4.5512,-4.6144,-4.7688,0.0,0.0,-5.4522,-5.7929,-5.9516,-6.081,-6.2585,-6.4503,-6.6919,-7.031,-7.2365,-7.4668,-7.7971,-7.7934,-7.8479,-8.0865,-8.2406,-8.3361,-8.3544,-8.4976,-8.5894,-8.5783,-8.6701,-8.7252,-8.7142,-8.7215,-8.7252,-8.7142,-8.7142,-8.6716,-8.5842,-8.5312,-8.416,-8.2426,-8.1136,-7.972,-7.8077,-7.7367,-7.6589,-7.5811,-7.5134,-7.439,-7.3544,-7.2732,-7.1582,-7.0229,-6.9332,-6.8337,-6.7445,-6.8049,-6.7068,-6.547,0.0,0.0,0.0,0.0,0.0,0.0,0.0,0.0,0.0,0.0,0.0,0.0,0.0,0.0,0.0,0.0,0.0,0.0,0.0,0.0,0.0,0.0,0.0,0.0,0.0,0.0,0.0,0.0,0.0,0.0,0.0,0.0,0.0,0.0,0.0,0.0,0.0,0.0,0.0,0.0,0.0,0.0,-5.1648,-5.0289,-4.9143,-4.8172,-4.7638,-4.6794,0.0,0.0,-4.642,-4.6256,-4.7357,-4.7422,-4.6837,-4.5596,-4.4872,0.0,-4.4406,-4.4799,0.0,0.0,-4.8942,-5.1086,-5.4205,-5.5185,-5.6475,-5.9977,-6.1882,-6.3428,-6.5026,-6.678,-6.8983,0.0,-7.3001,-7.4755,-7.8148,-7.7855,-7.7892,-7.9433,-8.0608,-8.1489,-8.1966,-8.3471,-8.4609,-8.5086,-8.5857,-8.6518,-8.6995,-8.6995,-8.6995,-8.6995,-8.6356,-8.5843,-8.5468,-8.3958,-8.2584,-8.1435,-7.9801,-7.8448,-7.7333,-7.6555,-7.5777,-7.5067,-7.5202,-7.4322,-7.28,-7.2056,-7.1142,-7.006,-6.8614,-6.7722,-6.7156,-6.6968,-6.6268,-6.5425,0.0,0.0,0.0,0.0,0.0,0.0,0.0,0.0,0.0,0.0,0.0,0.0,0.0,0.0,0.0,0.0,0.0,0.0,0.0,0.0,0.0,0.0,0.0,0.0,0.0,0.0,0.0,0.0,0.0,0.0,0.0,0.0,0.0,0.0,0.0,0.0,0.0,0.0,0.0,0.0,0.0,0.0,-5.1289,-4.9843,-4.8142,-4.6422,-4.5652,-4.4614,0.0,0.0,-4.3677,-4.3777,-4.4852,-4.5405,-4.5458,-4.4587,-4.4716,-4.5209,-4.5196,0.0,0.0,-4.917,-5.1856,-5.4605,-5.6418,-5.7469,-5.899,-6.2028,-6.3663,-6.486,-6.5971,-6.7261,-6.8987,-7.1568,-7.248,-7.4044,-7.7457,-7.7378,-7.7304,-7.8148,-7.8552,-7.9176,-8.0241,-8.2223,-8.3728,-8.4535,-8.5343,-8.6151,-8.6958,-8.6995,-8.6891,-8.6643,-8.5768,-8.5084,-8.4609,-8.2795,-8.1389,-8.0419,-7.8769,-7.7604,-7.686,-7.6082,-7.5303,-7.4627,-7.4728,-7.3646,-7.1718,-7.077,-6.9881,-6.9016,-6.7719,-6.7064,-6.67,-6.598,-6.5559,-6.5425,0.0,0.0,0.0,0.0,0.0,0.0,0.0,0.0,0.0,0.0,0.0,0.0,0.0,0.0,0.0,0.0,0.0,0.0,0.0,0.0,0.0,0.0,0.0,0.0,0.0,0.0,0.0,0.0,0.0,0.0,0.0,0.0,0.0,0.0,0.0,0.0,0.0,0.0,0.0,0.0,0.0,0.0,-5.0854,-4.8611,-4.6431,-4.4401,-4.3033,0.0,0.0,0.0,-4.0288,-3.9874,-4.1591,-4.2689,0.0,-4.4104,-4.4524,0.0,0.0,0.0,-4.9118,-5.1365,-5.4208,-5.748,-6.1223,-6.2096,-6.2763,-6.5102,-6.507,-6.46,-6.4669,-6.4806,-6.5736,-6.8251,-7.0121,-7.2413,-7.5709,-7.6166,-7.646,-7.7237,-7.668,-7.6864,0.0,-8.1562,-8.3728,-8.4535,-8.5343,-8.6151,-8.6958,-8.6995,-8.6608,-8.5767,-8.5429,-8.4487,-8.2811,-8.2187,-8.113,-7.9537,-7.8496,-7.7604,-7.686,-7.6082,-7.5303,-7.4525,-7.3105,-7.165,-7.0128,-6.8639,-6.7462,-6.6565,-6.6249,-6.5999,-6.5813,-6.5514,-6.5425,-6.5425,0.0,0.0,0.0,0.0,0.0,0.0,0.0,0.0,0.0,0.0,0.0,0.0,0.0,0.0,0.0,0.0,0.0,0.0,0.0,0.0,0.0,0.0,0.0,0.0,0.0,0.0,0.0,0.0,0.0,0.0,0.0,0.0,0.0,0.0,0.0,0.0,0.0,0.0,0.0,0.0,0.0,0.0,-5.0515,-4.7487,-4.4903,-4.2545,0.0,0.0,0.0,0.0,0.0,-3.894,-3.9982,0.0,0.0,-4.2585,-4.3642,-4.4867,0.0,0.0,-5.2096,-5.446,-5.6706,-5.8957,-6.1245,-6.1744,-6.2117,-6.338,-6.2578,-6.1604,-6.1581,-6.304,-6.468,-6.6167,-6.9547,-7.2783,-7.5051,-7.5839,-7.6072,-7.5739,-7.6937,0.0,0.0,0.0,0.0,-8.4425,-8.4866,-8.5358,-8.6101,-8.6138,-8.5654,-8.4604,-8.3748,-8.2717,-8.1457,-8.0501,-7.9279,-7.7784,-7.6908,-7.6082,-7.5371,-7.51,-7.4052,-7.2428,-7.2394,-7.1278,-6.9417,-6.891,-6.8408,-6.7853,-6.6584,-6.6299,-6.6368,-6.5183,-6.473,-6.473,0.0,0.0,0.0,0.0,0.0,0.0,0.0,0.0,0.0,0.0,0.0,0.0,0.0,0.0,0.0,0.0,0.0,0.0,0.0,0.0,0.0,0.0,0.0,0.0,0.0,0.0,0.0,0.0,0.0,0.0,0.0,0.0,0.0,0.0,0.0,0.0,0.0,0.0,0.0,0.0,0.0,0.0,-4.81,-4.5511,-4.3184,0.0,0.0,0.0,0.0,0.0,0.0,0.0,0.0,-3.9939,-4.1412,-4.1861,-4.3988,-4.663,0.0,-5.1464,-5.449,-5.6606,-5.8241,-5.9702,-6.1085,-6.1238,-6.1214,-6.153,-6.039,-5.9253,-5.897,-6.0072,-6.1523,-6.3037,-6.61,-6.949,-7.2878,-7.3555,-7.4145,-7.5192,-7.6747,0.0,0.0,0.0,0.0,-8.4355,-8.4866,-8.5253,-8.5657,-8.5692,-8.5003,-8.3606,-8.2451,-8.1378,-8.0359,-7.9279,-7.8111,-7.6893,-7.5811,-7.4931,-7.4187,-7.395,-7.2766,-7.0939,-7.1142,-7.0263,-6.8639,-6.8402,-6.8094,-6.7655,-6.6551,-6.6055,-6.5847,-6.4818,-6.42,-6.4001,0.0,0.0,0.0,0.0,0.0,0.0,0.0,0.0,0.0,0.0,0.0,0.0,0.0,0.0,0.0,0.0,0.0,0.0,0.0,0.0,0.0,0.0,0.0,0.0,0.0,0.0,0.0,0.0,0.0,0.0,0.0,0.0,0.0,0.0,0.0,0.0,0.0,0.0,0.0,0.0,0.0,0.0,-4.4153,-4.2774,0.0,0.0,0.0,0.0,0.0,0.0,0.0,0.0,0.0,0.0,-4.2206,-4.2378,-4.5788,-4.9687,-5.053,-5.3276,-5.6275,-5.7728,-5.884,-5.9794,-6.0804,-6.0615,-6.0118,-5.9661,-5.8553,-5.7374,0.0,0.0,-5.6714,-5.9101,-6.0546,-6.3502,-6.959,-6.9977,-7.1249,0.0,0.0,0.0,0.0,0.0,0.0,-8.4293,0.0,-8.5587,-8.5508,-8.5506,-8.4573,-8.2571,-8.1558,-8.0524,-7.9386,-7.8394,-7.7502,-7.6758,-7.527,-7.4153,-7.3341,-7.2631,-7.1481,-7.0026,-6.935,-6.8571,-6.7793,-6.7117,-6.6525,-6.6029,-6.6029,-6.5334,-6.4266,-6.4266,-6.3846,-6.3216,0.0,0.0,0.0,0.0,0.0,0.0,0.0,0.0,0.0,0.0,0.0,0.0,0.0,0.0,0.0,0.0,0.0,0.0,0.0,0.0,0.0,0.0,0.0,0.0,0.0,0.0,0.0,0.0,0.0,0.0,0.0,0.0,0.0,0.0,0.0,0.0,0.0,0.0,0.0,0.0,0.0,0.0,-4.4322,0.0,0.0,0.0,0.0,0.0,0.0,0.0,0.0,0.0,0.0,0.0,-4.5001,-4.7415,0.0,-5.2178,-5.3852,-5.5862,-5.7628,-5.8187,-5.8651,-5.8863,-5.8713,-5.8386,-5.779,-5.6729,-5.5006,-5.3518,0.0,0.0,0.0,-5.7775,-6.2637,0.0,-7.0793,-7.3091,0.0,0.0,0.0,-7.9431,-7.8817,-8.0984,0.0,0.0,-8.3169,-8.2926,-8.2855,-8.2715,-8.1734,-7.9796,-7.9342,-7.8572,-7.7566,-7.6739,-7.5912,-7.5202,-7.4221,-7.3105,-7.1853,-7.1109,-6.9925,-6.847,-6.8301,-6.7793,-6.7083,-6.688,-6.6179,-6.5292,-6.5292,-6.4557,-6.3471,-6.2984,-6.2278,-6.1649,0.0,0.0,0.0,0.0,0.0,0.0,0.0,0.0,0.0,0.0,0.0,0.0,0.0,0.0,0.0,0.0,0.0,0.0,0.0,0.0,0.0,0.0,0.0,0.0,0.0,0.0,0.0,0.0,0.0,0.0,0.0,0.0,0.0,0.0,0.0,0.0,0.0,0.0,0.0,0.0,0.0,0.0,0.0,0.0,0.0,0.0,0.0,0.0,0.0,0.0,0.0,-4.2723,-4.469,-4.6558,-4.8557,-5.1084,0.0,-5.478,-5.6182,-5.7466,-5.8388,-5.8509,-5.8433,-5.7988,-5.6768,-5.6426,-5.585,-5.4253,-5.2809,0.0,0.0,0.0,0.0,0.0,0.0,0.0,-6.9962,-7.2061,-7.4017,0.0,-7.8853,0.0,-7.9076,-8.1227,-8.2678,0.0,-8.2908,-8.2744,-8.1918,-8.1734,-8.0706,-7.8763,-7.817,-7.742,-7.6386,-7.5608,-7.4999,-7.4593,-7.351,-7.2225,-7.0804,-7.006,-6.8876,-6.7421,0.0,-6.71,-6.6643,-6.6306,-6.5648,-6.482,-6.4519,-6.3539,-6.2278,-6.1848,-6.1053,-6.0125,0.0,0.0,0.0,0.0,0.0,0.0,0.0,0.0,0.0,0.0,0.0,0.0,0.0,0.0,0.0,0.0,0.0,0.0,0.0,0.0,0.0,0.0,0.0,0.0,0.0,0.0,0.0,0.0,0.0,0.0,0.0,0.0,0.0,0.0,0.0,0.0,0.0,0.0,0.0,0.0,0.0,0.0,0.0,0.0,0.0,0.0,0.0,0.0,0.0,0.0,-4.4302,-4.5502,-4.7981,-5.0339,-5.2557,-5.4096,-5.5721,-5.7155,-5.774,-5.8377,-5.8795,-5.8618,-5.8163,-5.7249,-5.5148,-5.4731,-5.4209,-5.2135,0.0,0.0,-5.0067,0.0,-5.2386,-5.5038,0.0,-6.1695,-6.8635,-6.9739,-7.1717,-7.6705,-7.8708,-7.964,-7.9542,-8.0957,-8.1796,-8.1515,-8.2955,-8.3189,-8.1594,-8.1224,-8.0132,-7.8224,-7.7292,-7.6422,-7.5405,-7.4762,-7.4356,-7.4153,-7.2766,-7.1312,-6.9857,-6.9113,-6.8064,-6.6812,0.0,0.0,-6.6305,-6.5564,-6.4908,-6.4314,-6.3715,-6.2456,-6.0953,-6.0953,-6.0026,-5.8767,0.0,0.0,0.0,0.0,0.0,0.0,0.0,0.0,0.0,0.0,-3.0927,0.0,0.0,0.0,0.0,0.0,0.0,0.0,0.0,0.0,0.0,0.0,0.0,0.0,0.0,0.0,0.0,0.0,0.0,0.0,0.0,0.0,0.0,0.0,0.0,0.0,0.0,0.0,0.0,0.0,0.0,0.0,0.0,0.0,0.0,0.0,0.0,0.0,0.0,0.0,-4.7464,-4.9645,-5.1997,-5.4485,-5.6742,-5.7803,-5.8427,-5.8715,-5.8558,-5.901,-5.9285,-5.8214,-5.7885,-5.7083,-5.4519,-5.3563,0.0,0.0,0.0,-4.9357,-4.9221,-5.0461,0.0,-5.644,0.0,0.0,0.0,0.0,-7.4067,0.0,0.0,0.0,0.0,0.0,0.0,0.0,0.0,-8.0617,-7.9638,-7.8554,-7.7127,-7.5378,-7.5161,-7.4674,-7.3883,-7.3747,-7.3071,-7.1887,-7.1007,-6.9755,-6.8267,-6.7557,-6.7049,-6.6779,-6.617,0.0,-6.5531,-6.4798,-6.3835,-6.2882,-6.2749,-6.1692,-6.0191,-6.0191,-5.9264,-5.8071,0.0,0.0,0.0,0.0,0.0,0.0,0.0,0.0,0.0,0.0,-3.3284,-3.2659,0.0,0.0,0.0,0.0,0.0,0.0,0.0,0.0,0.0,0.0,0.0,0.0,0.0,0.0,0.0,0.0,0.0,0.0,0.0,0.0,0.0,0.0,0.0,0.0,0.0,0.0,0.0,0.0,0.0,0.0,0.0,0.0,0.0,0.0,0.0,0.0,0.0,0.0,-4.823,-5.1746,-5.4319,-5.6642,-5.8765,-6.0038,-6.0492,-6.0608,-6.0415,-6.0677,-6.0658,-5.9311,-5.8668,-5.7487,-5.4061,0.0,0.0,0.0,0.0,-4.9018,-4.9018,0.0,0.0,0.0,0.0,0.0,0.0,0.0,0.0,0.0,0.0,0.0,0.0,0.0,0.0,0.0,0.0,-7.87,-7.8323,-7.7229,-7.5981,-7.4661,-7.4627,-7.4255,-7.3477,-7.2732,-7.1988,-7.1312,-7.0161,-6.9011,-6.7895,-6.7523,-6.6948,-6.6203,-6.5831,0.0,-6.4556,-6.3817,-6.3033,-6.2315,-6.1916,-6.0804,-5.9429,-5.9429,-5.8502,-5.7276,0.0,0.0,0.0,0.0,0.0,0.0,0.0,-3.3308,-3.3837,-3.4871,-3.5352,-3.516,-3.3933,-3.2827,-3.1913,0.0,0.0,0.0,0.0,0.0,0.0,0.0,0.0,0.0,0.0,0.0,0.0,0.0,0.0,0.0,0.0,0.0,0.0,0.0,0.0,0.0,0.0,0.0,0.0,0.0,0.0,0.0,0.0,0.0,0.0,0.0,0.0,0.0,0.0,0.0,-4.7935,-5.173,-5.4355,-5.7017,-5.9355,-6.0319,-6.1158,-6.1797,-6.1756,-6.2058,-6.2089,-6.0589,-5.9562,-5.7885,-5.3964,-5.2399,0.0,0.0,-4.8987,-4.9018,-4.9018,0.0,0.0,0.0,0.0,0.0,0.0,0.0,0.0,0.0,0.0,0.0,0.0,0.0,0.0,0.0,0.0,0.0,-7.7208,-7.6428,-7.5492,-7.439,-7.4221,-7.3713,-7.28,-7.1481,-7.0737,-7.0567,-6.9417,-6.8436,-6.7658,-6.7658,-6.6905,-6.5655,-6.5486,0.0,0.0,-6.2806,-6.2291,-6.1881,-6.1152,-6.0059,-5.8866,-5.8734,-5.7806,-5.668,0.0,0.0,0.0,0.0,0.0,0.0,0.0,-3.338,-3.4294,-3.54,-3.5593,-3.5569,-3.5425,-3.4414,-3.3382,0.0,0.0,0.0,0.0,0.0,0.0,0.0,0.0,0.0,0.0,0.0,0.0,0.0,0.0,0.0,0.0,0.0,0.0,0.0,0.0,0.0,0.0,0.0,0.0,0.0,0.0,0.0,0.0,0.0,0.0,0.0,0.0,0.0,0.0,0.0,0.0,-4.8731,-5.0622,-5.4692,-5.8541,-5.733,0.0,0.0,-6.1169,-6.2155,-6.2808,-6.1384,-5.9926,-5.7945,-5.4416,0.0,0.0,0.0,-4.8925,-4.9018,-4.9018,-4.912,0.0,0.0,0.0,0.0,0.0,0.0,0.0,0.0,0.0,0.0,0.0,0.0,0.0,0.0,0.0,0.0,-7.5872,-7.5791,-7.5114,-7.3646,-7.2935,-7.1921,-7.05,-6.9688,-6.8944,-6.8199,-6.8064,-6.7624,-6.6914,-6.6914,-6.6348,-6.5404,-6.4697,0.0,0.0,-6.1824,-6.1393,-6.1119,-6.039,-5.9595,-5.8833,-5.8138,-5.7376,-5.668,0.0,0.0,0.0,0.0,0.0,0.0,0.0,-3.3116,-3.4198,-3.5881,-3.6362,-3.6555,-3.6555,-3.5905,-3.4655,0.0,0.0,0.0,0.0,0.0,0.0,0.0,0.0,0.0,0.0,0.0,0.0,0.0,0.0,0.0,0.0,0.0,0.0,0.0,0.0,0.0,0.0,0.0,0.0,0.0,0.0,0.0,0.0,0.0,0.0,0.0,0.0,0.0,0.0,0.0,0.0,0.0,-4.6555,-4.9693,0.0,0.0,-5.8468,-6.0158,-6.1947,-6.314,-6.3537,-6.2113,-5.9993,-5.7454,-5.4562,0.0,0.0,-4.9133,-4.8987,-4.9018,-4.9018,-4.9018,-4.9788,0.0,0.0,0.0,0.0,0.0,0.0,0.0,0.0,0.0,0.0,0.0,0.0,0.0,0.0,0.0,-7.5033,-7.4627,-7.368,-7.2225,-7.1887,-7.1041,-6.9553,-6.8774,-6.8233,-6.7895,-6.7455,-6.7083,-6.6812,-6.6213,-6.5514,-6.4689,-6.3792,0.0,0.0,-6.0415,-6.0109,-6.0316,-5.8987,-5.8388,-5.8131,-5.7281,-5.649,-5.5868,0.0,0.0,0.0,0.0,0.0,0.0,-3.2058,-3.2707,-3.3741,-3.5689,-3.6386,-3.6795,-3.694,-3.6483,-3.5376,-3.3356,0.0,0.0,0.0,0.0,0.0,0.0,0.0,0.0,0.0,0.0,0.0,0.0,0.0,0.0,0.0,0.0,0.0,0.0,0.0,0.0,0.0,0.0,0.0,0.0,0.0,0.0,0.0,0.0,0.0,0.0,0.0,0.0,0.0,0.0,0.0,0.0,0.0,0.0,0.0,0.0,-5.6812,-5.9065,-6.1351,-6.2974,-6.3703,-6.252,-5.9835,-5.6967,0.0,0.0,-4.9549,-4.9092,-4.9018,-4.9018,-4.9018,-4.9018,-4.9419,0.0,0.0,0.0,0.0,0.0,0.0,0.0,0.0,0.0,0.0,0.0,0.0,0.0,0.0,0.0,0.0,-7.3037,-7.2157,-7.1345,-7.0906,-7.006,-6.8774,-6.7963,-6.7557,-6.7557,-6.7049,-6.6669,-6.6348,-6.5716,-6.4816,-6.3709,0.0,0.0,0.0,-5.9263,-5.8852,-5.8997,-5.7581,-5.7029,-5.6907,-5.603,-5.5361,-5.4943,0.0,0.0,0.0,0.0,0.0,0.0,0.0,-3.2154,-3.3068,-3.4583,-3.5304,-3.5833,-3.6362,-3.593,-3.54,-3.4799,0.0,0.0,0.0,0.0,0.0,0.0,0.0,0.0,0.0,0.0,0.0,-3.2803,-3.5659,0.0,0.0,0.0,0.0,0.0,0.0,0.0,0.0,0.0,0.0,0.0,0.0,0.0,0.0,0.0,0.0,0.0,0.0,0.0,0.0,0.0,0.0,0.0,0.0,0.0,0.0,0.0,-5.3268,-5.7972,-5.8734,-6.1053,-6.315,-6.2387,-5.9591,-5.6654,0.0,0.0,-4.9643,-4.9123,-4.9018,-4.9018,-4.9018,-4.9018,-4.908,-4.9202,0.0,0.0,0.0,0.0,0.0,0.0,0.0,0.0,0.0,0.0,0.0,0.0,0.0,0.0,0.0,-7.1007,-7.0567,-7.1312,-6.9891,-6.8741,-6.7929,-6.7184,-6.6812,-6.6812,-6.6812,-6.6314,-6.5396,-6.5396,-6.438,0.0,0.0,0.0,0.0,-5.8496,-5.772,-5.7069,-5.6328,-5.5664,-5.5043,-5.4304,-5.4019,-5.4019,0.0,0.0,0.0,0.0,0.0,0.0,0.0,-3.0807,-3.1841,-3.3068,-3.3693,-3.4487,-3.5737,-3.54,-3.4967,-3.4799,0.0,0.0,0.0,0.0,0.0,0.0,0.0,0.0,0.0,0.0,-3.4416,-3.4416,-3.6675,-3.7828,-3.7933,0.0,0.0,0.0,0.0,0.0,0.0,0.0,0.0,0.0,0.0,0.0,0.0,0.0,0.0,0.0,0.0,0.0,0.0,0.0,0.0,0.0,0.0,0.0,0.0,0.0,0.0,0.0,-5.6241,-5.7537,-5.8169,-5.7936,-5.5913,-5.3792,-5.3105,-5.0959,-4.9102,-4.9021,-4.9018,-4.9018,-4.9018,-4.9018,-4.9492,-5.1078,-5.1722,0.0,0.0,0.0,0.0,0.0,0.0,0.0,0.0,0.0,0.0,0.0,0.0,0.0,0.0,-6.9722,-6.8977,-6.9789,-6.8808,-6.7929,-6.7151,-6.6914,-6.6812,-6.6812,-6.6137,-6.5682,-6.5363,-6.4028,0.0,0.0,0.0,0.0,0.0,-5.5837,-5.5336,-5.562,-5.4189,-5.3947,-5.4249,-5.3377,-5.302,-5.2958,0.0,0.0,0.0,0.0,0.0,0.0,0.0,-2.9869,-3.0663,-3.1745,-3.2346,-3.3212,-3.4583,-3.4607,-3.4558,-3.4751,0.0,0.0,0.0,0.0,0.0,0.0,0.0,0.0,0.0,-3.5367,-3.59,-3.6155,-3.7952,-3.8973,-3.9294,-4.0334,-4.0697,0.0,0.0,0.0,0.0,0.0,0.0,0.0,0.0,0.0,-4.4207,0.0,0.0,0.0,0.0,0.0,0.0,0.0,0.0,0.0,0.0,0.0,0.0,0.0,0.0,0.0,0.0,-5.4928,-5.5562,-5.5562,-5.3928,0.0,0.0,-5.0319,-4.8832,-4.8987,-4.9018,-4.9018,-4.9018,-4.9018,-4.9458,-5.0845,-5.1522,0.0,0.0,0.0,0.0,0.0,0.0,0.0,0.0,0.0,0.0,0.0,0.0,0.0,0.0,-6.8571,-6.7726,-6.8233,-6.7489,-6.6711,-6.6,-6.5967,-6.5925,-6.5842,-6.5278,-6.4741,-6.4271,-6.2671,0.0,0.0,0.0,0.0,0.0,-5.4237,-5.373,-5.3878,-5.2841,-5.2641,-5.2843,-5.2015,-5.1698,-5.1606,0.0,0.0,0.0,0.0,0.0,0.0,0.0,0.0,0.0,0.0,-3.1308,-3.2054,-3.3068,-3.3621,-3.4102,0.0,0.0,0.0,0.0,0.0,0.0,0.0,0.0,0.0,0.0,-3.6598,-3.7137,-3.7797,-3.9325,-4.0397,-4.1049,-4.1586,-4.1977,-4.2174,-4.1565,0.0,0.0,0.0,0.0,0.0,0.0,0.0,0.0,0.0,0.0,0.0,0.0,0.0,0.0,0.0,0.0,0.0,0.0,0.0,0.0,0.0,0.0,0.0,0.0,0.0,0.0,0.0,0.0,0.0,0.0,-5.025,0.0,-4.8987,-4.9018,-4.9018,-4.9086,-4.9052,-4.9086,-4.9289,-5.0473,0.0,0.0,0.0,0.0,0.0,0.0,0.0,0.0,0.0,0.0,0.0,0.0,0.0,0.0,-6.7523,-6.6677,-6.6576,-6.5899,-6.5222,-6.4613,-6.4613,-6.4532,-6.4293,-6.4177,-6.3484,-6.2357,-6.1229,0.0,0.0,0.0,0.0,0.0,-5.3459,-5.2665,-5.2067,-5.2067,-5.1648,-5.102,-5.0345,-5.0136,-5.0016,0.0,0.0,0.0,0.0,0.0,0.0,0.0,0.0,0.0,0.0,-3.047,-3.1356,-3.2006,-3.2539,-3.3282,0.0,0.0,0.0,0.0,0.0,0.0,0.0,0.0,0.0,0.0,-3.7633,-3.8205,-3.8871,-4.0144,-4.1235,-4.2124,-4.3189,-4.3551,-4.3331,-4.3137,0.0,0.0,0.0,0.0,0.0,0.0,0.0,0.0,0.0,0.0,0.0,-4.3717,-4.4049,0.0,0.0,0.0,0.0,0.0,0.0,0.0,0.0,-4.8416,-4.8318,-4.9367,0.0,-5.0253,0.0,0.0,0.0,0.0,0.0,0.0,0.0,0.0,0.0,0.0,-4.939,-4.9763,-5.2063,-5.2739,0.0,0.0,0.0,0.0,0.0,0.0,0.0,0.0,0.0,0.0,0.0,0.0,0.0,0.0,-6.6474,-6.5425,-6.4343,-6.4106,-6.4208,-6.4613,-6.4613,-6.4532,-6.4293,-6.278,-6.1827,-6.1251,-5.9016,0.0,0.0,0.0,0.0,-5.2748,-5.1982,-5.1289,-5.0644,-5.0644,-5.0301,-4.9748,-4.9553,-4.9494,-4.9404,0.0,0.0,0.0,0.0,0.0,0.0,0.0,0.0,0.0,0.0,0.0,0.0,0.0,0.0,0.0,0.0,0.0,0.0,0.0,0.0,0.0,0.0,0.0,0.0,-3.7863,-3.8089,-3.8667,-3.9625,-4.0402,-4.1512,-4.291,-4.3713,-4.4,-4.3909,-4.374,-4.3535,0.0,0.0,0.0,0.0,-4.3598,0.0,0.0,0.0,0.0,0.0,-4.3687,-4.4212,0.0,-4.545,-4.6203,-4.7096,0.0,0.0,0.0,0.0,-4.8714,-4.8849,-4.8578,-4.8956,-4.94,-4.94,-4.9338,-4.9338,0.0,0.0,0.0,0.0,0.0,0.0,0.0,0.0,0.0,0.0,0.0,0.0,0.0,0.0,0.0,0.0,0.0,0.0,0.0,0.0,0.0,0.0,0.0,0.0,0.0,-6.529,-6.4343,-6.3531,-6.3039,-6.2999,-6.337,-6.3444,-6.3045,-6.2264,-6.1238,-6.0195,-5.9145,-5.733,-5.5844,0.0,0.0,0.0,-5.1259,-5.0853,-5.0391,-4.9793,-4.9793,-4.9583,-4.9269,-4.897,-4.885,-4.876,0.0,0.0,0.0,0.0,0.0,0.0,0.0,0.0,0.0,0.0,0.0,0.0,0.0,0.0,0.0,0.0,0.0,0.0,0.0,0.0,0.0,0.0,0.0,-3.8289,-3.8202,-3.8202,-3.8783,-3.9983,-4.0529,-4.1808,-4.3729,-4.4254,-4.4605,-4.4747,-4.4335,-4.3962,0.0,0.0,0.0,0.0,-4.3787,0.0,0.0,0.0,0.0,0.0,0.0,0.0,0.0,-4.5921,-4.6817,-4.7787,-4.8314,0.0,0.0,0.0,0.0,0.0,-4.821,-4.9154,-5.0338,-4.9999,-4.9938,-4.991,0.0,0.0,0.0,0.0,0.0,0.0,0.0,0.0,0.0,0.0,0.0,0.0,0.0,0.0,0.0,0.0,0.0,0.0,0.0,0.0,0.0,0.0,0.0,0.0,0.0,-6.4241,-6.3423,-6.3288,-6.2413,-6.185,-6.1515,-6.1656,-6.1052,-5.974,-5.9436,-5.8389,-5.6689,-5.5658,-5.4481,0.0,0.0,0.0,-5.0046,-5.0046,-4.9703,-4.9179,-4.9179,-4.909,-4.894,-4.8356,-4.8147,-4.8027,0.0,0.0,0.0,0.0,0.0,0.0,0.0,0.0,0.0,0.0,0.0,0.0,0.0,0.0,0.0,0.0,0.0,0.0,0.0,0.0,0.0,0.0,-3.9576,-3.8783,-3.8202,-3.8202,-3.8655,-3.9574,-4.128,-4.3148,-4.5212,-4.6931,-4.7604,-4.7406,-4.6677,-4.5682,-4.4522,-4.4643,-4.4371,-4.3901,-4.4649,0.0,0.0,0.0,0.0,0.0,0.0,0.0,0.0,-4.4774,-4.5976,-4.7423,-4.649,0.0,0.0,0.0,0.0,0.0,-4.777,-4.9898,-5.1522,-4.9627,-4.9596,-4.9869,0.0,0.0,0.0,0.0,0.0,0.0,0.0,0.0,0.0,0.0,0.0,0.0,0.0,0.0,0.0,0.0,0.0,0.0,0.0,0.0,0.0,0.0,0.0,0.0,0.0,-6.3971,-6.3113,-6.2278,-6.2104,-6.1179,-5.9413,-6.0088,-6.0004,-5.9033,-5.7381,-5.6061,-5.5039,-5.3459,-5.2304,0.0,0.0,-5.0122,-4.9404,-4.9404,-4.9045,-4.8446,-4.8446,-4.8087,-4.7608,-4.7489,-4.7459,-4.7369,0.0,0.0,0.0,0.0,0.0,0.0,0.0,0.0,0.0,0.0,0.0,0.0,0.0,0.0,0.0,0.0,0.0,0.0,0.0,0.0,0.0,0.0,-4.0379,-3.9392,-3.8754,-3.8839,-3.9273,-4.0022,-4.1911,-4.3883,-4.6019,-4.7914,-4.8507,-4.7968,-4.7239,-4.6311,-4.5282,-4.5006,-4.4967,-4.5093,0.0,0.0,0.0,0.0,0.0,0.0,0.0,0.0,0.0,0.0,-4.6203,-4.7423,-4.6439,0.0,0.0,0.0,0.0,0.0,-4.7278,-4.9333,-5.1358,-5.028,-5.0887,-5.1561,0.0,0.0,0.0,0.0,0.0,0.0,0.0,0.0,0.0,0.0,0.0,0.0,0.0,0.0,0.0,0.0,0.0,0.0,0.0,0.0,0.0,0.0,0.0,0.0,0.0,0.0,-6.2005,-6.0554,-6.0398,-5.9422,-5.7646,-5.7368,-5.7013,-5.6639,-5.5734,-5.4405,-5.2775,-5.2034,-5.1109,-5.0152,0.0,-4.9344,-4.8716,-4.8356,-4.8027,-4.7698,-4.695,-4.692,-4.7249,-4.689,-4.6531,-4.6172,0.0,0.0,0.0,0.0,0.0,0.0,0.0,0.0,0.0,0.0,0.0,0.0,0.0,0.0,0.0,0.0,0.0,0.0,0.0,0.0,-4.1114,-4.2254,-4.1192,-4.0263,-3.9654,-3.9565,-3.9914,-4.0774,-4.2465,-4.4625,-4.7221,-4.8833,-4.9226,-4.8498,-4.81,-4.737,-4.6373,-4.6098,-4.6257,-4.6684,0.0,0.0,0.0,0.0,0.0,0.0,0.0,0.0,0.0,0.0,0.0,0.0,0.0,0.0,0.0,-4.5689,-4.6754,-4.8057,-4.6817,-4.8599,-5.0754,0.0,0.0,0.0,0.0,0.0,0.0,0.0,0.0,0.0,0.0,0.0,0.0,0.0,0.0,0.0,0.0,0.0,0.0,0.0,0.0,0.0,0.0,0.0,0.0,0.0,0.0,0.0,0.0,0.0,-6.0746,-5.8945,-5.87,-5.7689,-5.5866,-5.4756,-5.4222,-5.4222,-5.399,-5.2777,-5.075,-5.075,-5.0122,-4.909,-4.891,-4.8446,-4.7788,-4.71,-4.683,-4.6741,-4.5693,-4.5933,-4.677,-4.6262,-4.5753,-4.5274,0.0,0.0,0.0,0.0,0.0,0.0,0.0,0.0,0.0,0.0,0.0,0.0,0.0,0.0,0.0,0.0,0.0,0.0,0.0,0.0,-4.1312,-4.2863,-4.2295,-4.1628,-4.0989,-4.0003,-4.0197,-4.1617,-4.3197,-4.5859,-4.9584,-5.0634,-5.075,-5.0088,-5.0684,-4.9925,-4.816,-4.8955,-4.9015,-4.8601,-4.8689,0.0,0.0,0.0,0.0,0.0,0.0,0.0,0.0,0.0,0.0,0.0,0.0,0.0,-4.6447,-4.5819,-4.6249,-4.6891,-4.6578,-4.8287,-5.0073,-4.9753,0.0,0.0,0.0,0.0,0.0,0.0,0.0,0.0,0.0,0.0,0.0,0.0,0.0,0.0,0.0,0.0,0.0,0.0,0.0,0.0,0.0,0.0,0.0,0.0,0.0,0.0,0.0,0.0,0.0,-5.7688,-5.7611,-5.6397,-5.3942,-5.3203,-5.2849,-5.2849,-5.1878,-5.0753,-4.9449,-4.9449,-4.906,-4.8327,-4.7698,-4.707,-4.6369,-4.5723,-4.5424,-4.5424,-4.5334,-4.5364,-4.5424,-4.5394,-4.5334,-4.5214,0.0,0.0,0.0,0.0,0.0,0.0,0.0,0.0,0.0,0.0,0.0,0.0,0.0,0.0,0.0,0.0,0.0,0.0,0.0,0.0,-4.1558,-4.2934,-4.2129,-4.1715,-4.182,-4.1594,-4.1833,-4.2574,-4.5012,-4.7454,-4.9805,-5.0736,-5.1051,-5.0883,-5.1183,-5.0689,-4.9626,-4.959,-4.982,-5.0148,-4.9801,-4.9965,0.0,0.0,0.0,0.0,0.0,0.0,0.0,0.0,-4.5102,-4.5678,0.0,0.0,-4.6426,-4.4853,-4.534,-4.6237,-4.5708,-4.7166,-4.8894,-4.9293,0.0,0.0,0.0,0.0,0.0,0.0,0.0,0.0,0.0,0.0,0.0,0.0,0.0,0.0,0.0,0.0,0.0,0.0,0.0,0.0,0.0,0.0,0.0,0.0,0.0,0.0,0.0,0.0,0.0,-5.4559,-5.4121,-5.2949,-5.1001,-5.0728,-5.0395,-4.9956,-4.9975,-4.9314,-4.8057,-4.8057,-4.7459,-4.6411,-4.6172,-4.5903,-4.5633,-4.4945,-4.4915,-4.5304,-4.5304,-4.4796,-4.4137,-4.4526,-4.4436,-4.4107,0.0,0.0,0.0,0.0,0.0,0.0,0.0,0.0,0.0,0.0,0.0,0.0,0.0,0.0,0.0,0.0,0.0,0.0,0.0,-3.9817,-4.161,-4.2769,-4.2281,-4.2257,-4.282,-4.3024,-4.3216,-4.3377,-4.6214,-4.8221,-4.9447,-5.0314,-5.0908,-5.1224,-5.1274,-5.1254,-5.116,-5.046,-5.0793,-5.1663,-5.0986,-5.1121,0.0,0.0,0.0,0.0,0.0,0.0,0.0,0.0,-4.4786,0.0,0.0,0.0,0.0,0.0,-4.4912,-4.5649,-4.5121,-4.6323,-4.795,0.0,0.0,0.0,0.0,0.0,0.0,0.0,0.0,0.0,0.0,0.0,0.0,0.0,0.0,0.0,0.0,0.0,0.0,0.0,0.0,0.0,0.0,0.0,0.0,0.0,0.0,0.0,0.0,0.0,0.0,0.0,-5.1603,-5.0484,-4.9,-4.8745,-4.8327,-4.7668,-4.7908,-4.7668,-4.698,-4.677,-4.6172,-4.5274,-4.5065,-4.4975,-4.4945,-4.4287,-4.4257,-4.4676,-4.4676,-4.4137,-4.3349,-4.3838,-4.3678,-4.3349,0.0,0.0,0.0,0.0,0.0,0.0,0.0,0.0,0.0,0.0,0.0,0.0,0.0,0.0,0.0,0.0,0.0,0.0,0.0,-3.9912,-4.1448,-4.2363,-4.2936,-4.3495,-4.3991,-4.402,-4.402,-4.402,-4.6336,-4.7886,-4.8625,-4.9566,-5.0385,-5.1107,-5.1224,-5.1888,-5.2802,-5.1894,-5.2165,-5.3111,-5.2404,-5.2438,-5.2568,0.0,0.0,0.0,0.0,0.0,0.0,0.0,-4.4434,-4.4164,0.0,0.0,0.0,0.0,-4.5152,-4.508,-4.4919,-4.6028,0.0,0.0,0.0,0.0,0.0,0.0,0.0,0.0,0.0,0.0,0.0,0.0,0.0,0.0,0.0,0.0,0.0,0.0,0.0,0.0,0.0,0.0,0.0,0.0,0.0,0.0,0.0,0.0,0.0,0.0,0.0,0.0,-5.0495,-4.9583,-4.8267,-4.7608,-4.695,-4.6249,-4.5603,-4.5633,-4.6249,-4.5603,-4.5274,-4.5244,-4.4586,-4.4317,-4.4257,-4.3559,-4.329,-4.329,-4.329,-4.329,-4.329,-4.329,-4.329,-4.329,0.0,0.0,0.0,0.0,0.0,0.0,0.0,0.0,0.0,0.0,0.0,0.0,0.0,0.0,0.0,0.0,0.0,0.0,0.0,-3.9337,-4.0353,-4.1631,-4.1986,-4.2511,-4.3278,-4.4363,-4.4923,-4.4923,-4.6082,-4.7338,-4.8615,-4.8858,-4.948,-5.0353,-5.1387,-5.1911,-5.1894,-5.1625,-5.2096,-5.2905,-5.2202,-5.2268,-5.2702,0.0,0.0,0.0,0.0,0.0,0.0,0.0,0.0,0.0,0.0,0.0,0.0,0.0,-4.4398,-4.5112,-4.3069,0.0,0.0,0.0,0.0,0.0,0.0,0.0,0.0,0.0,0.0,0.0,0.0,0.0,0.0,0.0,0.0,0.0,0.0,0.0,0.0,0.0,0.0,0.0,0.0,0.0,0.0,0.0,0.0,0.0,0.0,0.0,0.0,0.0,-4.7818,-4.707,-4.6202,-4.5992,-4.5783,-4.5603,-4.4915,-4.4706,-4.4915,-4.4706,-4.4347,-4.3858,-4.3678,-4.3589,-4.3559,-4.3379,-4.329,-4.329,-4.329,-4.329,-4.329,-4.329,-4.329,-4.3349,0.0,0.0,0.0,0.0,0.0,0.0,0.0,0.0,0.0,0.0,0.0,0.0,0.0,0.0,0.0,0.0,0.0,0.0,0.0,0.0,-3.9809,-4.1077,-4.1754,-4.2662,-4.3875,-4.5072,-4.5693,-4.5693,-4.6381,-4.7189,-4.8103,-4.8683,-4.9418,-5.0263,-5.1244,-5.1727,-5.1762,-5.1216,-5.1525,-5.2331,-5.1863,-5.2096,-5.2594,0.0,0.0,0.0,0.0,0.0,0.0,0.0,0.0,0.0,0.0,0.0,0.0,-4.3532,-4.3807,-4.4506,-4.304,0.0,0.0,0.0,0.0,0.0,0.0,0.0,0.0,0.0,0.0,0.0,0.0,0.0,0.0,0.0,0.0,0.0,0.0,0.0,0.0,0.0,0.0,0.0,0.0,0.0,0.0,0.0,0.0,0.0,0.0,0.0,0.0,0.0,-4.6262,-4.5603,-4.4915,-4.4915,-4.4646,-4.4107,-4.3718,-4.3389,-4.318,-4.3688,-4.3678,-4.329,-4.329,-4.329,-4.329,-4.329,-4.329,-4.329,-4.329,-4.329,-4.329,-4.329,-4.329,-4.3349,0.0,0.0,0.0,0.0,0.0,0.0,0.0,0.0,0.0,0.0,0.0,0.0,0.0,0.0,0.0,0.0,0.0,0.0,0.0,0.0,-3.977,-4.0919,-4.2286,-4.376,-4.5364,-4.6052,-4.6369,-4.6369,-4.695,-4.7249,-4.7309,-4.867,-4.9658,-5.0333,-5.062,-5.1177,-5.1767,-5.046,-5.0382,-5.1184,-5.1252,-5.1615,-5.2037,-5.1584,0.0,0.0,0.0,0.0,0.0,0.0,0.0,0.0,0.0,0.0,0.0,-4.3368,-4.334,-4.3574,0.0,0.0,0.0,0.0,0.0,0.0,0.0,0.0,0.0,0.0,0.0,0.0,0.0,0.0,0.0,0.0,0.0,0.0,0.0,0.0,0.0,0.0,0.0,0.0,0.0,0.0,0.0,0.0,0.0,0.0,0.0,0.0,0.0,-4.61,-4.5544,-4.4855,-4.4137,-4.4137,-4.3509,0.0,-4.2321,-4.1991,-4.1414,-4.2611,-4.311,-4.311,-4.311,-4.314,-4.32,-4.32,-4.323,-4.329,-4.329,-4.329,-4.329,-4.329,-4.329,-4.329,0.0,0.0,0.0,0.0,0.0,0.0,0.0,0.0,0.0,0.0,0.0,0.0,0.0,0.0,0.0,0.0,0.0,0.0,0.0,0.0,0.0,0.0,0.0,0.0,-4.6082,-4.6741,-4.71,-4.71,-4.6711,0.0,0.0,0.0,0.0,-4.8194,0.0,-4.8945,-4.8624,-4.7855,-4.7965,-4.8721,-4.9303,-4.9648,-4.9776,-5.0236,-4.958,0.0,0.0,0.0,0.0,0.0,0.0,0.0,-4.3644,-4.4011,-4.4126,-4.2371,-4.2639,0.0,0.0,0.0,0.0,0.0,0.0,0.0,0.0,0.0,0.0,0.0,0.0,0.0,0.0,0.0,0.0,0.0,0.0,0.0,0.0,0.0,0.0,0.0,0.0,0.0,0.0,0.0,0.0,0.0,0.0,0.0,0.0,0.0,0.0,-4.4766,-4.4616,-4.3958,-4.283,-4.283,-4.241,0.0,-4.1632,-4.1542,-4.1384,-4.1654,-4.1803,-4.1803,-4.1803,-4.2102,-4.262,-4.262,-4.288,-4.329,-4.329,-4.329,-4.329,-4.329,-4.329,-4.329,0.0,0.0,0.0,0.0,0.0,0.0,0.0,0.0,0.0,0.0,0.0,0.0,0.0,0.0,0.0,0.0,0.0,0.0,0.0,0.0,0.0,0.0,0.0,0.0,0.0,-4.713,-4.716,-4.683,0.0,0.0,0.0,0.0,0.0,-4.8389,0.0,-4.8687,-4.8043,-4.7158,-4.7188,-4.7832,-4.7924,-4.8327,-4.8904,-4.9005,-4.84,-4.7329,-4.6897,0.0,0.0,0.0,0.0,0.0,0.0,0.0,-4.3297,-4.1829,-4.2387,0.0,0.0,0.0,0.0,0.0,0.0,0.0,0.0,0.0,0.0,0.0,0.0,0.0,0.0,0.0,0.0,0.0,0.0,0.0,0.0,0.0,0.0,0.0,0.0,0.0,0.0,0.0,0.0,0.0,0.0,0.0,0.0,-4.4736,-4.4047,-4.3389,-4.3389,-4.291,-4.1931,-4.1931,-4.1602,-4.0905,-4.0905,-4.0756,-4.0457,-4.1085,-4.1422,-4.1422,-4.1422,-4.1602,-4.1961,-4.2261,-4.262,-4.291,-4.317,-4.329,-4.329,-4.329,-4.329,-4.329,0.0,0.0,0.0,0.0,0.0,0.0,0.0,0.0,0.0,0.0,0.0,0.0,0.0,0.0,0.0,0.0,0.0,0.0,0.0,0.0,0.0,0.0,0.0,0.0,0.0,-4.7189,-4.692,0.0,0.0,0.0,0.0,0.0,0.0,-4.912,0.0,-4.8741,-4.8079,-4.699,-4.683,-4.7268,-4.7051,-4.7435,-4.8159,-4.7669,-4.7076,-4.6508,-4.6705,-4.5756,-4.4593,-4.5933,0.0,0.0,0.0,0.0,-4.2141,-4.1722,-4.2162,-4.3021,0.0,0.0,0.0,0.0,0.0,0.0,0.0,0.0,0.0,0.0,0.0,0.0,0.0,0.0,0.0,0.0,0.0,0.0,0.0,0.0,0.0,0.0,0.0,0.0,0.0,0.0,0.0,0.0,0.0,0.0,-4.4137,-4.3509,-4.291,-4.241,-4.2291,-4.1901,-4.1205,-4.1205,-4.0876,-4.0217,-4.0217,-3.9948,-3.9469,-4.0546,-4.1025,-4.1025,-4.1025,-4.1115,-4.1265,-4.1841,-4.2141,-4.2291,-4.2791,-4.3021,-4.311,-4.311,-4.32,-4.329,0.0,0.0,0.0,0.0,0.0,0.0,0.0,0.0,0.0,0.0,0.0,0.0,0.0,0.0,0.0,0.0,0.0,0.0,-4.0432,0.0,0.0,-4.4206,-4.5472,-4.6531,0.0,-4.6741,-4.6681,0.0,0.0,0.0,0.0,0.0,0.0,-4.8386,0.0,0.0,-4.6551,-4.5804,-4.5555,-4.5716,-4.7015,-4.6894,-4.5928,-4.5943,-4.5479,-4.4586,-4.2902,-4.2455,-4.2908,-4.4227,-4.3696,0.0,0.0,0.0,-4.1632,-4.2141,-4.1534,0.0,0.0,0.0,0.0,0.0,0.0,0.0,0.0,0.0,0.0,0.0,0.0,0.0,0.0,0.0,0.0,0.0,0.0,0.0,0.0,0.0,0.0,0.0,0.0,0.0,0.0,0.0,0.0,0.0,0.0,0.0,-4.3439,-4.2851,-4.25,-4.241,-4.1841,-4.1205,-4.0546,-4.0516,-4.0217,-3.9523,-3.9523,-3.9499,-3.9439,-3.9619,-3.9679,-3.9679,-3.9679,-4.0008,-4.0546,-4.0636,-4.0995,-4.1542,-4.1594,-4.2021,-4.253,-4.253,-4.2851,-4.329,0.0,0.0,0.0,0.0,0.0,0.0,0.0,0.0,0.0,0.0,0.0,0.0,0.0,0.0,0.0,-3.8194,-3.9002,-3.9727,-4.025,-4.1674,-4.2951,-4.3778,-4.4347,-4.5125,-4.6172,-4.5903,0.0,0.0,0.0,0.0,0.0,-4.7189,-4.7878,0.0,0.0,0.0,0.0,0.0,0.0,-4.5256,-4.482,-4.4737,-4.4728,-4.3645,-4.3039,-4.2629,-4.1746,-4.1085,-4.0965,-4.2641,-4.262,-4.2021,-4.295,0.0,0.0,0.0,0.0,0.0,0.0,0.0,0.0,0.0,0.0,0.0,0.0,0.0,0.0,0.0,0.0,0.0,0.0,0.0,0.0,0.0,0.0,0.0,0.0,0.0,0.0,0.0,0.0,0.0,0.0,0.0,0.0,0.0,0.0,-4.3589,-4.3319,-4.2731,-4.2231,-4.1871,-4.1175,-4.03,-3.9182,-3.9182,-3.8782,-3.802,-3.802,-3.8228,-3.8549,-3.8692,-3.8943,-3.9373,-3.9373,-3.9589,-3.9888,-4.0247,-4.0576,-4.0876,-4.1235,-4.1602,-4.1901,-4.2261,-4.259,-4.2851,0.0,0.0,0.0,0.0,0.0,0.0,0.0,0.0,0.0,0.0,0.0,0.0,0.0,0.0,0.0,0.0,-3.9165,-3.9732,-4.0144,-4.092,-4.1893,-4.309,-4.3269,-4.3958,-4.5274,0.0,0.0,0.0,0.0,0.0,-4.7788,-4.713,-4.8566,0.0,-5.0361,0.0,0.0,0.0,0.0,0.0,0.0,-4.309,-4.3688,-4.2372,-4.1654,-4.1422,-4.1422,-4.0636,-3.9948,-4.1782,-4.1961,-4.1534,-4.2381,-4.2043,0.0,0.0,0.0,0.0,0.0,0.0,0.0,0.0,0.0,0.0,0.0,0.0,0.0,0.0,0.0,0.0,0.0,0.0,0.0,0.0,0.0,0.0,0.0,0.0,0.0,0.0,0.0,0.0,0.0,0.0,0.0,0.0,0.0,-4.2851,-4.2851,-4.2222,-4.1624,-4.1107,-4.03,-3.9265,-3.8103,-3.7925,-3.7529,-3.6886,-3.6886,-3.7151,-3.7653,-3.7831,-3.8293,-3.9026,-3.9277,-3.9373,-3.9469,-3.9948,-4.0157,-4.0217,-4.0696,-4.0995,-4.1205,-4.1722,-4.2021,-4.2192,0.0,0.0,0.0,0.0,0.0,0.0,0.0,0.0,0.0,0.0,0.0,0.0,-3.8529,-3.8989,-3.9266,-3.9437,-3.9656,-3.995,-4.036,-4.1025,-4.1722,-4.241,-4.3,0.0,-4.5274,0.0,0.0,0.0,0.0,0.0,-4.9209,-4.8506,-4.9942,-5.3025,-5.1708,-5.0062,-4.8237,0.0,0.0,0.0,0.0,0.0,0.0,0.0,0.0,0.0,-4.1422,-4.0935,-4.0546,-4.1961,-4.1961,-4.1594,-4.288,-4.2402,-4.1542,0.0,0.0,0.0,0.0,0.0,0.0,0.0,0.0,0.0,0.0,0.0,0.0,0.0,0.0,0.0,0.0,0.0,0.0,0.0,0.0,0.0,0.0,0.0,0.0,0.0,0.0,0.0,0.0,0.0,0.0,0.0,0.0,-4.1474,-4.1474,-4.0876,-4.0412,-4.0167,-3.8984,-3.8192,-3.7919,-3.727,-3.6915,-3.6886,-3.6886,-3.6915,-3.6945,-3.6945,-3.7364,-3.8043,-3.8996,-3.9373,-3.9373,-3.9469,-3.9433,-3.9469,-3.9499,-3.9888,-4.0457,-4.0487,-4.0905,-4.1534,0.0,0.0,0.0,0.0,0.0,0.0,0.0,0.0,0.0,0.0,0.0,0.0,0.0,-3.9029,-3.9266,-3.9466,-3.9386,-3.9476,-3.9732,-3.9978,-4.0606,-4.1722,-4.1953,-4.2701,-4.4018,0.0,0.0,0.0,0.0,-4.4077,-4.6711,-4.6471,-4.7219,-4.8835,-4.9986,-5.0136,-4.9359,-4.7489,0.0,0.0,0.0,0.0,0.0,0.0,0.0,0.0,0.0,0.0,0.0,0.0,-4.2231,-4.2201,-4.3021,-4.2432,-4.1265,-4.0666,-4.0606,0.0,0.0,0.0,0.0,0.0,0.0,0.0,0.0,0.0,0.0,0.0,0.0,0.0,0.0,0.0,0.0,0.0,0.0,0.0,0.0,0.0,0.0,0.0,0.0,0.0,0.0,0.0,0.0,0.0,0.0,0.0,-4.1384,-4.0531,-4.0062,-4.0107,-3.875,-3.7506,-3.6505,-3.5692,-3.5302,-3.5302,-3.5302,-3.5507,-3.595,-3.6054,-3.6476,-3.7116,-3.8049,-3.8733,-3.9228,-3.9337,-3.9373,-3.9373,-3.9373,-3.9559,-3.9828,-4.0247,-4.0546,-4.0808,0.0,0.0,0.0,0.0,0.0,0.0,0.0,0.0,0.0,0.0,0.0,0.0,0.0,0.0,-3.977,-3.9601,-3.9498,-3.943,-3.9403,-3.9619,-4.0247,-4.1324,-4.1632,-4.2222,-4.326,0.0,0.0,0.0,0.0,0.0,0.0,0.0,-4.5903,-4.704,-4.8312,-4.9119,0.0,0.0,0.0,-4.6352,0.0,0.0,-4.4107,0.0,0.0,0.0,0.0,0.0,0.0,0.0,0.0,0.0,-4.2611,-4.1923,-4.0876,-4.0008,-4.0068,0.0,0.0,0.0,0.0,0.0,0.0,0.0,0.0,0.0,0.0,0.0,0.0,0.0,0.0,0.0,0.0,0.0,0.0,0.0,0.0,0.0,0.0,0.0,0.0,0.0,0.0,0.0,0.0,0.0,0.0,0.0,-4.0509,-3.9831,-3.9306,-3.8936,-3.7899,-3.6699,-3.5273,-3.47,-3.4399,-3.4399,-3.4399,-3.4632,-3.5072,-3.5175,-3.5623,-3.6237,-3.7086,-3.7948,-3.872,-3.9066,-3.9228,-3.9301,-3.9228,-3.9265,-3.9433,-3.9742,-3.9921,-4.001,0.0,0.0,0.0,0.0,0.0,0.0,0.0,0.0,0.0,-3.4644,0.0,0.0,0.0,0.0,0.0,-3.9938,-4.0076,-3.9966,-3.9493,-4.0068,-4.0726,-4.1422,-4.2051,-4.2671,-4.329,0.0,0.0,0.0,0.0,0.0,0.0,0.0,-4.6292,0.0,-4.686,-4.701,-4.8147,0.0,-4.7279,-4.689,0.0,-4.2073,-4.4466,0.0,0.0,0.0,-4.5214,-4.4825,0.0,-4.2132,0.0,0.0,0.0,0.0,-4.0397,-4.0367,0.0,0.0,0.0,0.0,0.0,0.0,0.0,0.0,0.0,0.0,0.0,0.0,0.0,0.0,0.0,0.0,0.0,0.0,0.0,0.0,0.0,0.0,0.0,0.0,0.0,0.0,0.0,0.0,0.0,0.0,0.0,-3.898,-3.8833,-3.8797,-3.8135,-3.6658,-3.6387,-3.5706,-3.4428,-3.4399,-3.4399,-3.4399,-3.4399,-3.4399,-3.4399,-3.4399,-3.4748,-3.5421,-3.6237,-3.7057,-3.7883,-3.8531,-3.8907,-3.9053,-3.887,-3.9017,-3.9337,-3.8943,-3.8907,-3.9135,0.0,0.0,0.0,0.0,0.0,0.0,0.0,0.0,0.0,0.0,0.0,0.0,-3.7918,-3.9689,-4.095,-4.1146,-4.1564,-4.1496,-4.0876,-4.0995,-4.1414,-4.2111,-4.2291,-4.2671,-4.329,0.0,0.0,0.0,0.0,0.0,0.0,0.0,0.0,0.0,-4.6052,-4.6262,-4.6112,-4.5933,0.0,0.0,-4.3768,-4.4107,0.0,0.0,0.0,0.0,0.0,-4.3658,-4.4317,0.0,-4.4347,-4.4197,0.0,0.0,0.0,0.0,0.0,0.0,-3.9679,0.0,0.0,0.0,0.0,0.0,0.0,0.0,0.0,0.0,0.0,0.0,0.0,0.0,0.0,0.0,0.0,0.0,0.0,0.0,0.0,0.0,0.0,0.0,0.0,0.0,0.0,0.0,-3.8878,-3.8686,-3.8797,-3.8649,-3.7916,-3.6416,-3.6351,-3.5706,-3.4428,-3.4399,-3.4399,-3.4399,-3.4399,-3.4399,-3.4399,-3.4399,-3.4516,-3.4719,-3.5427,-3.5875,-3.6237,-3.8039,-3.8833,-3.887,-3.8833,-3.887,-3.8943,-3.8833,-3.8833,-3.8863,0.0,0.0,0.0,0.0,0.0,0.0,0.0,0.0,0.0,0.0,0.0,0.0,-3.9902,-4.1116,-4.2048,-4.2471,-4.2595,-4.2414,-4.1833,-4.1841,-4.1991,-4.2381,-4.2611,-4.294,0.0,0.0,0.0,0.0,0.0,0.0,0.0,0.0,0.0,0.0,0.0,0.0,0.0,0.0,0.0,0.0,-4.3898,0.0,0.0,-4.4436,-4.4676,0.0,0.0,0.0,-4.6172,-4.4915,-4.4466,0.0,0.0,0.0,0.0,0.0,0.0,0.0,0.0,0.0,0.0,0.0,0.0,0.0,0.0,-4.1512,0.0,0.0,0.0,0.0,0.0,0.0,0.0,0.0,0.0,0.0,0.0,0.0,0.0,0.0,0.0,0.0,0.0,0.0,0.0,-3.8716,-3.8575,-3.8501,-3.8538,-3.8427,-3.7732,-3.6344,-3.6315,-3.5706,-3.4428,-3.4399,-3.4399,-3.4399,-3.4399,-3.4399,-3.4399,-3.4399,-3.4399,-3.4457,-3.5131,-3.5392,-3.5537,-3.7382,-3.8231,-3.8304,-3.8458,-3.8649,-3.8797,-3.8612,-3.8612,-3.8649,0.0,0.0,0.0,0.0,0.0,0.0,0.0,0.0,0.0,0.0,-3.7719,-3.9837,-4.2753,-4.3306,-4.3671,-4.3885,-4.3523,-4.3071,-4.2611,-4.247,-4.244,-4.25,-4.294,-4.323,0.0,0.0,0.0,0.0,0.0,0.0,0.0,0.0,0.0,0.0,0.0,0.0,0.0,0.0,0.0,-4.4665,-4.3069,-4.4287,0.0,0.0,-4.716,-4.873,-4.7489,-4.7878,-4.8416,-4.4945,-4.3648,0.0,0.0,0.0,0.0,0.0,-4.0008,0.0,0.0,0.0,0.0,0.0,0.0,0.0,-4.0427,-4.0846,-4.1115,0.0,0.0,0.0,0.0,0.0,0.0,0.0,0.0,0.0,0.0,0.0,0.0,0.0,0.0,0.0,0.0,-3.9143,-3.8649,-3.8493,-3.8493,-3.8389,-3.8202,-3.8202,-3.7622,-3.6344,-3.6315,-3.5706,-3.4428,-3.4399,-3.4399,-3.4399,-3.4399,-3.4399,-3.4399,-3.4399,-3.4399,-3.4457,-3.5043,-3.5305,-3.5392,-3.6577,-3.7266,-3.7587,-3.8044,-3.8427,-3.8686,-3.8315,-3.8315,-3.8427,-3.3075,0.0,0.0,0.0,0.0,0.0,0.0,0.0,0.0,0.0,0.0,0.0,-4.3133,-4.3979,-4.465,-4.5151,-4.5013,-4.4605,-4.3988,-4.298,-4.265,-4.312,-4.2761,-4.2791,-4.329,0.0,0.0,0.0,0.0,0.0,0.0,0.0,0.0,0.0,0.0,0.0,0.0,0.0,0.0,-4.193,-4.2273,0.0,-4.6279,-4.4545,-4.4825,-4.6052,-4.5783,-4.6202,-4.686,-4.6621,-4.5813,-4.4766,0.0,0.0,0.0,-4.1265,0.0,0.0,0.0,0.0,0.0,0.0,0.0,0.0,-4.0636,-4.0375,-4.0323,0.0,0.0,0.0,0.0,0.0,0.0,0.0,0.0,0.0,0.0,0.0,0.0,0.0,0.0,0.0,0.0,-3.8806,-3.8315,-3.824,-3.824,-3.824,-3.8202,-3.8202,-3.7622,-3.6344,-3.6315,-3.5706,-3.4428,-3.4399,-3.4399,-3.4399,-3.4399,-3.4399,-3.4399,-3.4399,-3.4399,-3.4428,-3.4545,-3.4603,-3.4661,-3.5479,-3.638,-3.7397,-3.797,-3.824,-3.8315,-3.824,-3.8202,-3.824,-3.3326,0.0,0.0,0.0,0.0,0.0,0.0,0.0,0.0,0.0,0.0,0.0,0.0,0.0,-4.4879,-4.539,-4.5272,-4.487,-4.4214,-4.331,-4.2851,-4.2851,-4.2851,-4.2851,-4.2851,-4.314,0.0,0.0,0.0,0.0,0.0,0.0,0.0,0.0,0.0,0.0,0.0,0.0,-4.159,-4.2246,-4.2662,0.0,-4.4642,-4.4037,-4.4436,-4.5334,-4.5693,-4.5813,-4.5813,-4.5813,-4.5574,0.0,0.0,-4.306,-4.303,0.0,-4.0666,-4.0397,0.0,0.0,0.0,-4.0449,0.0,0.0,0.0,-3.9594,-3.9447,0.0,0.0,0.0,0.0,0.0,0.0,0.0,0.0,0.0,0.0,0.0,0.0,0.0,0.0,0.0,0.0,-3.8481,-3.8202,-3.8202,-3.7912,-3.7767,-3.7767,-3.7447,-3.6809,-3.588,-3.5822,-3.5386,-3.4428,-3.4399,-3.4399,-3.4399,-3.4399,-3.4399,-3.4399,-3.4399,-3.4399,-3.4399,-3.4399,-3.4399,-3.4457,-3.5131,-3.5799,-3.6431,-3.7389,-3.7767,-3.7796,-3.8086,-3.8202,-3.8202,-3.3427,0.0,0.0,0.0,0.0,0.0,0.0,0.0,0.0,0.0,0.0,0.0,0.0,0.0,0.0,0.0,-4.4732,-4.4369,-4.4137,-4.3135,-4.2387,-4.2115,-4.2515,-4.2446,-4.1906,-4.2613,-4.2932,0.0,0.0,0.0,0.0,0.0,0.0,0.0,0.0,0.0,0.0,0.0,0.0,-4.2743,0.0,-4.2962,-4.319,-4.3738,-4.4436,-4.5185,-4.5873,-4.5693,-4.5035,-4.4646,-4.4766,-4.4736,-4.2611,-4.2851,0.0,0.0,0.0,0.0,0.0,0.0,0.0,0.0,0.0,-3.9306,0.0,0.0,0.0,0.0,0.0,0.0,0.0,0.0,0.0,0.0,0.0,0.0,0.0,0.0,0.0,0.0,0.0,0.0,0.0,-3.8173,-3.797,-3.7854,-3.7506,-3.7244,-3.7128,-3.6606,-3.6025,-3.5421,-3.5392,-3.5101,-3.4428,-3.4399,-3.4399,-3.4399,-3.4399,-3.4399,-3.4399,-3.4399,-3.4399,-3.4399,-3.4399,-3.4399,-3.4457,-3.498,-3.5218,-3.5363,-3.6751,-3.7302,-3.7389,-3.797,-3.8202,-3.8202,-3.2248,-3.2918,0.0,0.0,0.0,0.0,0.0,0.0,0.0,0.0,0.0,0.0,0.0,0.0,0.0,0.0,0.0,0.0,-4.4505,0.0,0.0,0.0,0.0,-4.0474,-4.0119,-4.1263,-4.1647,0.0,0.0,0.0,0.0,0.0,0.0,0.0,-3.9829,0.0,0.0,0.0,-4.0165,0.0,-4.0978,-4.1932,0.0,-4.2761,-4.3359,-4.4496,-4.5185,-4.4975,-4.4496,0.0,-4.4855,-4.4377,0.0,-4.3329,-4.268,0.0,0.0,0.0,0.0,0.0,0.0,0.0,-4.0633,0.0,0.0,0.0,0.0,0.0,0.0,0.0,0.0,0.0,0.0,0.0,0.0,0.0,0.0,0.0,0.0,0.0,0.0,0.0,0.0,0.0,-3.7157,-3.6577,-3.7012,-3.7041,-3.646,-3.6344,-3.6025,-3.5421,-3.5392,-3.5101,-3.4428,-3.4399,-3.4399,-3.4399,-3.4399,-3.4399,-3.4399,-3.4399,-3.4399,-3.4399,-3.4399,-3.4399,-3.4428,-3.4486,-3.4516,-3.4719,-3.6577,-3.7302,-3.7389,-3.797,-3.8202,-3.8202,-3.1596,-3.2466,0.0,0.0,0.0,0.0,0.0,0.0,0.0,0.0,0.0,0.0,0.0,0.0,0.0,0.0,0.0,-4.2629,0.0,0.0,0.0,0.0,0.0,0.0,-3.9297,-4.0406,-4.0418,0.0,-3.849,0.0,0.0,0.0,0.0,0.0,-3.8698,0.0,-3.9648,0.0,0.0,0.0,0.0,0.0,0.0,-4.1701,-4.2294,-4.315,-4.306,-4.309,-4.309,0.0,-4.2791,0.0,0.0,0.0,0.0,0.0,0.0,0.0,0.0,0.0,0.0,0.0,0.0,0.0,-3.9786,0.0,-3.8906,0.0,0.0,0.0,0.0,0.0,0.0,0.0,0.0,0.0,0.0,0.0,0.0,0.0,0.0,0.0,0.0,0.0,0.0,0.0,0.0,-3.6431,-3.5793,-3.5415,-3.5096,-3.4806,-3.4806,-3.469,-3.4399,-3.4399,-3.4399,-3.4399,-3.4399,-3.4399,-3.4399,-3.4399,-3.4399,-3.4399,-3.4399,-3.4399,-3.4399,-3.4399,-3.4399,-3.4516,-3.5706,-3.6402,-3.6809,-3.7447,-3.7912,-3.8202,-3.0844,0.0,0.0,0.0,0.0,0.0,0.0,0.0,0.0,0.0,0.0,0.0,-4.0795,-4.1001,0.0,0.0,-4.2717,-4.2372,0.0,0.0,-4.0006,0.0,0.0,0.0,0.0,0.0,-3.92,0.0,0.0,0.0,0.0,0.0,0.0,0.0,0.0,-3.8281,-3.9122,0.0,0.0,-3.9381,-4.0363,-4.0538,-4.0233,-4.0884,-4.1373,-4.1735,-4.1474,-4.1722,-4.1991,-4.092,-4.1249,0.0,-4.0664,0.0,0.0,0.0,0.0,0.0,-3.8988,0.0,0.0,0.0,0.0,0.0,0.0,0.0,0.0,0.0,0.0,0.0,0.0,0.0,0.0,0.0,0.0,0.0,0.0,0.0,0.0,0.0,0.0,0.0,0.0,0.0,0.0,-3.6373,-3.6315,-3.5967,-3.5189,-3.4661,-3.4399,-3.4399,-3.4399,-3.4399,-3.4399,-3.4399,-3.4399,-3.4399,-3.4399,-3.4399,-3.4399,-3.4399,-3.4399,-3.4399,-3.4399,-3.4399,-3.4399,-3.4399,-3.4399,-3.4457,-3.4922,-3.559,-3.6373,-3.707,-3.768,-3.8202,-2.9752,-3.0708,0.0,0.0,0.0,0.0,0.0,0.0,0.0,0.0,0.0,0.0,0.0,0.0,0.0,0.0,0.0,-4.2086,-4.2736,0.0,-3.8517,0.0,0.0,-3.8232,0.0,0.0,0.0,0.0,0.0,0.0,0.0,0.0,0.0,0.0,0.0,-3.8744,-3.8088,-3.8851,-3.8773,-3.8071,-3.8256,-3.8402,-3.8743,0.0,-4.0694,-4.0293,-4.1107,0.0,0.0,-4.1156,-4.108,0.0,0.0,0.0,0.0,0.0,0.0,0.0,0.0,0.0,0.0,-3.8522,0.0,0.0,0.0,0.0,-3.8202,0.0,0.0,0.0,0.0,0.0,0.0,-3.7331,0.0,0.0,0.0,0.0,0.0,0.0,0.0,0.0,0.0,0.0,0.0,-3.6402,-3.6315,-3.5764,-3.4516,-3.4428,-3.4399,-3.4399,-3.4399,-3.4399,-3.4399,-3.4399,-3.4399,-3.4399,-3.4399,-3.4399,-3.4399,-3.4399,-3.4399,-3.4399,-3.4399,-3.4399,-3.4399,-3.4399,-3.4399,-3.4399,-3.4428,-3.5212,-3.6373,-3.707,-3.768,-3.8202,0.0,0.0,0.0,0.0,0.0,0.0,0.0,-3.5152,0.0,0.0,0.0,0.0,0.0,0.0,-4.3062,0.0,0.0,-4.2928,-4.2423,-4.0947,0.0,0.0,0.0,-3.8709,0.0,0.0,0.0,0.0,0.0,0.0,0.0,0.0,0.0,0.0,0.0,-3.6429,0.0,0.0,0.0,0.0,0.0,-3.7891,-3.8315,0.0,0.0,-3.9239,-3.9099,-3.9343,0.0,-3.9595,-3.9587,-3.955,-3.9362,-3.914,-3.8956,-3.9048,-3.8847,0.0,0.0,0.0,-3.8725,-3.8318,0.0,0.0,0.0,0.0,0.0,0.0,0.0,0.0,0.0,0.0,0.0,-3.8492,0.0,0.0,0.0,0.0,0.0,0.0,0.0,0.0,0.0,0.0,0.0,-3.577,-3.5712,-3.5299,-3.4457,-3.4399,-3.4399,-3.4399,-3.4399,-3.4399,-3.4399,-3.4399,-3.4399,-3.4399,-3.4399,-3.4399,-3.4399,-3.4399,-3.4399,-3.4399,-3.4399,-3.4399,-3.4399,-3.4399,-3.4399,-3.4399,-3.4399,-3.4922,-3.5741,-3.5973,-3.6693,-3.7622,-3.0598,0.0,0.0,0.0,0.0,0.0,0.0,0.0,0.0,0.0,-3.9823,0.0,-4.3514,0.0,-4.4016,0.0,-4.4493,-4.3765,-4.2313,-4.1681,0.0,-3.9396,-3.942,0.0,0.0,0.0,0.0,0.0,0.0,-3.492,0.0,0.0,0.0,0.0,0.0,0.0,0.0,0.0,-3.5194,0.0,0.0,-3.7186,0.0,0.0,-3.7601,-3.8605,0.0,-3.7801,-3.8148,-3.8311,-3.837,-3.8392,-3.8405,-3.8389,-3.8352,-3.824,-3.8202,-3.8202,-3.8202,-3.8202,0.0,-3.8202,-3.8202,0.0,-3.8754,0.0,0.0,0.0,0.0,0.0,0.0,0.0,0.0,0.0,0.0,0.0,0.0,-3.6228,0.0,0.0,0.0,0.0,0.0,0.0,-3.6635,-3.5799,-3.5537,-3.5131,0.0,0.0,-3.4399,-3.4399,-3.4399,-3.4399,-3.4399,-3.4399,-3.4399,-3.4399,-3.4399,-3.4399,-3.4399,-3.4399,-3.4399,-3.4399,-3.4399,-3.4399,-3.4399,-3.4399,-3.4399,-3.4399,-3.4399,-3.4806,-3.5421,-3.5654,-3.6519,-3.7593,0.0,0.0,0.0,0.0,-3.3495,0.0,0.0,0.0,-3.7588,0.0,-3.9948,-4.1103,-4.2263,-4.3288,-4.4116,-4.4618,-4.5146,0.0,-4.2389,-4.266,0.0,0.0,-3.8843,-3.8442,-3.5734,0.0,0.0,0.0,0.0,0.0,0.0,0.0,0.0,0.0,-3.663,0.0,-3.3645,-3.5063,-3.4597,-3.3081,-3.5324,-3.6215,-3.6193,-3.5561,-3.6633,-3.8267,-3.7193,-3.6821,-3.6934,-3.7373,-3.7535,-3.7587,-3.7986,-3.8115,-3.8115,-3.8144,-3.8173,-3.8173,-3.8202,-3.8202,-3.8202,-3.8202,0.0,0.0,0.0,0.0,-3.8202,0.0,0.0,0.0,0.0,0.0,0.0,0.0,0.0,0.0,0.0,0.0,0.0,0.0,0.0,0.0,0.0,-3.8492,-3.7564,-3.6344,-3.5712,-3.5072,0.0,0.0,-3.4399,-3.4399,-3.4399,-3.4399,-3.4399,-3.4399,-3.4399,-3.4399,-3.4399,-3.4399,-3.4399,-3.4399,-3.4399,-3.4399,-3.4399,-3.4399,-3.4399,-3.4399,-3.4399,-3.4399,-3.4399,-3.4806,-3.5479,-3.6025,-3.7041,-3.8028,-3.0645,-3.1539,-3.2416,0.0,-3.2842,-3.2968,0.0,0.0,0.0,0.0,-4.1756,-4.3388,-4.4518,-4.5246,-4.5547,-4.5296,-4.502,0.0,0.0,0.0,0.0,-3.9747,-3.9672,-3.917,-3.804,-3.7864,0.0,-3.6558,0.0,0.0,-3.5483,0.0,0.0,0.0,0.0,0.0,-3.1512,-3.3094,-3.2875,-3.1644,-3.3851,-3.503,0.0,0.0,-3.5595,-3.6765,-3.602,-3.6085,-3.6458,-3.6597,-3.6619,-3.6648,-3.6751,-3.6809,-3.6896,-3.7389,-3.7535,-3.7622,-3.8086,-3.8202,-3.8202,-3.8202,-3.8202,-3.8202,0.0,0.0,0.0,0.0,0.0,0.0,0.0,0.0,0.0,0.0,0.0,0.0,0.0,0.0,0.0,-3.7142,0.0,0.0,-3.831,-3.7012,-3.6002,-3.5654,-3.5009,-3.4574,0.0,0.0,0.0,-3.4399,-3.4399,-3.4399,-3.4399,-3.4399,-3.4399,-3.4399,-3.4399,-3.4399,-3.4399,-3.4399,-3.4399,-3.4399,-3.4399,-3.4399,-3.4399,-3.4399,-3.4399,-3.4399,-3.4399,-3.4806,-3.5421,-3.5566,-3.6112,-3.678,-3.0572,0.0,0.0,-3.2692,0.0,0.0,-3.4449,0.0,0.0,-3.9496,-4.1505,0.0,-4.3614,-4.4593,-4.4995,-4.4443,-4.4091,0.0,-4.2333,0.0,0.0,-4.0224,-3.9848,-3.9195,-3.8215,-3.7588,0.0,-3.6458,0.0,0.0,-3.5458,0.0,0.0,0.0,0.0,-3.2641,0.0,-3.2072,-3.2014,-3.1374,-3.2745,0.0,0.0,-3.3978,-3.456,-3.5415,-3.5067,-3.5183,-3.5532,-3.5793,-3.5909,-3.5938,-3.6228,-3.6315,-3.6373,-3.6751,-3.6867,-3.6954,-3.7273,-3.7593,-3.7825,-3.7825,-3.7999,-3.8144,-3.7883,-3.7825,-3.7825,0.0,0.0,0.0,0.0,0.0,0.0,0.0,0.0,0.0,0.0,0.0,0.0,0.0,-3.5404,0.0,-3.6653,-3.5963,-3.5276,-3.498,-3.4864,0.0,0.0,0.0,0.0,-3.4428,-3.469,-3.469,-3.4399,-3.469,-3.469,-3.4399,-3.4399,-3.4399,-3.4399,-3.4399,-3.4399,-3.4399,-3.4399,-3.4399,-3.4399,-3.4399,-3.4399,-3.4399,-3.4399,-3.4632,-3.4951,-3.4951,-3.5706,-3.6722,0.0,0.0,0.0,0.0,0.0,0.0,0.0,-3.6182,0.0,-3.8768,0.0,-4.1376,-4.13,-4.2685,-4.3363,-4.2811,0.0,-4.2333,-4.125,-4.1605,-4.1207,-3.9647,-3.9521,-3.8718,-3.7111,-3.6581,-3.5981,0.0,0.0,0.0,0.0,0.0,0.0,0.0,0.0,0.0,0.0,-3.1434,-3.1461,0.0,-3.1813,-3.2398,-3.3073,-3.3143,-3.3693,-3.4399,-3.4399,-3.4399,-3.4486,-3.5072,-3.5276,-3.5363,-3.588,-3.6054,-3.6083,-3.617,-3.617,-3.6199,-3.6286,-3.6722,-3.7186,-3.7186,-3.7564,-3.7825,-3.7302,-3.7186,-3.7186,-3.7186,-3.6635,-3.6373,0.0,0.0,0.0,0.0,0.0,0.0,0.0,0.0,0.0,0.0,0.0,0.0,0.0,-3.5053,-3.4992,0.0,0.0,0.0,0.0,0.0,0.0,-3.4428,-3.4985,0.0,-3.4545,0.0,-3.5009,-3.4545,-3.4457,-3.4399,-3.4399,-3.4399,-3.4399,-3.4399,-3.4399,-3.4399,-3.4399,-3.4399,-3.4399,-3.4399,-3.4399,-3.4399,-3.4399,-3.4399,-3.5497,-3.691,0.0,0.0,0.0,0.0,0.0,-3.4632,-3.5752,-3.6941,-3.8165,-3.9396,-4.0978,-4.1831,-4.1326,-4.2007,-4.2208,-4.1681,-4.163,0.0,0.0,0.0,0.0,-3.9095,-3.8567,-3.7739,-3.6581,-3.5956,-3.5382,0.0,0.0,0.0,0.0,0.0,0.0,0.0,0.0,0.0,-3.1336,-3.0489,0.0,-3.0176,-3.0835,-3.1599,-3.2362,-3.2967,-3.3693,-3.4399,-3.4399,-3.4399,-3.4428,-3.4545,-3.4574,-3.4603,-3.4719,-3.4748,-3.4835,-3.5421,-3.5566,-3.5683,-3.617,-3.6402,-3.6489,-3.6489,-3.6548,-3.6606,-3.6519,-3.6489,-3.6489,-3.6489,-3.5967,-3.577,-3.6373,0.0,0.0,0.0,0.0,0.0,0.0,0.0,0.0,0.0,0.0,0.0,0.0,0.0,0.0,0.0,0.0,0.0,0.0,0.0,0.0,0.0,-3.4516,0.0,0.0,0.0,-3.4777,-3.5218,-3.4661,-3.4399,-3.4399,-3.4399,-3.4399,-3.4399,-3.4399,-3.4399,-3.4399,-3.4399,-3.4399,-3.4399,-3.4399,-3.4399,-3.4399,-3.4399,-3.4744,-3.5346,0.0,0.0,0.0,0.0,0.0,0.0,0.0,-3.7617,0.0,-3.859,-3.9721,-4.0224,-3.9672,-4.0375,-4.0651,-4.0099,-3.9798,-3.9496,-3.9245,-3.8969,-3.8693,-3.8442,-3.814,0.0,-3.643,-3.5253,-3.47,-3.468,0.0,0.0,0.0,0.0,0.0,0.0,0.0,-3.1386,0.0,0.0,0.0,-3.022,-3.0279,-3.0771,-3.1526,-3.1865,-3.2506,-3.3206,-3.3206,-3.3451,-3.3859,-3.4264,-3.4399,-3.4399,-3.4399,-3.4399,-3.4457,-3.4777,-3.4594,-3.4409,-3.5137,-3.528,-3.5296,-3.5751,-3.6054,-3.6121,-3.5382,-3.5225,-3.5225,-3.5225,-3.4711,-3.4558,-3.5635,-3.541,0.0,0.0,0.0,0.0,0.0,0.0,0.0,0.0,0.0,0.0,0.0,0.0,0.0,0.0,0.0,0.0,0.0,0.0,0.0,0.0,0.0,0.0,0.0,0.0,0.0,-3.4864,-3.4545,-3.4399,-3.4399,-3.4399,-3.4399,-3.4399,-3.4399,-3.4399,-3.4399,-3.4399,-3.4399,-3.4399,-3.4399,-3.4399,-3.4366,-3.4162,-3.4163,-3.446,0.0,-3.2035,0.0,0.0,-3.4813,0.0,-3.6652,-3.7706,-3.8275,-3.8015,-3.8466,-3.8642,-3.8241,-3.8868,-3.917,-3.8718,-3.8266,-3.8015,-3.8015,-3.7889,-3.7789,-3.7663,-3.7538,-3.691,-3.5726,-3.4274,-3.3696,0.0,0.0,0.0,0.0,0.0,0.0,0.0,0.0,0.0,0.0,0.0,-3.0432,-3.0407,-2.9955,-3.0228,-3.0932,-3.1082,-3.1563,-3.211,-3.229,-3.2613,-3.3038,-3.3722,-3.4128,-3.4399,-3.4399,-3.4399,-3.4399,-3.4399,-3.3962,-3.3589,-3.423,-3.4196,-3.4143,-3.4778,-3.5152,-3.5168,-3.4192,-3.3972,-3.3972,-3.3972,-3.3508,-3.3508,-3.4794,-3.4231,0.0,0.0,0.0,0.0,0.0,0.0,0.0,0.0,0.0,0.0,0.0,0.0,0.0,0.0,0.0,0.0,0.0,0.0,0.0,0.0,0.0,-3.498,-3.4632,0.0,-3.498,0.0,-3.4486,-3.4399,-3.4399,-3.4399,-3.4399,-3.4399,-3.4399,-3.4399,-3.4399,-3.4399,-3.4399,-3.4366,-3.4298,-3.4264,-3.423,-3.3854,-3.3548,-3.3515,0.0,0.0,0.0,0.0,0.0,0.0,0.0,-3.6281,-3.7482,-3.8933,-3.8762,-3.8565,-3.8793,-3.8417,-3.814,-3.809,-3.804,-3.8015,-3.8015,-3.7538,-3.7036,-3.6581,-3.6031,-3.4981,-3.342,-3.2717,-3.2164,0.0,0.0,0.0,0.0,0.0,0.0,0.0,0.0,0.0,0.0,-2.9905,-2.9854,-2.9854,-2.9804,-3.0228,-3.097,-3.1709,-3.2037,-3.2182,-3.2861,-3.272,-3.2218,-3.229,-3.3241,-3.4399,-3.4399,-3.4399,-3.4399,-3.4399,-3.4332,-3.4298,-3.4366,-3.3854,-3.3297,-3.3396,-3.2965,-3.2635,-3.3185,-3.3297,-3.3297,-3.3297,-3.2988,-3.2941,-3.3631,-3.3073,-3.2754,0.0,0.0,0.0,0.0,0.0,0.0,0.0,0.0,0.0,0.0,0.0,0.0,0.0,0.0,0.0,0.0,0.0,0.0,-3.4399,0.0,-3.4748,-3.5305,-3.4748,-3.4748,-3.5305,-3.469,-3.4399,-3.4399,-3.4399,-3.4399,-3.4399,-3.4399,-3.4399,-3.4399,-3.4399,-3.4399,-3.4332,-3.3991,-3.3888,-3.3819,-3.3479,-3.2783,-3.2073,0.0,0.0,0.0,0.0,0.0,0.0,0.0,-3.6297,-3.686,-3.7706,-3.7762,-3.779,-3.7916,-3.7419,-3.7072,-3.7268,-3.667,-3.6343,-3.6486,-3.6006,-3.5604,-3.5378,-3.5177,-3.46,-3.3596,-3.2667,-3.2114,0.0,0.0,0.0,0.0,0.0,0.0,0.0,0.0,-2.9804,-2.9804,-2.9804,-2.9804,-2.9804,-2.9804,-2.9972,-3.0266,-3.0608,-3.0722,-3.0759,-3.1033,-3.1257,-3.1378,-3.1378,-3.211,-3.303,-3.303,-3.3311,-3.3589,-3.3136,-3.3346,-3.3589,-3.3136,-3.3136,-3.3178,-3.3178,-3.2967,-3.272,-3.2577,-3.2182,-3.1792,-3.1646,-3.1452,-3.1495,-3.2226,-3.1604,-3.1048,0.0,0.0,0.0,0.0,0.0,0.0,0.0,0.0,0.0,0.0,0.0,0.0,0.0,0.0,0.0,0.0,0.0,0.0,-3.4366,0.0,-3.4545,-3.4806,-3.4545,-3.4545,-3.4806,-3.4545,-3.4399,-3.4399,-3.4399,-3.4399,-3.4399,-3.4399,-3.4399,-3.4366,-3.4128,-3.4059,-3.3991,-3.3241,-3.296,-3.2889,-3.2146,-3.1599,-3.1182,-3.2394,0.0,-3.2899,0.0,-3.4438,-3.4799,-3.5593,-3.5833,-3.5932,-3.5986,-3.616,-3.6456,-3.6776,-3.626,-3.5963,-3.6102,-3.5335,-3.4935,-3.5165,-3.4744,-3.447,-3.434,-3.419,0.0,-3.3169,-3.224,-3.1662,-3.1512,-3.0909,0.0,0.0,0.0,0.0,0.0,-2.9804,-2.9804,-2.9804,-2.9804,-2.9804,-2.9804,-2.9804,-2.9804,-2.9818,-3.0024,-3.0011,-2.9818,-3.0024,-3.0305,-3.0582,-3.0582,-3.0959,-3.1553,-3.2218,-3.2791,-3.3108,-3.2577,-3.2648,-3.2755,-3.2218,-3.2326,-3.2541,-3.2541,-3.2362,-3.2146,-3.1965,-3.1489,-3.1007,-3.0846,-3.0431,-3.0317,-3.0869,-3.0341,-2.9811,-2.9831,0.0,0.0,0.0,0.0,0.0,0.0,-2.9372,-2.9278,-2.9013,0.0,0.0,0.0,0.0,0.0,0.0,0.0,0.0,0.0,0.0,0.0,0.0,-3.4399,-3.4399,-3.4399,-3.4399,-3.4399,-3.4399,-3.4399,-3.4399,-3.4399,-3.4399,-3.4332,-3.4196,-3.3922,-3.3618,-3.3339,-3.2506,-3.211,-3.1856,-3.1044,-3.0594,-3.0329,-3.2394,-3.2491,-3.2683,-3.3212,-3.3717,-3.4006,-3.4006,-3.4462,-3.4607,-3.4078,-3.403,-3.4437,-3.5474,-3.5129,-3.4706,-3.4462,-3.4181,-3.4111,-3.4388,-3.4156,-3.3864,0.0,0.0,-3.2311,-3.1436,-3.0909,-3.0357,-2.9829,0.0,0.0,-2.9804,0.0,-2.9804,-2.9804,-2.9804,-2.9804,-2.9804,-2.9804,-2.9804,-2.9804,-2.9804,-2.9804,-2.9895,-3.062,-3.0457,-2.9895,-3.062,-3.0419,-2.9804,-2.9804,-2.9818,-3.0216,-3.247,-3.3178,-3.3178,-3.3178,-3.2684,-3.211,-3.211,-3.1526,-3.0932,-3.0932,-3.0381,-3.0126,-3.1257,-3.1516,-3.1442,-3.122,-3.0393,-2.9704,-2.9704,-2.9574,-2.9419,-2.9419,0.0,0.0,0.0,0.0,0.0,0.0,-2.9358,-2.9318,-2.939,0.0,0.0,0.0,0.0,0.0,0.0,0.0,0.0,-3.3819,-3.3819,0.0,-3.4399,-3.4399,-3.4399,-3.4399,-3.4399,-3.4399,-3.4399,-3.4399,-3.4399,-3.4399,-3.4399,-3.4162,-3.3819,-3.3819,-3.3241,-3.2362,-3.1965,-3.1452,-3.0857,-3.0469,-2.9935,-2.9419,-3.2322,-3.2491,-3.2659,-3.3188,-3.3428,-3.3525,-3.3525,-3.3669,-3.3717,-3.3549,-3.3525,-3.3499,-3.3492,-3.3637,-3.3778,0.0,-3.3427,-3.3297,0.0,-3.3158,-3.2862,-3.2734,-3.2259,-3.179,-3.1529,-3.0638,-3.0174,-3.0134,0.0,0.0,0.0,-2.9804,-2.9804,-2.9804,-2.9804,-2.9804,-2.9804,-2.9804,-2.9804,-2.9804,-2.9804,-2.9804,-2.9818,-3.0062,-3.0011,-2.9818,-3.0062,-3.0011,-2.9804,-2.9804,-3.0139,-3.0696,-3.1415,-3.1609,-3.1526,-3.1033,-3.1819,-3.2613,-3.1563,-3.2074,-3.2676,-3.1746,-3.1145,-3.0759,-3.0696,-3.0165,-2.9626,-2.9588,-2.9184,-2.8895,-2.8895,-2.8855,-2.8776,-2.8776,-2.8618,0.0,0.0,0.0,0.0,0.0,-2.8762,-2.8771,0.0,-2.8776,0.0,0.0,0.0,0.0,0.0,0.0,0.0,0.0,-3.3479,0.0,-3.3991,-3.4264,-3.4264,-3.3991,-3.4264,-3.4264,-3.3991,-3.3722,-3.3444,-3.303,-3.303,-3.272,-3.2191,-3.1928,-3.1673,-3.1304,-3.0481,-3.005,-2.9819,-2.9263,-2.8973,-2.8776,-3.1769,-3.2058,-3.2226,-3.237,-3.2731,-3.2923,-3.2707,-3.302,-3.3212,-3.302,-3.2996,-3.2779,-3.225,-3.2298,0.0,-3.2977,-3.2616,-3.2491,-3.2714,-3.2352,-3.2059,-3.1951,-3.1437,-3.1111,-3.0999,0.0,0.0,-2.994,-2.9696,-2.9638,-2.9804,-2.9804,-2.9804,-2.9804,-2.9804,-2.9804,-2.9804,-2.9804,-2.9804,-2.9804,-2.9804,-2.9804,-2.9804,-2.9804,-2.9804,-2.9804,-2.9804,-2.9804,-2.9804,-2.9804,-3.0101,-3.0469,-3.0469,-3.0469,-3.0457,-3.0266,-3.1033,-3.1709,-3.0733,-3.1368,-3.2064,-3.1119,-3.0733,-3.0431,-3.0126,-2.951,-2.9028,-2.9028,-2.8736,-2.8522,-2.8522,-2.8522,-2.8522,-2.8522,-2.8522,-2.8522,-2.8522,0.0,0.0,0.0,0.0,0.0,0.0,-2.8522,-2.8522,0.0,0.0,0.0,0.0,0.0,0.0,-3.2146,-3.2747,0.0,-3.3618,-3.3888,-3.3888,-3.3618,-3.3888,-3.3888,-3.3618,-3.3409,-3.296,-3.2398,-3.2398,-3.1965,-3.1241,-3.1007,-3.067,-3.0253,-2.9626,-2.9263,-2.9013,-2.8618,-2.8522,-2.8522,-3.085,-3.1259,0.0,0.0,-3.1697,0.0,-3.1741,-3.2491,-3.2996,-3.2515,-3.2442,-3.2226,-3.1717,-3.1211,-3.1158,-3.1792,0.0,0.0,0.0,-3.1757,-3.1491,-3.115,-3.0622,-3.0194,-2.9951,-2.9559,-2.9341,-2.938,-2.9624,-2.974,-2.974,-2.974,-2.9779,-2.9779,-2.9779,-2.9804,-2.9804,-2.9804,-2.9804,-2.9804,-2.9804,-2.9804,-2.9804,-2.9804,-2.9804,-2.9804,-2.9804,-2.9804,-2.9804,-2.9804,-2.9804,-2.9804,-2.9779,-2.9779,-2.9934,-3.062,-3.0381,-2.9856,-2.9856,-2.9856,-2.9818,-2.9496,-2.938,-2.938,-2.9549,-2.9496,-2.9341,-2.9341,-2.8895,-2.8522,-2.8522,-2.8522,-2.8522,-2.8522,-2.8522,-2.8522,-2.8522,0.0,0.0,0.0,0.0,0.0,0.0,-2.8522,-2.8522,0.0,0.0,0.0,0.0,0.0,-3.062,-3.1599,-3.1673,-3.2209,-3.3129,-3.3164,-3.3199,-3.3164,-3.3164,-3.3164,-3.3129,-3.3094,-3.2747,-3.2182,-3.2182,-3.1636,-3.0745,-3.0745,-3.0203,-2.9341,-2.9341,-2.8988,-2.8522,-2.8522,-2.8522,-2.8522,0.0,0.0,-3.0422,-3.0302,-3.0831,-3.1259,-3.1115,-3.1669,-3.2054,-3.1934,-3.191,-3.1693,-3.1163,-3.0995,-3.0802,-3.0579,-3.0874,-3.1115,-3.1158,-3.1115,-3.0874,-3.0387,-2.9856,-2.9518,-2.9479,-2.8987,-2.8776,-2.8949,-2.917,-2.9248,-2.9248,-2.9443,-2.9496,-2.9521,-2.9702,-2.9804,-2.9804,-2.9804,-2.9804,-2.9804,-2.9804,-2.9804,-2.9804,-2.9804,-2.9804,-2.9804,-2.9804,-2.9804,-2.9804,-2.9804,-2.9804,-2.974,-2.956,-2.9496,-2.956,-2.9947,-3.0228,-3.0393,-3.0393,-3.0507,-3.0507,-2.9986,-2.9302,-2.8736,-2.8776,-2.8736,-2.8697,-2.8697,-2.8578,-2.8522,-2.8522,-2.8522,-2.8522,-2.8522,-2.8522,-2.8522,-2.8522,-2.8522,0.0,0.0,-2.8522,-2.8522,-2.8522,-2.8522,-2.8522,0.0,0.0,0.0,0.0,-2.8776,-2.9263,-2.9935,-3.0707,-3.123,-3.1489,-3.1756,-3.1901,-3.1901,-3.1746,-3.1626,-3.1452,-3.1156,-3.067,-3.0126,-3.0126,-2.9704,-2.9067,-2.9067,-2.8934,-2.8697,-2.8697,-2.8618,-2.8522,-2.8522,-2.8522,-2.8522,-2.9677,-2.9917,-3.0013,-2.9773,-3.0158,-3.0422,-3.0182,-3.0591,-3.0995,-3.0995,-3.0995,-3.0874,-3.0585,-3.0302,-3.0134,-3.0086,-3.035,-3.0518,-3.0518,-3.0518,-3.0278,-2.9749,-2.946,-2.9196,-2.8955,-2.8723,-2.8736,-2.8934,-2.9052,-2.9091,-2.9091,-2.9209,-2.9263,-2.9263,-2.9404,-2.9468,-2.9468,-2.9468,-2.9468,-2.9468,-2.9468,-2.9468,-2.9468,-2.9468,-2.9468,-2.9468,-2.9468,-2.9468,-2.9468,-2.9468,-2.9468,-2.9468,-2.9326,-2.9263,-2.9287,-2.9468,-2.9715,-2.9896,-2.9896,-2.9973,-2.9973,-2.9549,-2.8792,-2.8138,-2.8138,-2.793,-2.7849,-2.8089,-2.8138,-2.8234,-2.8474,-2.8522,-2.8522,-2.8522,-2.8522,-2.8522,-2.8522,-2.8522,0.0,-2.8522,-2.8522,-2.8522,-2.8522,-2.8522,-2.8522,-2.8522,-2.8522,0.0,-2.8522,-2.8522,-2.8776,-2.938,-2.9935,-3.0329,-3.0594,-3.0857,-3.097,-3.097,-3.0846,-3.0733,-3.0594,-3.0393,-2.9973,-2.9419,-2.9419,-2.9067,-2.8522,-2.8522,-2.8522,-2.8522,-2.8522,-2.8522,-2.8522,-2.8522,-2.8522,-2.8522,-2.9172,-2.9532,-2.9701,-2.9268,-2.9605,-2.9821,-2.9364,-2.9749,-3.0086,-3.0086,-3.0086,-3.0062,-2.9989,-2.9556,-2.9436,-2.9821,-2.9845,-2.9893,-2.9965,-2.9965,-2.9725,-2.9196,-2.9172,-2.8979,-2.8522,-2.8657,-2.8855,-2.9013,-2.9013,-2.9013,-2.9013,-2.9052,-2.9052,-2.9052,-2.9091,-2.9091,-2.9091,-2.9091,-2.9091,-2.9091,-2.9091,-2.9091,-2.9091,-2.9091,-2.9091,-2.9091,-2.9091,-2.9091,-2.9091,-2.9091,-2.9091,-2.9091,-2.9052,-2.9052,-2.9052,-2.9013,-2.9013,-2.9013,-2.9052,-2.8964,-2.8827,-2.8597,-2.8038,-2.757,-2.757,-2.721,-2.7018,-2.7474,-2.7618,-2.7849,-2.8306,-2.845,-2.8522,-2.8522,-2.8522,-2.8522,-2.8522,0.0,-2.8522,-2.8522,-2.8522,-2.8522,-2.8522,-2.8522,-2.8522,-2.8522,-2.8522,-2.8522,-2.8522,-2.8522,-2.8736,-2.9263,-2.9263,-2.9535,-3.0012,-3.0126,-3.0126,-3.0012,-3.0126,-3.0126,-3.0012,-3.0012,-2.9767,-2.9263,-2.9263,-2.8973,-2.8522,-2.8522,-2.8522,-2.8522,-2.8522,-2.8522,-2.8522,-2.8522,-2.8522,-2.8522,-2.8643,-2.8691,-2.8739,-2.8643,-2.9076,-2.9388,-2.9316,-2.9749,-3.0086,-3.0086,-3.0086,-2.9917,-2.946,-2.934,-2.9148,-2.8787,-2.8763,-2.8955,-2.9388,-2.9412,-2.9196,-2.8643,-2.8643,-2.8595,-2.8522,-2.8538,-2.8538,-2.8578,-2.8578,-2.8578,-2.8578,-2.8776,-2.8831,-2.8831,-2.9013,-2.9091,-2.9091,-2.9091,-2.9091,-2.9091,-2.9091,-2.9091,-2.9091,-2.9091,-2.9091,-2.9091,-2.9091,-2.9091,-2.9091,-2.9091,-2.9091,-2.9052,-2.887,-2.8831,-2.8791,-2.8657,-2.8578,-2.8618,-2.8816,-2.8397,-2.7806,-2.7334,-2.7103,-2.7018,-2.7018,-2.6946,-2.6922,-2.6994,-2.7378,-2.7753,-2.7786,-2.821,-2.8522,-2.8522,-2.8522,-2.8522,-2.8522,0.0,-2.8522,-2.8522,-2.8522,-2.8522,-2.8522,-2.8522,-2.8522,-2.8522,-2.8522,-2.8522,-2.8522,-2.8522,-2.8538,-2.8618,-2.8618,-2.8657,-2.8776,-2.9263,-2.9263,-2.8776,-2.9302,-2.9263,-2.8776,-2.8776,-2.8736,-2.8618,-2.8618,-2.8578,-2.8522,-2.8522,-2.8522,-2.8522,-2.8522,-2.8522,-2.8522,-2.8522,-2.8522,-2.8522,-2.8522,-2.8522,-2.8522,-2.8522,-2.8715,-2.8883,-2.8883,-2.8835,-2.8811,-2.8811,-2.857,-2.8402,-2.845,-2.845,-2.8474,-2.8522,-2.8522,-2.8619,-2.8859,-2.8883,-2.8763,-2.8522,-2.8522,-2.8522,-2.8522,-2.8522,-2.8522,-2.8522,-2.8522,-2.8522,-2.8522,-2.8578,-2.8657,-2.8657,-2.8736,-2.8776,-2.8776,-2.8776,-2.8776,-2.8776,-2.8776,-2.8776,-2.8776,-2.8776,-2.8776,-2.8776,-2.8776,-2.8776,-2.8776,-2.8776,-2.8776,-2.8736,-2.8657,-2.8657,-2.8618,-2.8538,-2.8522,-2.845,-2.8279,-2.7975,-2.7546,-2.7018,-2.6657,-2.6478,-2.6478,-2.6262,-2.6105,-2.643,-2.6671,-2.7031,-2.757,-2.7921,-2.8186,-2.8474,-2.8522,0.0,0.0,-2.8522,-2.8522,-2.8522,-2.8522,-2.8522,-2.8522,-2.8522,-2.8522,-2.8522,-2.8522,-2.8522,-2.8522,-2.8522,-2.8522,-2.8522,-2.8522,-2.8522,-2.8522,-2.8776,-2.8776,-2.8522,-2.8776,-2.8776,-2.8522,-2.8522,-2.8522,-2.8522,-2.8522,-2.8522,-2.8522,-2.8522,-2.8522,-2.8522,-2.8522,-2.8522,-2.8522,-2.8522,-2.8522,-2.8522,-2.8522,-2.8522,-2.8522,-2.8522,-2.8522,-2.8522,-2.8522,-2.8162,-2.7897,-2.7897,-2.7522,-2.7426,-2.7834,-2.7897,-2.8065,-2.8474,-2.8402,-2.833,-2.833,-2.821,-2.8258,-2.8498,-2.8522,-2.8522,-2.8522,-2.8522,-2.8522,-2.8522,-2.8522,-2.8522,-2.8522,-2.8522,-2.8522,-2.8522,-2.8522,-2.8522,-2.8522,-2.8522,-2.8522,-2.8522,-2.8522,-2.8522,-2.8522,-2.8522,-2.8522,-2.8522,-2.8522,-2.8522,-2.8522,-2.8522,-2.8522,-2.8522,-2.8522,-2.8522,-2.8522,-2.8522,-2.8426,-2.821,-2.7642,-2.7402,-2.7224,-2.6657,-2.6238,-2.5925,-2.5925,-2.5612,-2.542,-2.5829,-2.6021,-2.6382,-2.733,-2.7633,-2.7897,-2.8426,0.0,0.0,0.0,-2.8522,-2.8522,-2.8522,-2.8522,-2.8522,-2.8522,-2.8522,-2.8522,-2.8522,-2.8522,-2.8522,-2.8522,-2.8522,-2.8522,-2.8522,-2.8522,-2.8522,-2.8522,-2.8522,-2.8522,-2.8522,-2.8522,-2.8522,-2.8522,-2.8522,-2.8522,-2.8522,-2.8522,-2.8522,-2.8522,-2.8522,-2.8522,-2.8522,-2.8522,-2.8522,-2.8522,-2.8522,-2.8522,-2.8522,-2.8522,-2.8522,-2.8522,-2.8522,-2.8522,-2.8522,-2.8522,-2.8474,-2.845,-2.845,-2.8426,-2.8402,-2.845,-2.845,-2.8474,-2.8522,-2.8065,-2.7777,-2.7777,-2.7282,-2.745,-2.8474,-2.8522,-2.8522,-2.8522,-2.8522,-2.8522,-2.8522,-2.8522,-2.8522,-2.8522,-2.8522,-2.8522,-2.8522,-2.8522,-2.8522,-2.8522,-2.8522,-2.8522,-2.8522,-2.8522,-2.8522,-2.8522,-2.8522,-2.8522,-2.8522,-2.8522,-2.8522,-2.8522,-2.8522,-2.8522,-2.8522,-2.8522,-2.8522,-2.8522,-2.8522,-2.8162,-2.7618,-2.709,-2.6622,-2.6093,-2.5564,-2.5396,-2.5372,-2.5372,-2.5348,-2.5324,-2.5348,-2.5757,-2.6286,-2.6849,-2.7354,-2.7897,-2.8426,0.0,0.0,-2.8522,-2.8522,-2.8522,-2.8522,-2.8522,-2.8522,-2.8522,-2.8522,-2.8522,-2.8522,-2.8522,-2.8522,-2.8522,-2.8522,-2.8522,-2.8522,-2.8522,-2.8522,-2.8522,-2.8522,-2.8522,-2.8522,-2.8522,-2.8522,-2.8522,-2.8522,-2.8522,-2.8522,-2.8522,-2.8522,-2.8522,-2.8522,-2.8522,-2.8522,-2.8522,-2.8522,-2.8522,-2.8522,-2.8522,-2.8522,-2.8522,-2.8522,-2.8522,-2.8522,-2.8522,-2.8522,-2.8522,-2.8234,-2.7978,-2.7978,-2.769,-2.7618,-2.7993,-2.7978,-2.8162,-2.8474,-2.833,-2.8065,-2.7714,-2.7498,-2.7426,-2.7498,-2.7498,-2.7642,-2.8017,-2.7666,-2.7642,-2.7978,-2.7642,-2.7666,-2.7978,-2.7978,-2.8186,-2.8522,-2.8522,-2.8522,-2.8498,-2.8162,-2.821,-2.8474,-2.8162,-2.821,-2.8522,-2.8522,-2.8522,-2.8522,-2.8522,-2.8522,-2.8522,-2.8522,-2.8522,-2.8522,-2.8522,-2.8282,-2.7969,-2.7594,-2.7152,-2.6671,-2.6478,-2.6262,-2.5973,-2.5444,-2.53,-2.53,-2.53,-2.53,-2.53,-2.53,-2.5468,-2.5781,-2.631,-2.6825,-2.7378,-2.7945,0.0,-2.8522,-2.8522,-2.8522,-2.8522,-2.8522,-2.8522,-2.8522,-2.8522,-2.8522,-2.8522,-2.8522,-2.8522,-2.8522,-2.8522,-2.8522,-2.8522,-2.8522,-2.8522,-2.8522,-2.8522,-2.8522,-2.8522,-2.8522,-2.8522,-2.8522,-2.8522,-2.8522,-2.8522,-2.8522,-2.8522,-2.8522,-2.8522,-2.8522,-2.8522,-2.8522,-2.8522,-2.8522,-2.8522,-2.8522,-2.8522,-2.8522,-2.8258,-2.8402,-2.8522,-2.8522,-2.8522,-2.8522,-2.8522,-2.821,-2.7969,-2.7969,-2.7618,-2.7522,-2.7921,-2.7969,-2.8114,-2.8474,-2.8354,-2.8114,-2.7714,-2.7354,-2.709,-2.6898,-2.6898,-2.7066,-2.7426,-2.709,-2.7066,-2.745,-2.7066,-2.709,-2.745,-2.7594,-2.7825,-2.7978,-2.8186,-2.8258,-2.8234,-2.7666,-2.7777,-2.821,-2.7642,-2.7642,-2.8041,-2.817,-2.8122,-2.8041,-2.821,-2.8162,-2.8017,-2.8017,-2.8017,-2.8017,-2.8017,-2.7738,-2.7378,-2.6994,-2.6526,-2.6093,-2.6093,-2.5973,-2.5757,-2.5396,-2.53,-2.53,-2.53,-2.53,-2.53,-2.53,-2.53,-2.5468,-2.5997,-2.6406,-2.6801,-2.7354,-2.7777,-2.8065,-2.8234,-2.8258,-2.833,-2.8498,-2.8522,-2.8522,-2.8522,-2.8522,-2.8522,-2.8522,-2.8522,-2.8522,-2.8522,-2.8522,-2.8522,-2.8522,-2.8522,-2.8522,-2.8522,-2.8522,-2.8522,-2.8522,-2.8522,-2.8522,-2.8522,-2.8522,-2.8522,-2.8522,-2.8522,-2.8522,-2.8522,-2.8522,-2.8522,-2.8522,-2.8522,-2.8522,-2.8522,-2.8522,-2.8443,-2.8323,-2.769,-2.8138,-2.8498,-2.8522,-2.8522,-2.8522,-2.8522,-2.8522,-2.8522,-2.8522,-2.8522,-2.8522,-2.8522,-2.8522,-2.8522,-2.8498,-2.8017,-2.769,-2.7705,-2.6695,-2.6334,-2.6849,-2.6873,-2.6898,-2.6898,-2.6898,-2.6898,-2.6898,-2.6898,-2.6898,-2.6898,-2.7426,-2.7402,-2.6922,-2.745,-2.7666,-2.7642,-2.7114,-2.7186,-2.7681,-2.709,-2.6898,-2.6946,-2.7474,-2.7354,-2.697,-2.7498,-2.733,-2.6898,-2.6898,-2.6898,-2.6898,-2.6898,-2.6898,-2.6898,-2.6898,-2.6489,-2.6093,-2.6093,-2.5709,-2.53,-2.53,-2.53,-2.53,-2.53,-2.53,-2.53,-2.53,-2.53,-2.5468,-2.5997,-2.6093,-2.6286,-2.6801,-2.6898,-2.709,-2.7618,-2.769,-2.7921,-2.845,-2.8522,-2.8522,-2.8522,-2.8522,-2.8522,-2.8522,-2.8522,-2.8522,-2.8522,-2.8522,-2.8522,-2.8522,-2.8522,-2.8522,-2.8522,-2.8522,-2.8522,-2.8522,-2.8522,-2.8522,-2.8522,-2.8522,-2.8522,-2.8522,-2.8522,-2.8522,-2.8522,-2.8522,-2.8522,-2.8522,-2.8522,-2.8522,-2.8498,-2.8483,-2.8243,-2.7962,-2.7618,-2.7849,-2.8065,-2.845,-2.8522,-2.8522,-2.8522,-2.8522,-2.8522,-2.8522,-2.8522,-2.8522,-2.8522,-2.8522,-2.8354,-2.7993,-2.7786,-2.7392,-2.6622,-2.5925,-2.5612,-2.5781,-2.5805,-2.5973,-2.6334,-2.5973,-2.5973,-2.6358,-2.5973,-2.5973,-2.6358,-2.6502,-2.6719,-2.6898,-2.7066,-2.7138,-2.709,-2.6574,-2.6671,-2.709,-2.6574,-2.6537,-2.6922,-2.7066,-2.7042,-2.6922,-2.7066,-2.7042,-2.6898,-2.6898,-2.6898,-2.6825,-2.6478,-2.6358,-2.6286,-2.5901,-2.5685,-2.554,-2.554,-2.542,-2.53,-2.53,-2.53,-2.53,-2.53,-2.53,-2.53,-2.53,-2.53,-2.5348,-2.5516,-2.5853,-2.6142,-2.631,-2.6633,-2.709,-2.7618,-2.769,-2.7921,-2.845,-2.8522,-2.8522,-2.8522,-2.8522,-2.8522,-2.8522,-2.8522,-2.8522,-2.8522,-2.8522,-2.8522,-2.8522,-2.8522,-2.8522,-2.8522,-2.8522,-2.8522,-2.8522,-2.8522,-2.8522,-2.8522,-2.8522,-2.8522,-2.8522,-2.8522,-2.8522,-2.8522,-2.8522,-2.8522,-2.8459,-2.8203,-2.8082,-2.8042,-2.7736,-2.751,-2.7452,-2.7007,-2.7416,-2.7786,-2.8138,-2.8378,-2.8522,-2.8522,-2.8522,-2.8522,-2.8522,-2.8522,-2.8522,-2.8522,-2.833,-2.8162,-2.8041,-2.781,-2.7248,-2.6166,-2.5805,-2.5516,-2.5324,-2.53,-2.5468,-2.5781,-2.5468,-2.5468,-2.5781,-2.5468,-2.5468,-2.5781,-2.5997,-2.6166,-2.6273,-2.6465,-2.6561,-2.6574,-2.6275,-2.6311,-2.655,-2.6251,-2.6359,-2.6639,-2.6858,-2.6785,-2.6639,-2.6858,-2.6638,-2.6249,-2.6249,-2.6249,-2.6201,-2.5901,-2.5781,-2.5709,-2.5396,-2.53,-2.53,-2.53,-2.53,-2.53,-2.53,-2.53,-2.53,-2.53,-2.53,-2.53,-2.53,-2.53,-2.53,-2.53,-2.5564,-2.5781,-2.5781,-2.6069,-2.6513,-2.7258,-2.7378,-2.7642,-2.8426,-2.8522,-2.8522,-2.8522,-2.8522,-2.8522,-2.8522,-2.8522,-2.8522,-2.8522,-2.8522,-2.8522,-2.8522,-2.8522,-2.8522,-2.8522,-2.8522,-2.8522,-2.8522,-2.8522,-2.8522,-2.8522,-2.8522,-2.8522,-2.8522,-2.8522,-2.8522,-2.8483,-2.8323,-2.8283,-2.8243,-2.7777,-2.776,-2.7841,-2.7348,-2.7185,-2.7185,-2.6166,-2.7,-2.7724,-2.7782,-2.8231,-2.8569,-2.8498,-2.8538,-2.8538,-2.8498,-2.8538,-2.8578,-2.8578,-2.812,-2.7999,-2.8536,-2.8014,-2.7165,-2.6093,-2.6058,-2.5877,-2.5324,-2.5335,-2.5335,-2.53,-2.53,-2.53,-2.53,-2.53,-2.53,-2.5324,-2.5805,-2.5757,-2.5324,-2.5805,-2.6021,-2.6033,-2.6082,-2.6086,-2.6009,-2.6117,-2.6129,-2.6179,-2.6579,-2.6491,-2.6179,-2.6579,-2.6137,-2.53,-2.53,-2.53,-2.53,-2.53,-2.53,-2.53,-2.53,-2.53,-2.53,-2.53,-2.53,-2.53,-2.53,-2.53,-2.53,-2.53,-2.53,-2.53,-2.53,-2.53,-2.53,-2.53,-2.53,-2.53,-2.53,-2.53,-2.5685,-2.6681,-2.6873,-2.7282,-2.833,-2.8474,-2.8522,-2.8522,-2.8522,-2.8522,-2.8522,-2.8522,-2.8522,-2.8522,-2.8522,-2.8522,-2.8522,-2.8522,-2.8522,-2.8522,-2.8522,-2.8522,-2.8522,-2.8522,-2.8522,-2.8522,-2.8522,-2.8522,-2.8522,-2.8459,-2.8443,-2.8403,-2.8002,-2.7841,-2.78,-2.7307,-2.7412,-2.7719,-2.7221,-2.7035,-2.7035,-2.6646,-2.7276,-2.7871,-2.8286,-2.8812,-2.9036,-2.8569,-2.8895,-2.9028,-2.8538,-2.8934,-2.9184,-2.9184,-2.8755,-2.8648,-2.9202,-2.7989,-2.6649,-2.5552,-2.5917,-2.5938,-2.5324,-2.5721,-2.5756,-2.53,-2.53,-2.53,-2.53,-2.53,-2.53,-2.53,-2.542,-2.542,-2.5324,-2.542,-2.5468,-2.5468,-2.5489,-2.5478,-2.5468,-2.5489,-2.55,-2.55,-2.5597,-2.5573,-2.55,-2.5597,-2.5502,-2.53,-2.53,-2.53,-2.53,-2.53,-2.53,-2.53,-2.53,-2.53,-2.53,-2.53,-2.53,-2.53,-2.53,-2.53,-2.53,-2.53,-2.53,-2.53,-2.53,-2.53,-2.53,-2.53,-2.53,-2.53,-2.53,-2.53,-2.554,-2.619,-2.6633,-2.7138,-2.7825,-2.8258,-2.8522,-2.8522,-2.8522,-2.8522,-2.8522,-2.8522,-2.8522,-2.8522,-2.8522,-2.8522,-2.8522,-2.8522,-2.8522,-2.8522,-2.8522,-2.8522,-2.8522,-2.8522,-2.8522,-2.8522,-2.8522,-2.8522,-2.8459,-2.8163,-2.8042,-2.8002,-2.7534,-2.7348,-2.7307,-2.6857,-2.6693,-2.6689,-2.5898,-2.5643,-2.5643,-2.6895,-2.7418,-2.7982,-2.8458,-2.9022,-2.9377,-2.9383,-2.9651,-2.9729,-2.9419,-2.9651,-2.9845,-2.9845,-2.9341,-2.8934,-2.8764,-2.7926,-2.7027,-2.6188,-2.6414,-2.6336,-2.5721,-2.6302,-2.6311,-2.5746,-2.5965,-2.6,-2.5746,-2.5746,-2.5746,-2.5746,-2.5746,-2.5606,-2.53,-2.53,-2.53,-2.53,-2.5616,-2.5546,-2.5335,-2.5616,-2.5746,-2.5746,-2.5746,-2.5746,-2.5746,-2.5746,-2.5546,-2.53,-2.53,-2.53,-2.53,-2.53,-2.53,-2.53,-2.53,-2.53,-2.53,-2.53,-2.53,-2.53,-2.53,-2.53,-2.53,-2.53,-2.53,-2.53,-2.53,-2.53,-2.53,-2.53,-2.53,-2.5396,-2.5636,-2.5468,-2.5588,-2.6382,-2.6705,-2.709,-2.7618,-2.8186,-2.8522,-2.8522,-2.8522,-2.8522,-2.8522,-2.8522,-2.8522,-2.8522,-2.8522,-2.8522,-2.8522,-2.8522,-2.8403,-2.8203,-2.8203,-2.8099,-2.7898,-2.8099,-2.8122,-2.7898,-2.7898,-2.7898,-2.7898,-2.7655,-2.7574,-2.7534,-2.7062,-2.6739,-2.6495,-2.6047,-2.5739,-2.5413,-2.4733,-2.4639,-2.4876,-2.7,-2.7498,-2.8127,-2.8666,-2.914,-2.9567,-3.0086,-3.0265,-3.0302,-3.0189,-3.0265,-3.034,-3.034,-2.9899,-2.9135,-2.7859,-2.7859,-2.7679,-2.7045,-2.7095,-2.6892,-2.6371,-2.6824,-2.6892,-2.6371,-2.6654,-2.6688,-2.6336,-2.6233,-2.6198,-2.6198,-2.6094,-2.5781,-2.53,-2.53,-2.53,-2.5335,-2.5826,-2.5756,-2.5335,-2.5851,-2.606,-2.606,-2.606,-2.606,-2.606,-2.606,-2.5721,-2.53,-2.53,-2.53,-2.53,-2.53,-2.53,-2.53,-2.53,-2.53,-2.53,-2.53,-2.53,-2.53,-2.53,-2.53,-2.53,-2.53,-2.53,-2.53,-2.53,-2.53,-2.53,-2.53,-2.53,-2.5444,-2.5901,-2.5661,-2.5757,-2.6633,-2.6922,-2.7186,-2.7681,-2.8186,-2.8522,-2.8522,-2.8522,-2.8522,-2.8522,-2.8522,-2.8522,-2.8522,-2.8522,-2.8522,-2.8522,-2.8522,-2.8363,-2.8002,-2.8002,-2.7736,-2.7185,-2.7574,-2.7574,-2.7185,-2.7185,-2.7185,-2.7185,-2.7103,-2.7062,-2.7062,-2.6569,-2.6114,-2.5668,-2.5326,-2.4878,-2.4368,-2.3881,-2.3897,-2.4137,-2.6895,-2.7759,-2.8672,-2.9285,-2.9438,-2.9483,-2.952,-3.0032,-3.0179,-2.9599,-3.0032,-3.0388,-3.0388,-3.0326,-2.943,-2.7327,-2.8004,-2.8124,-2.7079,-2.743,-2.743,-2.6926,-2.7423,-2.743,-2.6892,-2.6508,-2.6508,-2.6892,-2.644,-2.6198,-2.6198,-2.5676,-2.537,-2.53,-2.53,-2.53,-2.5324,-2.537,-2.537,-2.53,-2.537,-2.5406,-2.5406,-2.5406,-2.5406,-2.5406,-2.5406,-2.537,-2.53,-2.53,-2.53,-2.53,-2.53,-2.53,-2.53,-2.53,-2.53,-2.53,-2.53,-2.53,-2.53,-2.53,-2.53,-2.53,-2.53,-2.53,-2.53,-2.53,-2.53,-2.53,-2.53,-2.53,-2.5324,-2.5396,-2.5733,-2.6045,-2.619,-2.7031,-2.7594,-2.7666,-2.8186,-2.8522,-2.8522,-2.8522,-2.8522,-2.8522,-2.8522,-2.8522,-2.8522,-2.8522,-2.8522,-2.8522,-2.8522,-2.8459,-2.8443,-2.8443,-2.8018,-2.7185,-2.7267,-2.7267,-2.7185,-2.7185,-2.7185,-2.7185,-2.6775,-2.661,-2.6569,-2.6135,-2.5683,-2.5286,-2.5204,-2.4938,-2.4412,-2.3897,-2.3226,-2.2673,-2.6818,-2.7521,-2.8292,-2.8866,-2.9545,-3.0111,-3.0413,-3.1019,-3.1172,-3.0536,-3.0726,-3.0628,-2.9958,-2.9605,-2.914,-2.8458,-2.8545,-2.8418,-2.7921,-2.8118,-2.802,-2.749,-2.7954,-2.7987,-2.7456,-2.7523,-2.7656,-2.7888,-2.7061,-2.6483,-2.6198,-2.6552,-2.638,-2.5816,-2.6104,-2.607,-2.5791,-2.5791,-2.5616,-2.53,-2.53,-2.53,-2.53,-2.53,-2.53,-2.5335,-2.5687,-2.5606,-2.5335,-2.5711,-2.5581,-2.53,-2.53,-2.53,-2.53,-2.53,-2.53,-2.53,-2.53,-2.53,-2.53,-2.53,-2.53,-2.53,-2.53,-2.53,-2.53,-2.53,-2.53,-2.53,-2.53,-2.53,-2.5516,-2.6081,-2.6142,-2.631,-2.6911,-2.7378,-2.7786,-2.8114,-2.8378,-2.8522,-2.8522,-2.8522,-2.8522,-2.8522,-2.8522,-2.8522,-2.8522,-2.8283,-2.8163,-2.8163,-2.7898,-2.7632,-2.7389,-2.7389,-2.7062,-2.6467,-2.6467,-2.6467,-2.6467,-2.6467,-2.6467,-2.6467,-2.626,-2.6177,-2.6135,-2.5968,-2.5622,-2.5182,-2.4902,-2.4181,-2.3241,-2.3023,-2.2848,-2.2761]},{"header":{"parameterUnit":"m.s-1","parameterCategory":1,"la1":30.6,"la2":28.766,"lo1":-90.7593,"lo2":-88.6598,"dy":0.0162,"dx":0.0183,"nx":116,"ny":114,"refTime":"2023-08-05T06:00:00:Z","depth":0,"parameterNumber":3,"parameterNumberName":"V-component_of_WINDS"},"data":[0.0,0.0,0.0,0.0,0.0,0.0,0.0,0.0,0.0,0.0,0.0,0.0,0.0,0.0,0.0,0.0,0.0,0.0,0.0,0.0,0.0,0.0,0.0,0.0,0.0,0.0,0.0,0.0,0.0,0.0,0.0,0.0,0.0,0.0,0.0,0.0,0.0,0.0,0.0,0.0,0.0,0.0,0.0,0.0,0.0,0.0,0.0,0.0,0.0,0.0,0.0,0.0,0.0,0.0,0.0,0.0,0.0,0.0,0.0,0.0,0.0,0.0,0.0,0.0,0.0,0.0,0.0,0.0,0.0,0.0,0.0,0.0,0.0,0.0,0.0,0.0,0.0,0.0,0.0,0.0,0.0,0.0,0.0,0.0,0.0,0.0,0.0,0.0,0.0,0.0,0.0,0.0,0.0,0.0,0.0,0.0,0.0,0.0,0.0,0.0,0.0,0.0,0.0,0.0,0.0,0.0,0.0,0.0,0.0,0.0,0.0,0.0,0.0,0.0,0.0,0.0,0.0,0.0,0.0,0.0,0.0,0.0,0.0,0.0,0.0,0.0,0.0,0.0,0.0,0.0,0.0,0.0,0.0,0.0,0.0,0.0,0.0,0.0,0.0,0.0,0.0,0.0,0.0,0.0,0.0,0.0,0.0,0.0,0.0,0.0,0.0,0.0,0.0,0.0,0.0,0.0,0.0,0.0,0.0,0.0,0.0,0.0,0.0,0.0,0.0,0.0,0.0,0.0,0.0,0.0,0.0,0.0,0.0,0.0,0.0,0.0,0.0,0.0,0.0,0.0,0.0,0.0,0.0,0.0,0.0,0.0,0.0,0.0,0.0,0.0,0.0,0.0,0.0,0.0,0.0,0.0,0.0,0.0,0.0,0.0,0.0,0.0,0.0,0.0,0.0,0.0,0.0,0.0,0.0,0.0,0.0,0.0,0.0,0.0,0.0,0.0,0.0,0.0,0.0,0.0,0.0,0.0,0.0,0.0,0.0,0.0,0.0,0.0,0.0,0.0,0.0,0.0,0.0,0.0,0.0,0.0,0.0,0.0,0.0,0.0,0.0,0.0,0.0,0.0,0.0,0.0,0.0,0.0,0.0,0.0,0.0,0.0,0.0,0.0,0.0,0.0,0.0,0.0,0.0,0.0,0.0,0.0,0.0,0.0,0.0,0.0,0.0,0.0,0.0,0.0,0.0,0.0,0.0,0.0,0.0,0.0,0.0,0.0,0.0,0.0,0.0,0.0,0.0,0.0,0.0,0.0,0.0,0.0,0.0,0.0,0.0,0.0,0.0,0.0,0.0,0.0,0.0,0.0,0.0,0.0,0.0,0.0,0.0,0.0,0.0,0.0,0.0,0.0,0.0,0.0,0.0,0.0,0.0,0.0,0.0,0.0,0.0,0.0,0.0,0.0,0.0,0.0,0.0,0.0,0.0,0.0,0.0,0.0,0.0,0.0,0.0,0.0,0.0,0.0,0.0,0.0,0.0,0.0,0.0,0.0,0.0,0.0,0.0,0.0,0.0,0.0,0.0,0.0,0.0,0.0,0.0,0.0,0.0,0.0,0.0,0.0,0.0,0.0,0.0,0.0,0.0,0.0,0.0,0.0,0.0,0.0,0.0,0.0,0.0,0.0,0.0,0.0,0.0,0.0,0.0,0.0,0.0,0.0,0.0,0.0,0.0,0.0,0.0,0.0,0.0,0.0,0.0,0.0,0.0,0.0,0.0,0.0,0.0,0.0,0.0,0.0,0.0,0.0,0.0,0.0,0.0,0.0,0.0,0.0,0.0,0.0,0.0,0.0,0.0,0.0,0.0,0.0,0.0,0.0,0.0,0.0,0.0,0.0,0.0,0.0,0.0,0.0,0.0,0.0,0.0,0.0,0.0,0.0,0.0,0.0,0.0,0.0,0.0,0.0,0.0,0.0,0.0,0.0,0.0,0.0,0.0,0.0,0.0,0.0,0.0,0.0,0.0,0.0,0.0,0.0,0.0,0.0,0.0,0.0,0.0,0.0,0.0,0.0,0.0,0.0,0.0,0.0,0.0,0.0,0.0,0.0,0.0,0.0,0.0,0.0,0.0,0.0,0.0,0.0,0.0,0.0,0.0,0.0,0.0,0.0,0.0,0.0,0.0,0.0,0.0,0.0,0.0,0.0,0.0,0.0,0.0,0.0,0.0,0.0,0.0,0.0,0.0,0.0,0.0,0.0,0.0,0.0,0.0,0.0,0.0,0.0,0.0,0.0,0.0,0.0,0.0,0.0,0.0,0.0,0.0,0.0,0.0,0.0,0.0,0.0,0.0,0.0,0.0,0.0,0.0,0.0,0.0,0.0,0.0,0.0,0.0,0.0,0.0,0.0,0.0,0.0,0.0,0.0,0.0,0.0,0.0,0.0,0.0,0.0,0.0,0.0,0.0,0.0,0.0,0.0,0.0,0.0,0.0,0.0,0.0,0.0,0.0,0.0,0.0,0.0,0.0,0.0,0.0,0.0,0.0,0.0,0.0,0.0,0.0,0.0,0.0,0.0,0.0,0.0,0.0,0.0,0.0,0.0,0.0,0.0,0.0,0.0,0.0,0.0,0.0,0.0,0.0,0.0,0.0,0.0,0.0,0.0,0.0,0.0,0.0,0.0,0.0,0.0,0.0,0.0,0.0,0.0,0.0,0.0,0.0,0.0,0.0,0.0,0.0,0.0,0.0,0.0,0.0,0.0,0.0,0.0,0.0,0.0,0.0,0.0,0.0,0.0,0.0,0.0,0.0,0.0,0.0,0.0,0.0,0.0,0.0,0.0,0.0,0.0,0.0,0.0,0.0,0.0,0.0,0.0,0.0,0.0,0.0,0.0,0.0,0.0,0.0,0.0,0.0,0.0,0.0,0.0,0.0,0.0,0.0,0.0,0.0,0.0,0.0,0.0,0.0,0.0,0.0,0.0,0.0,0.0,0.0,0.0,0.0,0.0,0.0,0.0,0.0,0.0,0.0,0.0,0.0,0.0,0.0,0.0,0.0,0.0,0.0,0.0,0.0,0.0,0.0,0.0,0.0,0.0,0.0,0.0,0.0,0.0,0.0,0.0,0.0,0.0,0.0,0.0,0.0,0.0,0.0,0.0,0.0,0.0,0.0,0.0,0.0,0.0,0.0,0.0,0.0,0.0,0.0,0.0,0.0,0.0,0.0,0.0,0.0,0.0,0.0,0.0,0.0,0.0,0.0,0.0,0.0,0.0,0.0,0.0,0.0,0.0,0.0,0.0,0.0,0.0,0.0,0.0,0.0,0.0,0.0,0.0,0.0,0.0,0.0,0.0,0.0,0.0,0.0,0.0,0.0,0.0,0.0,0.0,0.0,0.0,0.0,0.0,0.0,0.0,0.0,0.0,0.0,0.0,0.0,0.0,0.0,0.0,0.0,0.0,0.0,0.0,0.0,0.0,0.0,0.0,0.0,0.0,0.0,0.0,0.0,0.0,0.0,0.0,0.0,0.0,0.0,0.0,0.0,0.0,0.0,0.0,0.0,0.0,0.0,0.0,0.0,0.0,0.0,0.0,0.0,0.0,0.0,0.0,0.0,0.0,0.0,0.0,0.0,0.0,0.0,0.0,0.0,0.0,0.0,0.0,0.0,0.0,0.0,0.0,0.0,0.0,0.0,0.0,0.0,0.0,0.0,0.0,0.0,0.0,0.0,0.0,0.0,0.0,0.0,0.0,0.0,0.0,0.0,0.0,0.0,0.0,0.0,0.0,0.0,0.0,0.0,0.0,0.0,0.0,0.0,0.0,0.0,0.0,0.0,0.0,0.0,0.0,0.0,0.0,0.0,0.0,0.0,0.0,0.0,0.0,0.0,0.0,0.0,0.0,0.0,0.0,0.0,0.0,0.0,0.0,0.0,0.0,0.0,0.0,0.0,0.0,0.0,0.0,0.0,0.0,0.0,0.0,0.0,0.0,0.0,0.0,0.0,0.0,0.0,0.0,0.0,0.0,0.0,0.0,0.0,0.0,0.0,0.0,0.0,0.0,0.0,0.0,0.0,0.0,0.0,0.0,0.0,0.0,0.0,0.0,0.0,0.0,0.0,0.0,0.0,0.0,0.0,0.0,0.0,0.0,0.0,0.0,0.0,0.0,0.0,0.0,0.0,0.0,0.0,0.0,0.0,0.0,0.0,0.0,0.0,0.0,0.0,0.0,0.0,0.0,0.0,0.0,0.0,0.0,0.0,0.0,0.0,0.0,0.0,0.0,0.0,0.0,0.0,0.0,0.0,0.0,0.0,0.0,0.0,0.0,0.0,0.0,0.0,0.0,0.0,0.0,0.0,0.0,0.0,0.0,0.0,0.0,0.0,0.0,0.0,0.0,0.0,0.0,0.0,0.0,0.0,0.0,0.0,0.0,0.0,0.0,0.0,0.0,0.0,0.0,0.0,0.0,0.0,0.0,0.0,0.0,0.0,0.0,0.0,0.0,0.0,0.0,0.0,0.0,0.0,0.0,0.0,0.0,0.0,0.0,0.0,0.0,0.0,0.0,0.0,0.0,0.0,0.0,0.0,0.0,0.0,0.0,0.0,0.0,0.0,0.0,0.0,0.0,0.0,0.0,0.0,0.0,0.0,0.0,0.0,0.0,0.0,0.0,0.0,0.0,0.0,0.0,0.0,0.0,0.0,0.0,0.0,0.0,0.0,0.0,0.0,0.0,0.0,0.0,0.0,0.0,0.0,0.0,0.0,0.0,0.0,0.0,0.0,0.0,0.0,0.0,0.0,0.0,0.0,0.0,0.0,0.0,0.0,0.0,0.0,0.0,0.0,0.0,0.0,0.0,0.0,0.0,0.0,0.0,0.0,0.0,0.0,0.0,0.0,0.0,0.0,0.0,0.0,0.0,0.0,0.0,0.0,0.0,0.0,0.0,0.0,0.0,0.0,0.0,0.0,0.0,0.0,0.0,0.0,0.0,0.0,0.0,0.0,0.0,0.0,0.0,0.0,0.0,0.0,0.0,0.0,0.0,0.0,0.0,0.0,0.0,0.0,0.0,0.0,0.0,0.0,0.0,0.0,0.0,0.0,0.0,0.0,0.0,0.0,0.0,0.0,0.0,0.0,0.0,0.0,0.0,0.0,0.0,0.0,0.0,0.0,0.0,0.0,0.0,0.0,0.0,0.0,0.0,0.0,0.0,0.0,0.0,0.0,0.0,0.0,0.0,0.0,0.0,0.0,0.0,0.0,0.0,0.0,0.0,0.0,0.0,0.0,0.0,0.0,0.0,0.0,0.0,0.0,0.0,0.0,0.0,0.0,0.0,0.0,0.0,0.0,0.0,0.0,0.0,0.0,0.0,0.0,0.0,0.0,0.0,0.0,0.0,0.0,0.0,0.0,0.0,0.0,0.0,0.0,0.0,0.0,0.0,0.0,0.0,0.0,0.0,0.0,0.0,0.0,0.0,0.0,0.0,0.0,0.0,0.0,0.0,0.0,0.0,0.0,0.0,0.0,0.0,0.0,0.0,0.0,0.0,0.0,0.0,0.0,0.0,0.0,0.0,0.0,0.0,0.0,0.0,0.0,0.0,0.0,0.0,0.0,0.0,0.0,0.0,0.0,0.0,0.0,0.0,0.0,0.0,0.0,0.0,0.0,0.0,0.0,0.0,0.0,0.0,0.0,0.0,0.0,0.0,0.0,0.0,0.0,0.0,0.0,0.0,0.0,0.0,0.0,0.0,0.0,0.0,0.0,0.0,0.0,0.0,0.0,0.0,0.0,0.0,0.0,0.0,0.0,0.0,0.0,0.0,0.0,0.0,0.0,0.0,0.0,0.0,0.0,0.0,0.0,0.0,0.0,0.0,0.0,0.0,0.0,0.0,0.0,0.0,0.0,0.0,0.0,0.0,0.0,0.0,0.0,0.0,0.0,0.0,0.0,0.0,0.0,0.0,0.0,0.0,0.0,0.0,0.0,0.0,0.0,0.0,0.0,0.0,0.0,0.0,0.0,0.0,0.0,0.0,0.0,0.0,0.0,0.0,0.0,0.0,0.0,0.0,0.0,0.0,0.0,0.0,0.0,0.0,0.0,0.0,0.0,0.0,0.0,0.0,0.0,0.0,0.0,0.0,0.0,0.0,-2.5301,0.0,0.0,0.0,0.0,0.0,0.0,0.0,0.0,0.0,0.0,0.0,0.0,0.0,0.0,0.0,0.0,0.0,0.0,0.0,0.0,0.0,0.0,0.0,0.0,0.0,0.0,0.0,0.0,0.0,0.0,0.0,0.0,0.0,0.0,0.0,0.0,0.0,0.0,0.0,0.0,0.0,0.0,0.0,0.0,0.0,0.0,0.0,0.0,0.0,0.0,0.0,0.0,0.0,0.0,0.0,0.0,0.0,0.0,0.0,0.0,0.0,0.0,0.0,0.0,0.0,0.0,0.0,0.0,0.0,0.0,0.0,0.0,0.0,0.0,0.0,0.0,0.0,0.0,0.0,0.0,0.0,0.0,0.0,0.0,0.0,0.0,0.0,0.0,0.0,0.0,0.0,0.0,0.0,0.0,0.0,0.0,0.0,0.0,0.0,0.0,0.0,0.0,0.0,0.0,0.0,0.0,0.0,0.0,0.0,0.0,0.0,0.0,0.0,0.0,0.0,0.0,-2.6305,0.0,0.0,0.0,0.0,0.0,0.0,0.0,0.0,0.0,0.0,0.0,0.0,0.0,0.0,0.0,0.0,0.0,0.0,0.0,0.0,0.0,0.0,0.0,0.0,0.0,0.0,0.0,0.0,0.0,0.0,0.0,0.0,0.0,0.0,0.0,0.0,0.0,0.0,0.0,0.0,0.0,0.0,0.0,0.0,0.0,0.0,0.0,0.0,0.0,0.0,0.0,0.0,0.0,0.0,0.0,0.0,0.0,0.0,0.0,0.0,0.0,0.0,0.0,0.0,0.0,0.0,0.0,0.0,0.0,0.0,0.0,0.0,0.0,0.0,0.0,0.0,0.0,0.0,0.0,0.0,0.0,0.0,0.0,0.0,0.0,0.0,0.0,0.0,0.0,0.0,0.0,0.0,0.0,0.0,0.0,0.0,0.0,0.0,0.0,0.0,0.0,0.0,0.0,0.0,0.0,0.0,0.0,0.0,-2.7713,-2.8256,-2.8169,-2.8812,-2.9105,-2.9061,-2.8578,-2.8646,-2.8948,-2.6943,0.0,0.0,0.0,0.0,0.0,0.0,0.0,0.0,0.0,0.0,0.0,0.0,0.0,0.0,0.0,0.0,0.0,0.0,0.0,0.0,0.0,0.0,0.0,0.0,0.0,0.0,0.0,0.0,0.0,0.0,0.0,0.0,0.0,0.0,0.0,0.0,0.0,0.0,0.0,0.0,0.0,0.0,0.0,0.0,0.0,0.0,0.0,0.0,0.0,0.0,0.0,0.0,0.0,0.0,0.0,0.0,0.0,0.0,0.0,0.0,0.0,0.0,0.0,0.0,0.0,0.0,0.0,0.0,0.0,0.0,0.0,0.0,0.0,0.0,0.0,0.0,0.0,0.0,0.0,0.0,0.0,0.0,0.0,0.0,0.0,0.0,-2.0659,-2.0662,0.0,0.0,0.0,0.0,0.0,0.0,0.0,0.0,0.0,0.0,0.0,0.0,0.0,-2.4134,-2.4878,-2.7301,-2.8424,-2.8255,-3.0585,-3.1359,-3.0832,-3.1476,-3.1783,-3.1839,-3.315,0.0,-3.0102,-2.9057,0.0,0.0,0.0,0.0,0.0,0.0,0.0,0.0,0.0,0.0,0.0,0.0,0.0,0.0,0.0,0.0,0.0,0.0,0.0,0.0,0.0,0.0,0.0,0.0,0.0,0.0,0.0,0.0,0.0,0.0,0.0,0.0,0.0,0.0,0.0,0.0,0.0,0.0,0.0,0.0,0.0,0.0,0.0,0.0,0.0,0.0,0.0,0.0,0.0,0.0,0.0,0.0,0.0,0.0,0.0,0.0,0.0,0.0,0.0,0.0,0.0,0.0,0.0,0.0,0.0,0.0,0.0,0.0,0.0,0.0,0.0,0.0,0.0,0.0,0.0,0.0,0.0,0.0,0.0,0.0,0.0,0.0,0.0,0.0,0.0,-2.1065,-2.135,-2.08,-2.0816,-2.0542,0.0,0.0,0.0,0.0,0.0,0.0,0.0,0.0,0.0,-2.4643,-2.5304,-2.6117,-2.7202,-2.8482,-2.9481,-3.0213,-3.1698,-3.2411,-3.2412,-3.3071,-3.3276,-3.3175,-3.5015,-3.5395,-3.4595,-3.2709,-3.2268,-3.2579,0.0,0.0,0.0,0.0,-3.2887,-3.3689,0.0,0.0,0.0,0.0,0.0,0.0,0.0,0.0,0.0,0.0,0.0,0.0,0.0,0.0,0.0,0.0,0.0,0.0,0.0,0.0,0.0,0.0,0.0,0.0,0.0,0.0,0.0,0.0,0.0,0.0,0.0,0.0,0.0,0.0,0.0,0.0,0.0,0.0,0.0,0.0,0.0,0.0,0.0,0.0,0.0,0.0,0.0,0.0,0.0,0.0,0.0,0.0,0.0,0.0,0.0,0.0,0.0,0.0,0.0,0.0,0.0,0.0,0.0,0.0,0.0,0.0,0.0,0.0,0.0,0.0,0.0,0.0,0.0,0.0,0.0,0.0,0.0,-2.1394,-2.2002,-2.0887,-2.168,-2.1679,0.0,0.0,0.0,0.0,0.0,0.0,-2.4382,-2.4917,-2.5705,-2.6827,-2.7428,-2.8318,-2.9567,-3.0022,-3.0759,-3.185,-3.2603,-3.3153,-3.3445,-3.4032,-3.4474,-3.4772,-3.6738,-3.8241,-3.9061,-3.6509,-3.5806,-3.6183,-3.4071,-3.3123,-3.3134,-3.4414,-3.4998,-3.5311,0.0,0.0,0.0,0.0,0.0,0.0,0.0,0.0,0.0,0.0,0.0,0.0,0.0,0.0,0.0,0.0,0.0,0.0,0.0,0.0,0.0,0.0,0.0,0.0,0.0,0.0,0.0,0.0,0.0,0.0,0.0,0.0,0.0,0.0,0.0,0.0,0.0,0.0,0.0,0.0,0.0,0.0,0.0,0.0,0.0,0.0,0.0,0.0,0.0,0.0,0.0,0.0,0.0,0.0,0.0,0.0,0.0,0.0,0.0,0.0,0.0,0.0,0.0,0.0,0.0,0.0,0.0,0.0,0.0,0.0,0.0,0.0,0.0,0.0,0.0,0.0,0.0,0.0,0.0,-2.0977,-2.2507,0.0,0.0,0.0,0.0,-2.3166,-2.4008,-2.5024,-2.6199,-2.6547,-2.7509,-2.9245,-2.9873,-3.0608,-3.1584,-3.2531,-3.2982,-3.2832,-3.3827,-3.4159,-3.3844,-3.4464,-3.5663,-3.7528,-3.9432,-4.1193,-4.2335,-3.9869,-3.8887,-3.8852,-3.7137,-3.5967,-3.5265,-3.5332,-3.5778,-3.6415,0.0,0.0,0.0,0.0,0.0,0.0,0.0,0.0,0.0,0.0,0.0,0.0,0.0,0.0,0.0,0.0,0.0,0.0,0.0,0.0,0.0,0.0,0.0,0.0,0.0,0.0,0.0,0.0,0.0,0.0,0.0,0.0,0.0,0.0,0.0,0.0,0.0,0.0,0.0,0.0,0.0,0.0,0.0,0.0,0.0,0.0,0.0,0.0,0.0,0.0,0.0,0.0,0.0,0.0,0.0,0.0,0.0,0.0,0.0,0.0,0.0,0.0,0.0,0.0,0.0,0.0,0.0,0.0,0.0,0.0,0.0,0.0,0.0,0.0,0.0,0.0,0.0,0.0,0.0,-2.3154,-2.4605,0.0,-2.3429,-2.3892,-2.4569,-2.5251,-2.6106,-2.7215,-2.8591,-2.9112,-2.9847,-3.0862,-3.1276,-3.1717,-3.2225,-3.2633,-3.3173,-3.3643,-3.4029,-3.434,-3.4784,-3.5955,-3.6869,-3.7743,-4.069,-4.244,-4.3166,-4.2999,-4.2418,-4.1523,-3.9824,-3.8789,-3.8262,-3.8255,-3.8564,-3.9061,0.0,0.0,0.0,0.0,0.0,0.0,0.0,0.0,0.0,0.0,0.0,0.0,0.0,0.0,0.0,0.0,0.0,0.0,0.0,0.0,0.0,0.0,0.0,0.0,0.0,0.0,0.0,0.0,0.0,0.0,0.0,0.0,0.0,0.0,0.0,0.0,0.0,0.0,0.0,0.0,0.0,0.0,-1.3701,0.0,0.0,0.0,0.0,0.0,0.0,0.0,0.0,0.0,0.0,0.0,0.0,0.0,0.0,0.0,0.0,0.0,0.0,0.0,0.0,0.0,0.0,0.0,0.0,0.0,0.0,0.0,0.0,0.0,0.0,0.0,0.0,0.0,0.0,0.0,-2.4666,-2.4246,-2.5916,-2.6594,-2.5197,-2.5892,-2.6747,-2.7522,-2.8297,-2.9259,-3.0448,-3.0969,-3.1463,-3.1957,-3.2158,-3.2345,-3.2643,-3.2639,-3.3127,-3.3796,-3.4102,-3.4789,-3.5971,-3.7133,-3.8332,-3.9664,-4.2031,-4.3505,-4.4435,-4.5145,-4.4785,-4.3555,-4.168,-4.0703,-4.033,-4.0117,-4.0151,-4.0431,0.0,0.0,0.0,0.0,0.0,0.0,0.0,0.0,0.0,0.0,0.0,0.0,0.0,0.0,0.0,0.0,0.0,0.0,0.0,0.0,0.0,0.0,0.0,0.0,0.0,0.0,0.0,0.0,0.0,0.0,0.0,0.0,0.0,0.0,0.0,0.0,0.0,0.0,0.0,0.0,0.0,0.0,-1.4195,0.0,0.0,0.0,0.0,0.0,0.0,0.0,0.0,0.0,0.0,0.0,0.0,0.0,0.0,0.0,0.0,0.0,0.0,0.0,0.0,0.0,0.0,0.0,0.0,0.0,0.0,0.0,0.0,0.0,0.0,0.0,0.0,0.0,-2.1754,-2.3983,-2.5208,-2.4125,-2.6532,-2.7869,-2.7014,-2.8243,-2.9339,-2.9913,-3.0488,-3.1076,-3.1664,-3.1957,-3.2251,-3.2629,-3.2643,-3.2643,-3.2643,-3.2839,-3.3121,-3.3311,-3.4101,-3.5444,-3.7336,-3.7897,-4.0108,-4.3389,-4.346,-4.4561,-4.6289,-4.6269,-4.5762,-4.4785,-4.2676,-4.1601,-4.1191,-4.069,-4.045,-4.0484,0.0,0.0,0.0,0.0,0.0,0.0,0.0,0.0,0.0,0.0,0.0,0.0,0.0,0.0,0.0,0.0,0.0,0.0,0.0,0.0,0.0,0.0,0.0,0.0,0.0,0.0,0.0,0.0,0.0,0.0,0.0,0.0,0.0,0.0,0.0,0.0,0.0,0.0,0.0,0.0,0.0,0.0,-1.4521,0.0,0.0,0.0,0.0,0.0,0.0,0.0,0.0,0.0,0.0,0.0,0.0,0.0,0.0,0.0,0.0,0.0,0.0,0.0,0.0,0.0,0.0,0.0,0.0,0.0,0.0,0.0,0.0,0.0,0.0,0.0,0.0,-2.3497,-2.3951,-2.526,-2.6543,-2.7608,-2.8708,-2.9419,-2.9392,-2.9953,-3.0461,-3.0835,-3.1209,-3.169,-3.2278,-3.2385,-3.2465,-3.2643,-3.2643,-3.2643,-3.2643,-3.2839,-3.3121,-3.3311,-3.4101,-3.5444,-3.7336,-3.8922,-4.1037,-4.346,-4.4629,-4.5387,-4.582,-4.5508,-4.5058,-4.4473,-4.3535,-4.2734,-4.1973,-4.1288,-4.094,-4.0935,0.0,0.0,0.0,0.0,0.0,0.0,0.0,0.0,0.0,0.0,0.0,0.0,0.0,0.0,0.0,0.0,0.0,0.0,0.0,0.0,0.0,0.0,0.0,0.0,0.0,0.0,0.0,0.0,0.0,0.0,0.0,0.0,0.0,0.0,0.0,0.0,0.0,0.0,0.0,0.0,0.0,0.0,-1.5125,-1.4461,-1.4469,-1.4796,-1.4888,-1.524,-1.5578,-1.5192,0.0,0.0,0.0,0.0,0.0,0.0,0.0,0.0,0.0,0.0,0.0,0.0,0.0,0.0,0.0,0.0,0.0,0.0,0.0,0.0,0.0,0.0,0.0,0.0,-2.4009,-2.4989,-2.5892,-2.6627,-2.7554,-2.8933,-2.9534,-3.0127,-3.0675,-3.0982,-3.1236,-3.1396,-3.1917,-3.2318,-3.2629,-3.2772,-3.2799,-3.2656,-3.2643,-3.2522,-3.2281,-3.2465,-3.3283,-3.4727,-3.5237,-3.7104,-4.0109,-4.1279,-4.273,0.0,-4.5329,-4.5469,-4.5137,-4.5058,-4.4668,0.0,0.0,0.0,0.0,0.0,-4.1103,-4.1056,0.0,0.0,0.0,0.0,0.0,0.0,0.0,0.0,0.0,0.0,0.0,0.0,0.0,0.0,0.0,0.0,0.0,0.0,0.0,0.0,0.0,0.0,0.0,0.0,0.0,0.0,0.0,0.0,0.0,0.0,0.0,0.0,0.0,0.0,0.0,0.0,0.0,0.0,0.0,0.0,0.0,0.0,-1.5793,-1.5097,-1.5308,-1.6009,-1.5993,-1.6062,-1.6111,-1.5989,0.0,0.0,0.0,0.0,0.0,0.0,0.0,0.0,0.0,0.0,0.0,0.0,0.0,0.0,0.0,0.0,0.0,0.0,0.0,0.0,0.0,0.0,0.0,0.0,-2.5314,-2.6224,-2.7532,-2.785,-2.8219,-2.8951,-2.9633,-3.0341,-3.1142,-3.149,-3.1677,-3.1717,-3.2438,-3.2786,-3.2656,0.0,0.0,0.0,0.0,-3.2225,-3.1677,-3.2053,-3.3583,-3.6445,-3.6875,-3.9352,-4.3668,-4.3776,-4.4459,-4.5605,-4.5605,-4.5156,-4.4433,-4.4805,-4.4414,-4.3476,-4.2715,-4.2344,-4.219,-4.1347,-4.1063,-4.1015,0.0,0.0,0.0,0.0,0.0,0.0,0.0,0.0,0.0,0.0,0.0,0.0,0.0,0.0,0.0,0.0,0.0,0.0,0.0,0.0,0.0,0.0,0.0,0.0,0.0,0.0,0.0,0.0,0.0,0.0,0.0,0.0,0.0,0.0,0.0,0.0,0.0,0.0,0.0,0.0,0.0,0.0,-1.5873,-1.5715,-1.5897,-1.6265,-1.6534,-1.7042,-1.7516,-1.7074,-1.7863,-1.8927,-1.8272,0.0,0.0,0.0,0.0,0.0,0.0,0.0,0.0,0.0,0.0,0.0,0.0,0.0,0.0,0.0,0.0,0.0,0.0,0.0,0.0,-2.524,-2.5782,-2.6539,-2.8318,-2.8327,-2.8493,-2.9285,-3.0127,-3.0782,-3.1183,-3.149,-3.177,-3.1998,-3.2171,-3.2358,-3.2629,-3.2652,-3.2545,-3.2198,-3.2185,-3.2024,-3.1677,-3.2436,-3.3661,-3.5521,0.0,0.0,-4.2367,-4.2846,-4.3765,-4.5156,-4.5156,-4.4863,-4.4414,-4.4492,-4.3789,-4.2656,-4.25,-4.1955,-4.1379,-4.1499,-4.1326,-4.1056,0.0,0.0,0.0,0.0,0.0,0.0,0.0,0.0,0.0,0.0,0.0,0.0,0.0,0.0,0.0,0.0,0.0,0.0,0.0,0.0,0.0,0.0,0.0,0.0,0.0,0.0,0.0,0.0,0.0,0.0,0.0,0.0,0.0,0.0,0.0,0.0,0.0,0.0,0.0,0.0,0.0,0.0,-1.6736,-1.6596,-1.6703,-1.7003,-1.745,-1.8279,-1.912,-1.8865,-1.9749,-2.0916,-2.0673,-2.1246,-2.1993,0.0,0.0,0.0,0.0,0.0,0.0,0.0,0.0,0.0,0.0,0.0,0.0,0.0,0.0,-2.1979,0.0,0.0,-2.4585,-2.6469,-2.6627,-2.7021,-2.8605,-2.8659,-2.8871,-2.9606,-3.0087,-3.0528,-3.0969,-3.141,-3.1664,-3.1664,-3.2078,-3.2318,-3.2318,-3.2465,-3.2412,-3.2118,-3.2104,-3.1957,-3.1677,-3.3289,-3.5128,-3.716,-3.8811,-4.1174,-4.3853,-4.3925,-4.4224,-4.4707,-4.4707,-4.4336,-4.3711,-4.3281,-4.2578,-4.1797,-4.1797,-4.1366,-4.0762,-4.0993,-4.0861,-4.0729,0.0,0.0,0.0,0.0,0.0,0.0,0.0,0.0,0.0,0.0,0.0,0.0,0.0,0.0,0.0,0.0,0.0,0.0,0.0,0.0,0.0,0.0,0.0,0.0,0.0,0.0,0.0,0.0,0.0,0.0,0.0,0.0,0.0,0.0,0.0,0.0,0.0,0.0,0.0,0.0,0.0,0.0,-1.7733,-1.7448,-1.7515,-1.7792,-1.8468,-1.9329,-2.0155,-2.0491,-2.1356,-2.2388,-2.2843,-2.3271,-2.3458,-2.2912,-2.342,0.0,0.0,0.0,0.0,0.0,0.0,0.0,0.0,0.0,-2.2198,-2.2048,-2.2527,-2.3354,-2.454,-2.4861,-2.5598,-2.7364,-2.7273,-2.7377,-2.8574,-2.8775,-2.9098,-2.9753,-2.9927,-3.0194,-3.0662,-3.1236,-3.149,-3.1249,-3.1944,-3.2265,-3.2024,-3.2251,-3.2265,-3.2024,-3.2024,-3.2095,-3.2232,-3.442,-3.6883,-3.963,-4.1337,-4.336,-4.5527,-4.5098,-4.4668,-4.4258,-4.418,-4.3691,-4.2891,-4.2109,-4.1504,-4.1035,-4.1034,-4.0811,-4.0435,-4.0472,-4.0468,-4.0453,0.0,0.0,0.0,0.0,0.0,0.0,0.0,0.0,0.0,0.0,0.0,0.0,0.0,0.0,0.0,0.0,0.0,0.0,0.0,0.0,0.0,0.0,0.0,0.0,0.0,0.0,0.0,0.0,0.0,0.0,0.0,0.0,0.0,0.0,0.0,0.0,0.0,0.0,0.0,0.0,0.0,0.0,-1.8294,-1.7978,-1.7901,-1.8104,-1.9181,-1.9488,-1.9575,-2.1132,-2.2303,-2.3289,-2.3873,-2.4509,-2.5042,-2.4666,0.0,-2.2844,-2.1828,-2.138,-2.1384,-2.2259,-2.2568,-2.2874,0.0,0.0,-2.3707,-2.3773,-2.4122,-2.4569,-2.5286,-2.5327,-2.5688,-2.699,-2.6966,-2.7269,-2.8475,-2.8462,-2.8564,-2.9432,-2.9993,-3.0341,-3.0408,-3.0929,-3.1263,-3.1223,-3.1557,-3.1757,-3.1717,-3.1744,-3.1757,-3.1717,-3.1717,-3.253,-3.4248,-3.5446,-3.7911,-4.1546,-4.2349,-4.351,-4.5078,-4.4668,-4.4219,-4.3769,-4.3379,-4.2949,-4.2461,-4.1992,-4.1328,-4.0547,-4.0535,-4.0455,-4.0425,-4.0787,-4.0898,-4.0811,0.0,0.0,0.0,0.0,0.0,0.0,0.0,0.0,0.0,0.0,0.0,0.0,0.0,0.0,0.0,0.0,0.0,0.0,0.0,0.0,0.0,0.0,0.0,0.0,0.0,0.0,0.0,0.0,0.0,0.0,0.0,0.0,0.0,0.0,0.0,0.0,0.0,0.0,0.0,0.0,0.0,0.0,-1.9246,-1.9304,-1.9234,-1.9036,-1.9005,-1.9923,0.0,0.0,-2.2892,-2.4079,-2.4587,-2.4884,-2.4904,-2.4244,-2.3859,0.0,-2.2809,-2.2642,0.0,0.0,-2.3871,-2.4641,-2.4989,-2.566,-2.6035,-2.5459,-2.6267,-2.6924,-2.6437,-2.6474,-2.6739,0.0,-2.7385,-2.7486,-2.8444,-2.8337,-2.835,-2.8911,-2.9339,-2.9659,-2.9833,-3.0381,-3.0795,-3.0969,-3.1249,-3.149,-3.1664,-3.1664,-3.1664,-3.1664,-3.3041,-3.4139,-3.4966,-3.8262,-4.0614,-4.1942,-4.3441,-4.4271,-4.4648,-4.4199,-4.375,-4.334,-4.3418,-4.291,-4.2031,-4.1601,-4.1074,-4.0449,-4.0215,-4.019,-4.0451,-4.0537,-4.0709,-4.0882,0.0,0.0,0.0,0.0,0.0,0.0,0.0,0.0,0.0,0.0,0.0,0.0,0.0,0.0,0.0,0.0,0.0,0.0,0.0,0.0,0.0,0.0,0.0,0.0,0.0,0.0,0.0,0.0,0.0,0.0,0.0,0.0,0.0,0.0,0.0,0.0,0.0,0.0,0.0,0.0,0.0,0.0,-2.0918,-2.0837,-2.0746,-2.0487,-1.9614,-2.0508,0.0,0.0,-2.2858,-2.3831,-2.4226,-2.427,-2.417,-2.3645,-2.3651,-2.3722,-2.3153,0.0,0.0,-2.4115,-2.5292,-2.6338,-2.6158,-2.7411,-2.8216,-2.7212,-2.8344,-2.9302,-2.8429,-2.8291,-2.8311,-2.8281,-2.8095,-2.8053,-2.8288,-2.8163,-2.8136,-2.8444,-2.8591,-2.8818,-2.9205,-2.9927,-3.0474,-3.0768,-3.1062,-3.1356,-3.165,-3.1664,-3.1948,-3.2502,-3.4327,-3.5788,-3.6899,-4.0718,-4.2708,-4.2872,-4.4339,-4.4805,-4.4375,-4.3926,-4.3476,-4.3086,-4.3144,-4.2519,-4.1406,-4.0859,-4.0447,-4.0148,-3.9889,-3.9998,-4.0375,-4.0432,-4.0668,-4.0882,0.0,0.0,0.0,0.0,0.0,0.0,0.0,0.0,0.0,0.0,0.0,0.0,0.0,0.0,0.0,0.0,0.0,0.0,0.0,0.0,0.0,0.0,0.0,0.0,0.0,0.0,0.0,0.0,0.0,0.0,0.0,0.0,0.0,0.0,0.0,0.0,0.0,0.0,0.0,0.0,0.0,0.0,-2.3579,-2.2474,-2.2333,-2.2562,-2.1632,0.0,0.0,0.0,-2.1989,-2.1932,-2.2289,-2.2638,0.0,-2.3389,-2.3178,0.0,0.0,0.0,-2.3956,-2.5052,-2.6439,-2.757,-2.7579,-2.8956,-3.0105,-2.9241,-3.0343,-3.142,-3.1367,-3.1084,-3.0392,-2.9059,-2.9045,-2.8798,-2.7837,-2.7722,-2.7829,-2.8207,-2.7909,-2.7976,0.0,-2.9686,-3.0474,-3.0768,-3.1062,-3.1356,-3.165,-3.1664,-3.2597,-3.4435,-3.5059,-3.7175,-4.095,-4.2102,-4.3365,-4.4885,-4.4978,-4.4805,-4.4375,-4.3926,-4.3476,-4.3027,-4.2207,-4.1367,-4.0488,-3.9629,-3.9244,-3.9308,-3.961,-3.995,-4.033,-4.074,-4.0882,-4.0882,0.0,0.0,0.0,0.0,0.0,0.0,0.0,0.0,0.0,0.0,0.0,0.0,0.0,0.0,0.0,0.0,0.0,0.0,0.0,0.0,0.0,0.0,0.0,0.0,0.0,0.0,0.0,0.0,0.0,0.0,0.0,0.0,0.0,0.0,0.0,0.0,0.0,0.0,0.0,0.0,0.0,0.0,-2.4298,-2.3289,-2.2695,-2.2325,0.0,0.0,0.0,0.0,0.0,-2.1198,-2.1652,0.0,0.0,-2.2584,-2.284,-2.3108,0.0,0.0,-2.5691,-2.6636,-2.835,-2.9959,-3.0452,-3.2057,-3.3028,-3.1686,-3.1542,-3.1304,-3.0035,-3.0068,-3.0161,-2.9633,-3.0783,-3.1176,-2.9563,-2.9587,-2.9201,-2.7754,-2.8003,0.0,0.0,0.0,0.0,-3.0728,-3.0889,-3.1702,-3.3483,-3.3605,-3.4715,-3.7007,-3.8719,-4.0344,-4.1728,-4.3708,-4.4626,-4.457,-4.4291,-4.3926,-4.3516,-4.3359,-4.2754,-4.1816,-4.1797,-4.1152,-4.0078,-3.9785,-3.9794,-3.9969,-3.981,-4.0133,-4.077,-4.0533,-4.0448,-4.0448,0.0,0.0,0.0,0.0,0.0,0.0,0.0,0.0,0.0,0.0,0.0,0.0,0.0,0.0,0.0,0.0,0.0,0.0,0.0,0.0,0.0,0.0,0.0,0.0,0.0,0.0,0.0,0.0,0.0,0.0,0.0,0.0,0.0,0.0,0.0,0.0,0.0,0.0,0.0,0.0,0.0,0.0,-2.5106,-2.4071,-2.3204,0.0,0.0,0.0,0.0,0.0,0.0,0.0,0.0,-2.1404,-2.1961,-2.2199,-2.3021,-2.3952,0.0,-2.6081,-2.754,-2.8377,-3.0157,-3.1744,-3.2138,-3.3423,-3.4194,-3.2716,-3.2364,-3.1921,-3.0534,-3.0526,-3.0507,-2.9983,-3.0999,-3.1577,-3.0654,-3.0656,-3.0145,-2.8769,-2.9077,0.0,0.0,0.0,0.0,-3.0807,-3.0889,-3.1981,-3.4499,-3.4622,-3.6081,-3.9209,-4.0884,-4.2137,-4.3066,-4.4626,-4.5098,-4.4394,-4.3769,-4.3262,-4.2832,-4.2695,-4.2012,-4.0957,-4.1074,-4.0566,-3.9629,-3.9492,-3.9711,-4.0151,-3.979,-4.0083,-4.0648,-4.0306,-4.0116,-3.9992,0.0,0.0,0.0,0.0,0.0,0.0,0.0,0.0,0.0,0.0,0.0,0.0,0.0,0.0,0.0,0.0,0.0,0.0,0.0,0.0,0.0,0.0,0.0,0.0,0.0,0.0,0.0,0.0,0.0,0.0,0.0,0.0,0.0,0.0,0.0,0.0,0.0,0.0,0.0,0.0,0.0,0.0,-2.5943,-2.482,0.0,0.0,0.0,0.0,0.0,0.0,0.0,0.0,0.0,0.0,-2.2382,-2.2474,-2.3709,-2.518,-2.5677,-2.7513,-2.9451,-3.0212,-3.1699,-3.2889,-3.2501,-3.3341,-3.3754,-3.2562,-3.2791,-3.3125,0.0,0.0,-3.1275,-3.0194,-3.0105,-3.0459,-3.1165,-3.1064,-3.0888,0.0,0.0,0.0,0.0,0.0,0.0,-3.1202,0.0,-3.2426,-3.4764,-3.4872,-3.6883,-4.1169,-4.1444,-4.259,-4.4914,-4.4919,-4.4746,-4.4316,-4.3457,-4.2812,-4.2344,-4.1933,-4.1269,-4.043,-4.0039,-3.959,-3.9141,-3.875,-3.8991,-3.9674,-3.9674,-3.9841,-4.0158,-4.0158,-3.9798,-3.9406,0.0,0.0,0.0,0.0,0.0,0.0,0.0,0.0,0.0,0.0,0.0,0.0,0.0,0.0,0.0,0.0,0.0,0.0,0.0,0.0,0.0,0.0,0.0,0.0,0.0,0.0,0.0,0.0,0.0,0.0,0.0,0.0,0.0,0.0,0.0,0.0,0.0,0.0,0.0,0.0,0.0,0.0,-2.5654,0.0,0.0,0.0,0.0,0.0,0.0,0.0,0.0,0.0,0.0,0.0,-2.3865,-2.4814,0.0,-2.6658,-2.8183,-2.9313,-3.0319,-3.1593,-3.3014,-3.3984,-3.3303,-3.3794,-3.4041,-3.2835,-3.1758,-3.0898,0.0,0.0,0.0,-3.1206,-3.313,0.0,-3.3956,-3.4765,0.0,0.0,0.0,-3.2597,-3.3558,-3.3441,0.0,0.0,-3.5303,-3.6165,-3.8416,-3.8901,-4.0307,-4.2876,-4.3304,-4.389,-4.4557,-4.4194,-4.3828,-4.3418,-4.2851,-4.2207,-4.1484,-4.1055,-4.0371,-3.9531,-3.9434,-3.9141,-3.873,-3.8613,-3.8885,-3.9231,-3.9231,-3.9464,-3.9661,-3.9261,-3.8916,-3.8523,0.0,0.0,0.0,0.0,0.0,0.0,0.0,0.0,0.0,0.0,0.0,0.0,0.0,0.0,0.0,0.0,0.0,0.0,0.0,0.0,0.0,0.0,0.0,0.0,0.0,0.0,0.0,0.0,0.0,0.0,0.0,0.0,0.0,0.0,0.0,0.0,0.0,0.0,0.0,0.0,0.0,0.0,0.0,0.0,0.0,0.0,0.0,0.0,0.0,0.0,0.0,-2.2657,-2.345,-2.443,-2.5412,-2.631,0.0,-2.8517,-2.9794,-3.112,-3.2365,-3.3187,-3.4334,-3.4929,-3.3773,-3.3737,-3.3558,-3.2117,-3.0797,0.0,0.0,0.0,0.0,0.0,0.0,0.0,-3.5551,-3.642,-3.6702,0.0,-3.5521,0.0,-3.531,-3.5952,-3.6919,0.0,-3.7456,-3.7818,-3.9843,-4.0307,-4.1566,-4.3547,-4.3889,-4.4025,-4.4101,-4.3652,-4.3301,-4.3066,-4.2441,-4.1699,-4.0879,-4.0449,-3.9766,-3.8926,0.0,-3.8935,-3.8865,-3.8668,-3.8863,-3.9333,-3.9151,-3.9032,-3.8916,-3.8647,-3.815,-3.757,0.0,0.0,0.0,0.0,0.0,0.0,0.0,0.0,0.0,0.0,0.0,0.0,0.0,0.0,0.0,0.0,0.0,0.0,0.0,0.0,0.0,0.0,0.0,0.0,0.0,0.0,0.0,0.0,0.0,0.0,0.0,0.0,0.0,0.0,0.0,0.0,0.0,0.0,0.0,0.0,0.0,0.0,0.0,0.0,0.0,0.0,0.0,0.0,0.0,0.0,-2.3432,-2.4003,-2.4911,-2.6135,-2.7287,-2.7712,-2.9161,-3.071,-3.1188,-3.2944,-3.4719,-3.4788,-3.5468,-3.5686,-3.396,-3.3294,-3.2572,-3.0863,0.0,0.0,-2.8906,0.0,-2.9413,-3.043,0.0,-3.3237,-3.6494,-3.7081,-3.7433,-3.8139,-3.8495,-3.8093,-3.6459,-3.8506,-4.0005,-4.0309,-3.9124,-3.8902,-4.0238,-4.0718,-4.1825,-4.3472,-4.3618,-4.3568,-4.3535,-4.3164,-4.293,-4.2812,-4.2012,-4.1172,-4.0332,-3.9902,-3.9297,-3.8574,0.0,0.0,-3.9057,-3.862,-3.8808,-3.9412,-3.9044,-3.8555,-3.8088,-3.8088,-3.7508,-3.6722,0.0,0.0,0.0,0.0,0.0,0.0,0.0,0.0,0.0,0.0,-3.9585,0.0,0.0,0.0,0.0,0.0,0.0,0.0,0.0,0.0,0.0,0.0,0.0,0.0,0.0,0.0,0.0,0.0,0.0,0.0,0.0,0.0,0.0,0.0,0.0,0.0,0.0,0.0,0.0,0.0,0.0,0.0,0.0,0.0,0.0,0.0,0.0,0.0,0.0,0.0,-2.4972,-2.5775,-2.6924,-2.8742,-3.0488,-3.0573,-3.1806,-3.3219,-3.3809,-3.4586,-3.5271,-3.5761,-3.5995,-3.5583,-3.3491,-3.2583,0.0,0.0,0.0,-2.8496,-2.8418,-2.8768,0.0,-3.1205,0.0,0.0,0.0,0.0,-3.9175,0.0,0.0,0.0,0.0,0.0,0.0,0.0,0.0,-4.2414,-4.2344,-4.2873,-4.3193,-4.3191,-4.3176,-4.3004,-4.2656,-4.2578,-4.2187,-4.1504,-4.0996,-4.0273,-3.9414,-3.9004,-3.8711,-3.8555,-3.8203,0.0,-3.8601,-3.8074,-3.8167,-3.8534,-3.8453,-3.8083,-3.7612,-3.7612,-3.7032,-3.6287,0.0,0.0,0.0,0.0,0.0,0.0,0.0,0.0,0.0,0.0,-4.2602,-4.1801,0.0,0.0,0.0,0.0,0.0,0.0,0.0,0.0,0.0,0.0,0.0,0.0,0.0,0.0,0.0,0.0,0.0,0.0,0.0,0.0,0.0,0.0,0.0,0.0,0.0,0.0,0.0,0.0,0.0,0.0,0.0,0.0,0.0,0.0,0.0,0.0,0.0,0.0,-2.5779,-2.7153,-2.8806,-3.0754,-3.249,-3.2768,-3.3964,-3.5257,-3.5587,-3.6369,-3.708,-3.6882,-3.666,-3.5748,-3.2967,0.0,0.0,0.0,0.0,-2.8301,-2.8301,0.0,0.0,0.0,0.0,0.0,0.0,0.0,0.0,0.0,0.0,0.0,0.0,0.0,0.0,0.0,0.0,-4.3176,-4.2969,-4.3251,-4.3317,-4.3105,-4.3086,-4.2871,-4.2422,-4.1992,-4.1562,-4.1172,-4.0508,-3.9844,-3.9199,-3.8984,-3.8652,-3.8223,-3.8008,0.0,-3.8407,-3.7967,-3.8061,-3.8562,-3.8315,-3.781,-3.7136,-3.7136,-3.6556,-3.579,0.0,0.0,0.0,0.0,0.0,0.0,0.0,-4.2633,-4.331,-4.4633,-4.5249,-4.5003,-4.3433,-4.2017,-4.0847,0.0,0.0,0.0,0.0,0.0,0.0,0.0,0.0,0.0,0.0,0.0,0.0,0.0,0.0,0.0,0.0,0.0,0.0,0.0,0.0,0.0,0.0,0.0,0.0,0.0,0.0,0.0,0.0,0.0,0.0,0.0,0.0,0.0,0.0,0.0,-2.6162,-2.8014,-3.0052,-3.2095,-3.3753,-3.3953,-3.5399,-3.6856,-3.6924,-3.7936,-3.8703,-3.786,-3.7218,-3.5995,-3.2827,-3.164,0.0,0.0,-2.8354,-2.8301,-2.8301,0.0,0.0,0.0,0.0,0.0,0.0,0.0,0.0,0.0,0.0,0.0,0.0,0.0,0.0,0.0,0.0,0.0,-4.3128,-4.3241,-4.3147,-4.2949,-4.2851,-4.2558,-4.2031,-4.1269,-4.084,-4.0742,-4.0078,-3.9512,-3.9062,-3.9062,-3.8725,-3.8001,-3.7903,0.0,0.0,-3.7831,-3.8078,-3.8667,-3.8212,-3.7529,-3.6784,-3.6701,-3.6121,-3.5418,0.0,0.0,0.0,0.0,0.0,0.0,0.0,-4.2725,-4.3994,-4.5311,-4.5557,-4.5526,-4.5341,-4.4148,-4.2823,0.0,0.0,0.0,0.0,0.0,0.0,0.0,0.0,0.0,0.0,0.0,0.0,0.0,0.0,0.0,0.0,0.0,0.0,0.0,0.0,0.0,0.0,0.0,0.0,0.0,0.0,0.0,0.0,0.0,0.0,0.0,0.0,0.0,0.0,0.0,0.0,-2.7781,-2.9893,-3.2296,-3.4226,-3.3434,0.0,0.0,-3.8037,-3.8745,-3.9247,-3.8357,-3.7446,-3.612,-3.351,0.0,0.0,0.0,-2.8461,-2.8301,-2.8301,-2.8359,0.0,0.0,0.0,0.0,0.0,0.0,0.0,0.0,0.0,0.0,0.0,0.0,0.0,0.0,0.0,0.0,-4.3584,-4.3648,-4.3258,-4.2519,-4.2109,-4.1523,-4.0703,-4.0234,-3.9805,-3.9375,-3.9297,-3.9043,-3.8633,-3.8633,-3.8596,-3.843,-3.8015,0.0,0.0,-3.7793,-3.7898,-3.8191,-3.7736,-3.7239,-3.6763,-3.6328,-3.5852,-3.5418,0.0,0.0,0.0,0.0,0.0,0.0,0.0,-4.2386,-4.3771,-4.5926,-4.6542,-4.6788,-4.6788,-4.5957,-4.4356,0.0,0.0,0.0,0.0,0.0,0.0,0.0,0.0,0.0,0.0,0.0,0.0,0.0,0.0,0.0,0.0,0.0,0.0,0.0,0.0,0.0,0.0,0.0,0.0,0.0,0.0,0.0,0.0,0.0,0.0,0.0,0.0,0.0,0.0,0.0,0.0,0.0,-2.832,-3.0452,0.0,0.0,-3.6093,-3.7591,-3.8709,-3.9454,-3.9702,-3.8812,-3.7488,-3.5727,-3.3272,0.0,0.0,-2.8725,-2.8354,-2.8301,-2.8301,-2.8301,-2.8529,0.0,0.0,0.0,0.0,0.0,0.0,0.0,0.0,0.0,0.0,0.0,0.0,0.0,0.0,0.0,-4.332,-4.3086,-4.2539,-4.1699,-4.1504,-4.1016,-4.0156,-3.9707,-3.9394,-3.9199,-3.8945,-3.873,-3.8574,-3.8518,-3.8398,-3.8105,-3.7858,0.0,0.0,-3.8211,-3.8109,-3.7781,-3.8124,-3.7466,-3.6412,-3.7021,-3.6948,-3.6542,0.0,0.0,0.0,0.0,0.0,0.0,-4.1032,-4.1863,-4.3187,-4.568,-4.6573,-4.7096,-4.7281,-4.6696,-4.528,-4.2694,0.0,0.0,0.0,0.0,0.0,0.0,0.0,0.0,0.0,0.0,0.0,0.0,0.0,0.0,0.0,0.0,0.0,0.0,0.0,0.0,0.0,0.0,0.0,0.0,0.0,0.0,0.0,0.0,0.0,0.0,0.0,0.0,0.0,0.0,0.0,0.0,0.0,0.0,0.0,0.0,-3.55,-3.6908,-3.8336,-3.9351,-3.9806,-3.8972,-3.7298,-3.5252,0.0,0.0,-2.9405,-2.8486,-2.8301,-2.8301,-2.8301,-2.8301,-2.8388,0.0,0.0,0.0,0.0,0.0,0.0,0.0,0.0,0.0,0.0,0.0,0.0,0.0,0.0,0.0,0.0,-4.2168,-4.166,-4.1191,-4.0937,-4.0449,-3.9707,-3.9238,-3.9004,-3.9004,-3.8711,-3.8588,-3.8596,-3.8517,-3.8275,-3.7997,0.0,0.0,0.0,-3.9412,-3.9324,-3.868,-3.9114,-3.8466,-3.731,-3.806,-3.8138,-3.785,0.0,0.0,0.0,0.0,0.0,0.0,0.0,-4.1155,-4.2325,-4.4363,-4.5187,-4.5865,-4.6542,-4.5988,-4.5311,-4.4641,0.0,0.0,0.0,0.0,0.0,0.0,0.0,0.0,0.0,0.0,0.0,-3.266,-3.1967,0.0,0.0,0.0,0.0,0.0,0.0,0.0,0.0,0.0,0.0,0.0,0.0,0.0,0.0,0.0,0.0,0.0,0.0,0.0,0.0,0.0,0.0,0.0,0.0,0.0,0.0,0.0,-3.3285,-3.6225,-3.6701,-3.815,-3.9364,-3.8889,-3.6876,-3.4718,0.0,0.0,-2.9169,-2.8432,-2.8301,-2.8301,-2.8301,-2.8301,-2.8194,-2.7979,0.0,0.0,0.0,0.0,0.0,0.0,0.0,0.0,0.0,0.0,0.0,0.0,0.0,0.0,0.0,-4.0996,-4.0742,-4.1172,-4.0351,-3.9687,-3.9219,-3.8789,-3.8574,-3.8574,-3.8574,-3.8577,-3.8521,-3.8521,-3.8397,0.0,0.0,0.0,0.0,-4.1629,-4.184,-4.1273,-4.0831,-4.0349,-3.9808,-3.9364,-3.9157,-3.9157,0.0,0.0,0.0,0.0,0.0,0.0,0.0,-3.9431,-4.0755,-4.2325,-4.3125,-4.4141,-4.5741,-4.5311,-4.4856,-4.4641,0.0,0.0,0.0,0.0,0.0,0.0,0.0,0.0,0.0,0.0,-3.3527,-3.3527,-3.259,-3.2095,-3.1971,0.0,0.0,0.0,0.0,0.0,0.0,0.0,0.0,0.0,0.0,0.0,0.0,0.0,0.0,0.0,0.0,0.0,0.0,0.0,0.0,0.0,0.0,0.0,0.0,0.0,0.0,0.0,-3.4718,-3.5518,-3.5908,-3.5765,-3.4431,-3.2883,-3.183,-3.0167,-2.8779,-2.8374,-2.8301,-2.8301,-2.8301,-2.8301,-2.8574,-2.9342,-2.9711,0.0,0.0,0.0,0.0,0.0,0.0,0.0,0.0,0.0,0.0,0.0,0.0,0.0,0.0,-4.0254,-3.9824,-4.0293,-3.9726,-3.9219,-3.8769,-3.8633,-3.8574,-3.8574,-3.857,-3.8497,-3.8501,-3.8377,0.0,0.0,0.0,0.0,0.0,-4.1696,-4.1322,-4.041,-4.0834,-4.0376,-3.9505,-4.0223,-4.05,-4.0453,0.0,0.0,0.0,0.0,0.0,0.0,0.0,-3.8231,-3.9247,-4.0632,-4.1401,-4.2509,-4.4264,-4.4295,-4.4332,-4.4579,0.0,0.0,0.0,0.0,0.0,0.0,0.0,0.0,0.0,-3.4005,-3.4068,-3.431,-3.3504,-3.292,-3.2536,-3.1301,-3.0045,0.0,0.0,0.0,0.0,0.0,0.0,0.0,0.0,0.0,-2.6235,0.0,0.0,0.0,0.0,0.0,0.0,0.0,0.0,0.0,0.0,0.0,0.0,0.0,0.0,0.0,0.0,-3.3496,-3.3882,-3.3882,-3.2885,0.0,0.0,-2.9714,-2.8621,-2.8354,-2.8301,-2.8301,-2.8301,-2.8301,-2.8555,-2.9355,-2.9746,0.0,0.0,0.0,0.0,0.0,0.0,0.0,0.0,0.0,0.0,0.0,0.0,0.0,0.0,-3.959,-3.9101,-3.9394,-3.8965,-3.8516,-3.8105,-3.8086,-3.8158,-3.8302,-3.826,-3.8326,-3.8427,-3.8877,0.0,0.0,0.0,0.0,0.0,-4.2565,-4.2262,-4.1435,-4.1938,-4.1499,-4.0731,-4.1282,-4.1492,-4.1418,0.0,0.0,0.0,0.0,0.0,0.0,0.0,0.0,0.0,0.0,-3.9982,-4.0935,-4.2325,-4.3033,-4.3747,0.0,0.0,0.0,0.0,0.0,0.0,0.0,0.0,0.0,0.0,-3.4353,-3.4405,-3.5015,-3.4487,-3.3897,-3.3167,-3.2491,-3.1204,-2.9462,-2.8969,0.0,0.0,0.0,0.0,0.0,0.0,0.0,0.0,0.0,0.0,0.0,0.0,0.0,0.0,0.0,0.0,0.0,0.0,0.0,0.0,0.0,0.0,0.0,0.0,0.0,0.0,0.0,0.0,0.0,0.0,-2.96,0.0,-2.8354,-2.8301,-2.8301,-2.834,-2.832,-2.834,-2.8457,-2.9141,0.0,0.0,0.0,0.0,0.0,0.0,0.0,0.0,0.0,0.0,0.0,0.0,0.0,0.0,-3.8984,-3.8496,-3.8437,-3.8047,-3.7656,-3.7305,-3.7305,-3.7445,-3.7777,-3.7897,-3.8145,-3.8494,-3.9763,0.0,0.0,0.0,0.0,0.0,-4.397,-4.4192,-4.3689,-4.3689,-4.3338,-4.2811,-4.2338,-4.2162,-4.2062,0.0,0.0,0.0,0.0,0.0,0.0,0.0,0.0,0.0,0.0,-3.9,-4.0043,-4.0874,-4.1648,-4.2504,0.0,0.0,0.0,0.0,0.0,0.0,0.0,0.0,0.0,0.0,-3.4559,-3.4627,-3.5231,-3.4974,-3.4295,-3.3134,-3.2842,-3.1569,-2.9434,-2.9302,0.0,0.0,0.0,0.0,0.0,0.0,0.0,0.0,0.0,0.0,0.0,-2.7119,-2.7325,0.0,0.0,0.0,0.0,0.0,0.0,0.0,0.0,-2.8094,-2.8107,-2.879,0.0,-2.9749,0.0,0.0,0.0,0.0,0.0,0.0,0.0,0.0,0.0,0.0,-2.8516,-2.873,-3.0059,-3.0449,0.0,0.0,0.0,0.0,0.0,0.0,0.0,0.0,0.0,0.0,0.0,0.0,0.0,0.0,-3.8379,-3.7773,-3.7148,-3.7012,-3.707,-3.7305,-3.7305,-3.7445,-3.7777,-3.8849,-3.9483,-3.9872,-4.0751,0.0,0.0,0.0,0.0,-4.3482,-4.3425,-4.3037,-4.259,-4.259,-4.2208,-4.1652,-4.158,-4.153,-4.1455,0.0,0.0,0.0,0.0,0.0,0.0,0.0,0.0,0.0,0.0,0.0,0.0,0.0,0.0,0.0,0.0,0.0,0.0,0.0,0.0,0.0,0.0,0.0,0.0,-3.4771,-3.4522,-3.4816,-3.5678,-3.551,-3.4756,-3.3525,-3.3315,-3.1748,-2.9063,-2.8609,-2.8137,0.0,0.0,0.0,0.0,-2.7309,0.0,0.0,0.0,0.0,0.0,-2.7167,-2.7359,0.0,-2.758,-2.7693,-2.795,0.0,0.0,0.0,0.0,-2.8125,-2.8203,-2.8047,-2.8408,-2.881,-2.881,-2.8917,-2.8917,0.0,0.0,0.0,0.0,0.0,0.0,0.0,0.0,0.0,0.0,0.0,0.0,0.0,0.0,0.0,0.0,0.0,0.0,0.0,0.0,0.0,0.0,0.0,0.0,0.0,-3.7695,-3.7148,-3.668,-3.6671,-3.674,-3.6956,-3.6907,-3.7508,-3.8718,-3.939,-4.0126,-4.0839,-4.1844,-4.2465,0.0,0.0,0.0,-4.3011,-4.2766,-4.2283,-4.1781,-4.1781,-4.1605,-4.125,-4.1,-4.0899,-4.0824,0.0,0.0,0.0,0.0,0.0,0.0,0.0,0.0,0.0,0.0,0.0,0.0,0.0,0.0,0.0,0.0,0.0,0.0,0.0,0.0,0.0,0.0,0.0,-3.4476,-3.4397,-3.4397,-3.492,-3.5922,-3.6015,-3.5314,-3.3935,-3.3957,-3.2111,-2.8851,-2.7973,-2.7537,0.0,0.0,0.0,0.0,-2.7228,0.0,0.0,0.0,0.0,0.0,0.0,0.0,0.0,-2.7252,-2.7578,-2.8009,-2.8035,0.0,0.0,0.0,0.0,0.0,-2.7904,-2.8379,-2.9062,-2.8867,-2.905,-2.9253,0.0,0.0,0.0,0.0,0.0,0.0,0.0,0.0,0.0,0.0,0.0,0.0,0.0,0.0,0.0,0.0,0.0,0.0,0.0,0.0,0.0,0.0,0.0,0.0,0.0,-3.709,-3.671,-3.6631,-3.6581,-3.6614,-3.6871,-3.6864,-3.778,-3.9541,-3.9996,-4.0695,-4.1661,-4.2901,-4.295,0.0,0.0,0.0,-4.2087,-4.2087,-4.1706,-4.1175,-4.1175,-4.11,-4.0974,-4.0576,-4.04,-4.03,0.0,0.0,0.0,0.0,0.0,0.0,0.0,0.0,0.0,0.0,0.0,0.0,0.0,0.0,0.0,0.0,0.0,0.0,0.0,0.0,0.0,0.0,-3.5791,-3.492,-3.4397,-3.4397,-3.4653,-3.509,-3.6522,-3.5965,-3.3531,-3.4886,-3.3488,-2.9766,-2.9238,-2.8545,-2.7821,-2.7626,-2.7324,-2.6969,-2.7094,0.0,0.0,0.0,0.0,0.0,0.0,0.0,0.0,-2.6506,-2.7082,-2.7934,-2.6976,0.0,0.0,0.0,0.0,0.0,-2.765,-2.8809,-2.9746,-2.8652,-2.8706,-2.8937,0.0,0.0,0.0,0.0,0.0,0.0,0.0,0.0,0.0,0.0,0.0,0.0,0.0,0.0,0.0,0.0,0.0,0.0,0.0,0.0,0.0,0.0,0.0,0.0,0.0,-3.6934,-3.6622,-3.6502,-3.6491,-3.7125,-3.8399,-3.865,-3.8781,-3.8981,-4.1308,-4.2437,-4.2424,-4.329,-4.3405,0.0,0.0,-4.2057,-4.1455,-4.1455,-4.1153,-4.0651,-4.0651,-4.035,-3.9948,-3.9848,-3.9823,-3.9747,0.0,0.0,0.0,0.0,0.0,0.0,0.0,0.0,0.0,0.0,0.0,0.0,0.0,0.0,0.0,0.0,0.0,0.0,0.0,0.0,0.0,0.0,-3.6358,-3.5469,-3.4894,-3.4741,-3.4899,-3.5409,-3.6513,-3.5934,-3.3819,-3.3317,-3.1954,-2.9973,-2.9518,-2.8938,-2.8227,-2.7783,-2.7623,-2.7566,0.0,0.0,0.0,0.0,0.0,0.0,0.0,0.0,0.0,0.0,-2.708,-2.7934,-2.7219,0.0,0.0,0.0,0.0,0.0,-2.7641,-2.877,-2.9951,-2.9396,-2.9751,-3.0145,0.0,0.0,0.0,0.0,0.0,0.0,0.0,0.0,0.0,0.0,0.0,0.0,0.0,0.0,0.0,0.0,0.0,0.0,0.0,0.0,0.0,0.0,0.0,0.0,0.0,0.0,-3.6889,-3.7472,-3.7649,-3.8313,-3.9434,-4.045,-4.0949,-4.0868,-4.2094,-4.2793,-4.2832,-4.318,-4.2886,-4.2082,0.0,-4.1404,-4.0877,-4.0576,-4.03,-4.0023,-3.9396,-3.9371,-3.9647,-3.9346,-3.9044,-3.8743,0.0,0.0,0.0,0.0,0.0,0.0,0.0,0.0,0.0,0.0,0.0,0.0,0.0,0.0,0.0,0.0,0.0,0.0,0.0,0.0,-3.8845,-3.8129,-3.709,-3.6253,-3.5704,-3.5159,-3.5236,-3.5915,-3.659,-3.6137,-3.4624,-3.2169,-3.076,-3.0305,-3.0056,-2.9529,-2.8766,-2.8318,-2.8208,-2.8259,0.0,0.0,0.0,0.0,0.0,0.0,0.0,0.0,0.0,0.0,0.0,0.0,0.0,0.0,0.0,-2.7182,-2.7609,-2.8167,-2.7578,-2.8555,-2.9822,0.0,0.0,0.0,0.0,0.0,0.0,0.0,0.0,0.0,0.0,0.0,0.0,0.0,0.0,0.0,0.0,0.0,0.0,0.0,0.0,0.0,0.0,0.0,0.0,0.0,0.0,0.0,0.0,0.0,-3.7682,-3.883,-3.913,-3.9648,-4.0403,-4.1638,-4.2268,-4.2268,-4.2563,-4.2643,-4.2585,-4.2585,-4.2057,-4.11,-4.0949,-4.0651,-4.0099,-3.9521,-3.9295,-3.922,-3.8341,-3.8542,-3.9245,-3.8818,-3.8391,-3.799,0.0,0.0,0.0,0.0,0.0,0.0,0.0,0.0,0.0,0.0,0.0,0.0,0.0,0.0,0.0,0.0,0.0,0.0,0.0,0.0,-3.9033,-3.8679,-3.8083,-3.7482,-3.6907,-3.5548,-3.5329,-3.6257,-3.7057,-3.6971,-3.6025,-3.3197,-3.1712,-3.1298,-3.1671,-3.0894,-2.944,-2.9561,-2.9233,-2.8628,-2.8323,0.0,0.0,0.0,0.0,0.0,0.0,0.0,0.0,0.0,0.0,0.0,0.0,0.0,-2.7359,-2.6654,-2.6769,-2.7141,-2.7368,-2.816,-2.9129,-2.9673,0.0,0.0,0.0,0.0,0.0,0.0,0.0,0.0,0.0,0.0,0.0,0.0,0.0,0.0,0.0,0.0,0.0,0.0,0.0,0.0,0.0,0.0,0.0,0.0,0.0,0.0,0.0,0.0,0.0,-4.0675,-4.0716,-4.1069,-4.1672,-4.1287,-4.1105,-4.1105,-4.2386,-4.2399,-4.1401,-4.1401,-4.1075,-4.0551,-4.0023,-3.9496,-3.8994,-3.8366,-3.8115,-3.8115,-3.804,-3.8065,-3.8115,-3.809,-3.804,-3.7939,0.0,0.0,0.0,0.0,0.0,0.0,0.0,0.0,0.0,0.0,0.0,0.0,0.0,0.0,0.0,0.0,0.0,0.0,0.0,0.0,-3.8081,-3.8658,-3.7684,-3.715,-3.7326,-3.6638,-3.6365,-3.6523,-3.7022,-3.6908,-3.6185,-3.4383,-3.2916,-3.1795,-3.1905,-3.1367,-3.0336,-2.9944,-2.9713,-2.9466,-2.8898,-2.8848,0.0,0.0,0.0,0.0,0.0,0.0,0.0,0.0,-2.71,-2.7582,0.0,0.0,-2.8381,-2.7284,-2.731,-2.7713,-2.7532,-2.9116,-3.0775,-3.0207,0.0,0.0,0.0,0.0,0.0,0.0,0.0,0.0,0.0,0.0,0.0,0.0,0.0,0.0,0.0,0.0,0.0,0.0,0.0,0.0,0.0,0.0,0.0,0.0,0.0,0.0,0.0,0.0,0.0,-4.0927,-4.0598,-4.0721,-4.1484,-4.1262,-4.0991,-4.0725,-4.1563,-4.1379,-4.0325,-4.0325,-3.9823,-3.8944,-3.8743,-3.8517,-3.8291,-3.7713,-3.7688,-3.8015,-3.8015,-3.7588,-3.7036,-3.7362,-3.7287,-3.701,0.0,0.0,0.0,0.0,0.0,0.0,0.0,0.0,0.0,0.0,0.0,0.0,0.0,0.0,0.0,0.0,0.0,0.0,0.0,-3.7374,-3.7384,-3.8257,-3.7572,-3.7304,-3.7552,-3.7318,-3.7155,-3.6966,-3.7091,-3.7001,-3.6673,-3.5067,-3.3775,-3.279,-3.2274,-3.1717,-3.1121,-3.062,-3.0369,-3.0356,-2.9734,-2.9813,0.0,0.0,0.0,0.0,0.0,0.0,0.0,0.0,-2.7244,0.0,0.0,0.0,0.0,0.0,-2.786,-2.8524,-2.8263,-2.9939,-3.1662,0.0,0.0,0.0,0.0,0.0,0.0,0.0,0.0,0.0,0.0,0.0,0.0,0.0,0.0,0.0,0.0,0.0,0.0,0.0,0.0,0.0,0.0,0.0,0.0,0.0,0.0,0.0,0.0,0.0,0.0,0.0,-4.1047,-4.0881,-4.1025,-4.0902,-4.0551,-3.9998,-4.0199,-3.9998,-3.9421,-3.9245,-3.8743,-3.799,-3.7814,-3.7739,-3.7713,-3.7161,-3.7136,-3.7487,-3.7487,-3.7036,-3.6455,-3.6784,-3.6732,-3.6455,0.0,0.0,0.0,0.0,0.0,0.0,0.0,0.0,0.0,0.0,0.0,0.0,0.0,0.0,0.0,0.0,0.0,0.0,0.0,-3.6813,-3.7156,-3.7479,-3.807,-3.8144,-3.7571,-3.7597,-3.7597,-3.7597,-3.7438,-3.7497,-3.782,-3.5111,-3.4065,-3.4391,-3.279,-3.1953,-3.1805,-3.1645,-3.1499,-3.1285,-3.0869,-3.112,-3.1586,0.0,0.0,0.0,0.0,0.0,0.0,0.0,-2.7296,-2.7064,0.0,0.0,0.0,0.0,-2.8214,-2.9486,-2.9731,-3.0321,0.0,0.0,0.0,0.0,0.0,0.0,0.0,0.0,0.0,0.0,0.0,0.0,0.0,0.0,0.0,0.0,0.0,0.0,0.0,0.0,0.0,0.0,0.0,0.0,0.0,0.0,0.0,0.0,0.0,0.0,0.0,0.0,-4.2464,-4.1605,-4.0501,-3.9948,-3.9396,-3.8894,-3.8266,-3.8291,-3.8894,-3.8266,-3.799,-3.7965,-3.7412,-3.7186,-3.7136,-3.6631,-3.6405,-3.6405,-3.6405,-3.6405,-3.6405,-3.6405,-3.6405,-3.6405,0.0,0.0,0.0,0.0,0.0,0.0,0.0,0.0,0.0,0.0,0.0,0.0,0.0,0.0,0.0,0.0,0.0,0.0,0.0,-3.6283,-3.6095,-3.6832,-3.6902,-3.6954,-3.6963,-3.7556,-3.7862,-3.7862,-3.8241,-3.8248,-3.7897,-3.7068,-3.5702,-3.4043,-3.4255,-3.331,-3.1645,-3.1636,-3.1613,-3.1632,-3.1134,-3.1328,-3.1667,0.0,0.0,0.0,0.0,0.0,0.0,0.0,0.0,0.0,0.0,0.0,0.0,0.0,-3.0088,-3.0357,-3.0158,0.0,0.0,0.0,0.0,0.0,0.0,0.0,0.0,0.0,0.0,0.0,0.0,0.0,0.0,0.0,0.0,0.0,0.0,0.0,0.0,0.0,0.0,0.0,0.0,0.0,0.0,0.0,0.0,0.0,0.0,0.0,0.0,0.0,-4.0124,-3.9496,-3.8768,-3.8592,-3.8417,-3.8266,-3.7688,-3.7513,-3.7688,-3.7513,-3.7211,-3.6883,-3.6732,-3.6656,-3.6631,-3.648,-3.6405,-3.6405,-3.6405,-3.6405,-3.6405,-3.6405,-3.6405,-3.6455,0.0,0.0,0.0,0.0,0.0,0.0,0.0,0.0,0.0,0.0,0.0,0.0,0.0,0.0,0.0,0.0,0.0,0.0,0.0,0.0,-3.5531,-3.6103,-3.6456,-3.6841,-3.7225,-3.7988,-3.8341,-3.8341,-3.8919,-3.8986,-3.8607,-3.8379,-3.7493,-3.6018,-3.5301,-3.4237,-3.2818,-3.1926,-3.1574,-3.1677,-3.1394,-3.1613,-3.2072,0.0,0.0,0.0,0.0,0.0,0.0,0.0,0.0,0.0,0.0,0.0,0.0,-3.1194,-3.1682,-3.2114,-3.2066,0.0,0.0,0.0,0.0,0.0,0.0,0.0,0.0,0.0,0.0,0.0,0.0,0.0,0.0,0.0,0.0,0.0,0.0,0.0,0.0,0.0,0.0,0.0,0.0,0.0,0.0,0.0,0.0,0.0,0.0,0.0,0.0,0.0,-3.8818,-3.8266,-3.7688,-3.7688,-3.7462,-3.701,-3.6684,-3.6408,-3.6232,-3.6659,-3.6732,-3.6405,-3.6405,-3.6405,-3.6405,-3.6405,-3.6405,-3.6405,-3.6405,-3.6405,-3.6405,-3.6405,-3.6405,-3.6455,0.0,0.0,0.0,0.0,0.0,0.0,0.0,0.0,0.0,0.0,0.0,0.0,0.0,0.0,0.0,0.0,0.0,0.0,0.0,0.0,-3.534,-3.5571,-3.6678,-3.754,-3.8065,-3.8642,-3.8994,-3.8994,-3.9396,-3.9647,-3.9697,-3.9149,-3.8972,-3.906,-3.619,-3.4845,-3.4671,-3.2535,-3.1712,-3.1828,-3.1793,-3.2097,-3.2675,-3.1999,0.0,0.0,0.0,0.0,0.0,0.0,0.0,0.0,0.0,0.0,0.0,-3.2017,-3.3031,-3.4197,0.0,0.0,0.0,0.0,0.0,0.0,0.0,0.0,0.0,0.0,0.0,0.0,0.0,0.0,0.0,0.0,0.0,0.0,0.0,0.0,0.0,0.0,0.0,0.0,0.0,0.0,0.0,0.0,0.0,0.0,0.0,0.0,0.0,-3.8768,-3.8216,-3.7638,-3.7036,-3.7036,-3.6508,0.0,-3.5433,-3.5157,-3.4751,-3.5755,-3.6254,-3.6254,-3.6254,-3.6279,-3.6329,-3.6329,-3.6355,-3.6405,-3.6405,-3.6405,-3.6405,-3.6405,-3.6405,-3.6405,0.0,0.0,0.0,0.0,0.0,0.0,0.0,0.0,0.0,0.0,0.0,0.0,0.0,0.0,0.0,0.0,0.0,0.0,0.0,0.0,0.0,0.0,0.0,0.0,-3.8668,-3.922,-3.9521,-3.9521,-3.9195,0.0,0.0,0.0,0.0,-3.7738,0.0,-3.63,-3.4683,-3.3742,-3.3586,-3.3799,-3.2944,-3.2706,-3.2868,-3.3093,-3.2739,0.0,0.0,0.0,0.0,0.0,0.0,0.0,-3.2888,-3.279,-3.2503,-3.3703,-3.3993,0.0,0.0,0.0,0.0,0.0,0.0,0.0,0.0,0.0,0.0,0.0,0.0,0.0,0.0,0.0,0.0,0.0,0.0,0.0,0.0,0.0,0.0,0.0,0.0,0.0,0.0,0.0,0.0,0.0,0.0,0.0,0.0,0.0,0.0,-3.7563,-3.7437,-3.6885,-3.5859,-3.5859,-3.5508,0.0,-3.4856,-3.4781,-3.4726,-3.4951,-3.5077,-3.5077,-3.5077,-3.5328,-3.5683,-3.5683,-3.5981,-3.6405,-3.6405,-3.6405,-3.6405,-3.6405,-3.6405,-3.6405,0.0,0.0,0.0,0.0,0.0,0.0,0.0,0.0,0.0,0.0,0.0,0.0,0.0,0.0,0.0,0.0,0.0,0.0,0.0,0.0,0.0,0.0,0.0,0.0,0.0,-3.9546,-3.9572,-3.9295,0.0,0.0,0.0,0.0,0.0,-3.9185,0.0,-3.7613,-3.6203,-3.4578,-3.4205,-3.4514,-3.3713,-3.3682,-3.4084,-3.4075,-3.3576,-3.3063,-3.3606,0.0,0.0,0.0,0.0,0.0,0.0,0.0,-3.398,-3.4558,-3.4863,0.0,0.0,0.0,0.0,0.0,0.0,0.0,0.0,0.0,0.0,0.0,0.0,0.0,0.0,0.0,0.0,0.0,0.0,0.0,0.0,0.0,0.0,0.0,0.0,0.0,0.0,0.0,0.0,0.0,0.0,0.0,0.0,-3.7538,-3.696,-3.6408,-3.6408,-3.6006,-3.5107,-3.5107,-3.4831,-3.4324,-3.4324,-3.4198,-3.3947,-3.4474,-3.468,-3.468,-3.468,-3.4831,-3.5132,-3.5382,-3.5683,-3.6006,-3.6304,-3.6405,-3.6405,-3.6405,-3.6405,-3.6405,0.0,0.0,0.0,0.0,0.0,0.0,0.0,0.0,0.0,0.0,0.0,0.0,0.0,0.0,0.0,0.0,0.0,0.0,0.0,0.0,0.0,0.0,0.0,0.0,0.0,-3.9597,-3.9371,0.0,0.0,0.0,0.0,0.0,0.0,-4.1125,0.0,-3.8684,-3.8073,-3.5652,-3.489,-3.5217,-3.4657,-3.486,-3.5392,-3.4872,-3.436,-3.3945,-3.4402,-3.3781,-3.2922,-3.4066,0.0,0.0,0.0,0.0,-3.5282,-3.4931,-3.5378,-3.6179,0.0,0.0,0.0,0.0,0.0,0.0,0.0,0.0,0.0,0.0,0.0,0.0,0.0,0.0,0.0,0.0,0.0,0.0,0.0,0.0,0.0,0.0,0.0,0.0,0.0,0.0,0.0,0.0,0.0,0.0,-3.7036,-3.6508,-3.6006,-3.5508,-3.5408,-3.5082,-3.4575,-3.4575,-3.4299,-3.3746,-3.3746,-3.352,-3.3119,-3.4022,-3.4424,-3.4424,-3.4424,-3.45,-3.4625,-3.5031,-3.5282,-3.5408,-3.5906,-3.6179,-3.6254,-3.6254,-3.6329,-3.6405,0.0,0.0,0.0,0.0,0.0,0.0,0.0,0.0,0.0,0.0,0.0,0.0,0.0,0.0,0.0,0.0,0.0,0.0,-3.5771,0.0,0.0,-3.7258,-3.824,-3.9044,0.0,-3.922,-3.917,0.0,0.0,0.0,0.0,0.0,0.0,-4.0601,0.0,0.0,-3.8716,-3.7842,-3.7469,-3.7518,-3.6898,-3.6227,-3.5561,-3.5413,-3.5055,-3.4678,-3.4664,-3.4842,-3.5214,-3.6377,-3.61,0.0,0.0,0.0,-3.4856,-3.5282,-3.4851,0.0,0.0,0.0,0.0,0.0,0.0,0.0,0.0,0.0,0.0,0.0,0.0,0.0,0.0,0.0,0.0,0.0,0.0,0.0,0.0,0.0,0.0,0.0,0.0,0.0,0.0,0.0,0.0,0.0,0.0,0.0,-3.6531,-3.5956,-3.5583,-3.5508,-3.5031,-3.4575,-3.4022,-3.3997,-3.3746,-3.3237,-3.3237,-3.3144,-3.3093,-3.3244,-3.3294,-3.3294,-3.3294,-3.3571,-3.4022,-3.4098,-3.4399,-3.4781,-3.4901,-3.5182,-3.5608,-3.5608,-3.5956,-3.6405,0.0,0.0,0.0,0.0,0.0,0.0,0.0,0.0,0.0,0.0,0.0,0.0,0.0,0.0,0.0,-3.4465,-3.4734,-3.4916,-3.4912,-3.5593,-3.62,-3.6734,-3.7211,-3.7864,-3.8743,-3.8517,0.0,0.0,0.0,0.0,0.0,-3.9597,-4.0174,0.0,0.0,0.0,0.0,0.0,0.0,-3.789,-3.6701,-3.6308,-3.6382,-3.5422,-3.493,-3.4752,-3.4719,-3.4474,-3.4374,-3.578,-3.5683,-3.5182,-3.5959,0.0,0.0,0.0,0.0,0.0,0.0,0.0,0.0,0.0,0.0,0.0,0.0,0.0,0.0,0.0,0.0,0.0,0.0,0.0,0.0,0.0,0.0,0.0,0.0,0.0,0.0,0.0,0.0,0.0,0.0,0.0,0.0,0.0,0.0,-3.6656,-3.643,-3.5855,-3.5357,-3.5056,-3.455,-3.3891,-3.3096,-3.3096,-3.2904,-3.2472,-3.2472,-3.265,-3.2996,-3.2828,-3.2895,-3.3111,-3.3111,-3.3219,-3.347,-3.3771,-3.4048,-3.4299,-3.46,-3.4831,-3.5082,-3.5382,-3.5658,-3.5956,0.0,0.0,0.0,0.0,0.0,0.0,0.0,0.0,0.0,0.0,0.0,0.0,0.0,0.0,0.0,0.0,-3.4727,-3.4615,-3.4135,-3.4488,-3.5152,-3.6157,-3.6307,-3.6885,-3.799,0.0,0.0,0.0,0.0,0.0,-4.0099,-3.9546,-4.0752,0.0,-4.2258,0.0,0.0,0.0,0.0,0.0,0.0,-3.6157,-3.6659,-3.5554,-3.4951,-3.468,-3.468,-3.4098,-3.352,-3.4981,-3.5132,-3.4851,-3.5483,-3.5278,0.0,0.0,0.0,0.0,0.0,0.0,0.0,0.0,0.0,0.0,0.0,0.0,0.0,0.0,0.0,0.0,0.0,0.0,0.0,0.0,0.0,0.0,0.0,0.0,0.0,0.0,0.0,0.0,0.0,0.0,0.0,0.0,0.0,-3.5956,-3.5956,-3.5429,-3.4926,-3.457,-3.3891,-3.324,-3.2615,-3.2463,-3.2266,-3.1994,-3.1994,-3.2224,-3.2659,-3.2453,-3.2634,-3.3038,-3.3104,-3.3111,-3.3119,-3.352,-3.3696,-3.3746,-3.4148,-3.4399,-3.4575,-3.4931,-3.5182,-3.5403,0.0,0.0,0.0,0.0,0.0,0.0,0.0,0.0,0.0,0.0,0.0,0.0,-3.7533,-3.6199,-3.5201,-3.4891,-3.4701,-3.4423,-3.3941,-3.4424,-3.4931,-3.5508,-3.6081,0.0,-3.799,0.0,0.0,0.0,0.0,0.0,-4.12,-4.0701,-4.1907,-4.4493,-4.3388,-4.2007,-4.0475,0.0,0.0,0.0,0.0,0.0,0.0,0.0,0.0,0.0,-3.468,-3.4349,-3.4022,-3.5132,-3.5132,-3.4901,-3.5981,-3.5579,-3.4781,0.0,0.0,0.0,0.0,0.0,0.0,0.0,0.0,0.0,0.0,0.0,0.0,0.0,0.0,0.0,0.0,0.0,0.0,0.0,0.0,0.0,0.0,0.0,0.0,0.0,0.0,0.0,0.0,0.0,0.0,0.0,0.0,-3.4801,-3.4801,-3.4299,-3.406,-3.423,-3.3148,-3.2692,-3.289,-3.2327,-3.2019,-3.1994,-3.1994,-3.2019,-3.2045,-3.2045,-3.2337,-3.2925,-3.3013,-3.3111,-3.3111,-3.3119,-3.3162,-3.3119,-3.3144,-3.347,-3.3947,-3.3972,-3.4324,-3.4851,0.0,0.0,0.0,0.0,0.0,0.0,0.0,0.0,0.0,0.0,0.0,0.0,0.0,-3.6157,-3.5201,-3.4917,-3.4238,-3.3715,-3.3413,-3.3545,-3.4073,-3.4931,-3.5203,-3.583,-3.6935,0.0,0.0,0.0,0.0,-3.6985,-3.9195,-3.8994,-3.9622,-4.0978,-4.2037,-4.2162,-4.1509,-3.9848,0.0,0.0,0.0,0.0,0.0,0.0,0.0,0.0,0.0,0.0,0.0,0.0,-3.5357,-3.5332,-3.6179,-3.5604,-3.4625,-3.4123,-3.4073,0.0,0.0,0.0,0.0,0.0,0.0,0.0,0.0,0.0,0.0,0.0,0.0,0.0,0.0,0.0,0.0,0.0,0.0,0.0,0.0,0.0,0.0,0.0,0.0,0.0,0.0,0.0,0.0,0.0,0.0,0.0,-3.4726,-3.4464,-3.4292,-3.4179,-3.3242,-3.2531,-3.2014,-3.1578,-3.137,-3.137,-3.137,-3.1552,-3.1876,-3.1758,-3.1988,-3.2621,-3.2858,-3.3081,-3.3283,-3.3154,-3.3111,-3.3111,-3.3111,-3.3194,-3.342,-3.3771,-3.4022,-3.4318,0.0,0.0,0.0,0.0,0.0,0.0,0.0,0.0,0.0,0.0,0.0,0.0,0.0,0.0,-3.5574,-3.4882,-3.4109,-3.3528,-3.3136,-3.3244,-3.3771,-3.4675,-3.4856,-3.5429,-3.638,0.0,0.0,0.0,0.0,0.0,0.0,0.0,-3.8517,-3.9471,-4.0629,-4.1307,0.0,0.0,0.0,-3.8894,0.0,0.0,-3.701,0.0,0.0,0.0,0.0,0.0,0.0,0.0,0.0,0.0,-3.5755,-3.5177,-3.4299,-3.3571,-3.3621,0.0,0.0,0.0,0.0,0.0,0.0,0.0,0.0,0.0,0.0,0.0,0.0,0.0,0.0,0.0,0.0,0.0,0.0,0.0,0.0,0.0,0.0,0.0,0.0,0.0,0.0,0.0,0.0,0.0,0.0,0.0,-3.4369,-3.4321,-3.4093,-3.3624,-3.3091,-3.2326,-3.1344,-3.1107,-3.0973,-3.0973,-3.0973,-3.1182,-3.151,-3.1395,-3.1656,-3.2201,-3.2596,-3.2915,-3.3216,-3.3292,-3.3283,-3.3197,-3.3283,-3.324,-3.3162,-3.3644,-3.3795,-3.3871,0.0,0.0,0.0,0.0,0.0,0.0,0.0,0.0,0.0,-3.6269,0.0,0.0,0.0,0.0,0.0,-3.4794,-3.4456,-3.3983,-3.3212,-3.3621,-3.4173,-3.468,-3.5207,-3.5805,-3.6405,0.0,0.0,0.0,0.0,0.0,0.0,0.0,-3.8843,0.0,-3.932,-3.9446,-4.04,0.0,-3.9672,-3.9346,0.0,-3.5303,-3.7312,0.0,0.0,0.0,-3.7939,-3.7613,0.0,-3.5353,0.0,0.0,0.0,0.0,-3.3897,-3.3872,0.0,0.0,0.0,0.0,0.0,0.0,0.0,0.0,0.0,0.0,0.0,0.0,0.0,0.0,0.0,0.0,0.0,0.0,0.0,0.0,0.0,0.0,0.0,0.0,0.0,0.0,0.0,0.0,0.0,0.0,0.0,-3.3513,-3.3683,-3.3725,-3.3296,-3.2432,-3.2619,-3.215,-3.0999,-3.0973,-3.0973,-3.0973,-3.0973,-3.0973,-3.0973,-3.0973,-3.1287,-3.1823,-3.2201,-3.257,-3.2931,-3.3495,-3.3598,-3.3428,-3.3641,-3.3471,-3.3154,-3.3556,-3.3598,-3.3573,0.0,0.0,0.0,0.0,0.0,0.0,0.0,0.0,0.0,0.0,0.0,0.0,-3.6537,-3.613,-3.5833,-3.5846,-3.5421,-3.4896,-3.4299,-3.4399,-3.4751,-3.5257,-3.5408,-3.5805,-3.6405,0.0,0.0,0.0,0.0,0.0,0.0,0.0,0.0,0.0,-3.8642,-3.8818,-3.8693,-3.8542,0.0,0.0,-3.6807,-3.701,0.0,0.0,0.0,0.0,0.0,-3.6634,-3.7186,0.0,-3.7211,-3.7086,0.0,0.0,0.0,0.0,0.0,0.0,-3.3294,0.0,0.0,0.0,0.0,0.0,0.0,0.0,0.0,0.0,0.0,0.0,0.0,0.0,0.0,0.0,0.0,0.0,0.0,0.0,0.0,0.0,0.0,0.0,0.0,0.0,0.0,0.0,-3.387,-3.3852,-3.3725,-3.3894,-3.3545,-3.2645,-3.2659,-3.215,-3.0999,-3.0973,-3.0973,-3.0973,-3.0973,-3.0973,-3.0973,-3.0973,-3.1078,-3.1261,-3.1759,-3.2019,-3.2201,-3.3286,-3.3683,-3.3641,-3.3683,-3.3641,-3.3556,-3.3683,-3.3683,-3.3709,0.0,0.0,0.0,0.0,0.0,0.0,0.0,0.0,0.0,0.0,0.0,0.0,-3.7454,-3.694,-3.6713,-3.7001,-3.6379,-3.5747,-3.5102,-3.5031,-3.5157,-3.5483,-3.5755,-3.6031,0.0,0.0,0.0,0.0,0.0,0.0,0.0,0.0,0.0,0.0,0.0,0.0,0.0,0.0,0.0,0.0,-3.6835,0.0,0.0,-3.7287,-3.7487,0.0,0.0,0.0,-3.8743,-3.7688,-3.7312,0.0,0.0,0.0,0.0,0.0,0.0,0.0,0.0,0.0,0.0,0.0,0.0,0.0,0.0,-3.4756,0.0,0.0,0.0,0.0,0.0,0.0,0.0,0.0,0.0,0.0,0.0,0.0,0.0,0.0,0.0,0.0,0.0,0.0,0.0,-3.3878,-3.3979,-3.4063,-3.4021,-3.4147,-3.3751,-3.2725,-3.2698,-3.215,-3.0999,-3.0973,-3.0973,-3.0973,-3.0973,-3.0973,-3.0973,-3.0973,-3.0973,-3.1026,-3.1562,-3.1797,-3.1928,-3.3146,-3.3601,-3.3518,-3.3875,-3.3894,-3.3725,-3.3937,-3.3937,-3.3894,0.0,0.0,0.0,0.0,0.0,0.0,0.0,0.0,0.0,0.0,-3.9921,-3.9491,-3.909,-3.8652,-3.8299,-3.8232,-3.7337,-3.6543,-3.5755,-3.5558,-3.5533,-3.5583,-3.6031,-3.6355,0.0,0.0,0.0,0.0,0.0,0.0,0.0,0.0,0.0,0.0,0.0,0.0,0.0,0.0,0.0,-3.7561,-3.606,-3.7161,0.0,0.0,-3.9572,-4.0799,-3.9848,-4.0174,-4.0626,-3.7713,-3.6707,0.0,0.0,0.0,0.0,0.0,-3.3571,0.0,0.0,0.0,0.0,0.0,0.0,0.0,-3.3922,-3.4274,-3.45,0.0,0.0,0.0,0.0,0.0,0.0,0.0,0.0,0.0,0.0,0.0,0.0,0.0,0.0,0.0,0.0,-3.4101,-3.3894,-3.4131,-3.4131,-3.4189,-3.4397,-3.4397,-3.3875,-3.2725,-3.2698,-3.215,-3.0999,-3.0973,-3.0973,-3.0973,-3.0973,-3.0973,-3.0973,-3.0973,-3.0973,-3.1026,-3.1484,-3.1719,-3.1797,-3.2934,-3.3335,-3.3327,-3.4105,-3.4147,-3.3852,-3.4272,-3.4272,-3.4147,-3.9505,0.0,0.0,0.0,0.0,0.0,0.0,0.0,0.0,0.0,0.0,0.0,-4.1201,-3.9773,-3.89,-3.9336,-3.836,-3.7511,-3.691,-3.5984,-3.5708,-3.6182,-3.5881,-3.5906,-3.6405,0.0,0.0,0.0,0.0,0.0,0.0,0.0,0.0,0.0,0.0,0.0,0.0,0.0,0.0,-3.5654,-3.555,0.0,-3.8919,-3.7461,-3.7613,-3.8642,-3.8417,-3.8768,-3.932,-3.912,-3.8442,-3.7563,0.0,0.0,0.0,-3.4625,0.0,0.0,0.0,0.0,0.0,0.0,0.0,0.0,-3.4098,-3.4105,-3.4287,0.0,0.0,0.0,0.0,0.0,0.0,0.0,0.0,0.0,0.0,0.0,0.0,0.0,0.0,0.0,0.0,-3.4484,-3.4272,-3.4356,-3.4356,-3.4356,-3.4397,-3.4397,-3.3875,-3.2725,-3.2698,-3.215,-3.0999,-3.0973,-3.0973,-3.0973,-3.0973,-3.0973,-3.0973,-3.0973,-3.0973,-3.0999,-3.1104,-3.1156,-3.1209,-3.1876,-3.2685,-3.3599,-3.4188,-3.4356,-3.4272,-3.4356,-3.4397,-3.4356,-3.9805,0.0,0.0,0.0,0.0,0.0,0.0,0.0,0.0,0.0,0.0,0.0,0.0,0.0,-4.0409,-3.9894,-3.8837,-3.7985,-3.743,-3.6502,-3.5956,-3.5956,-3.5956,-3.5956,-3.5956,-3.6279,0.0,0.0,0.0,0.0,0.0,0.0,0.0,0.0,0.0,0.0,0.0,0.0,-3.5209,-3.5764,-3.5877,0.0,-3.7709,-3.7033,-3.7287,-3.804,-3.8341,-3.8442,-3.8442,-3.8442,-3.8241,0.0,0.0,-3.6132,-3.6107,0.0,-3.4123,-3.3897,0.0,0.0,0.0,-3.4016,0.0,0.0,0.0,-3.3817,-3.3989,0.0,0.0,0.0,0.0,0.0,0.0,0.0,0.0,0.0,0.0,0.0,0.0,0.0,0.0,0.0,0.0,-3.4497,-3.4397,-3.4397,-3.4136,-3.4005,-3.4005,-3.3718,-3.3143,-3.2306,-3.2254,-3.1862,-3.0999,-3.0973,-3.0973,-3.0973,-3.0973,-3.0973,-3.0973,-3.0973,-3.0973,-3.0973,-3.0973,-3.0973,-3.1026,-3.1562,-3.2163,-3.2803,-3.3666,-3.4005,-3.4031,-3.4293,-3.4397,-3.4397,-3.9925,0.0,0.0,0.0,0.0,0.0,0.0,0.0,0.0,0.0,0.0,0.0,0.0,0.0,0.0,0.0,-3.9576,-3.8569,-3.8537,-3.7249,-3.6202,-3.5495,-3.6231,-3.6252,-3.5319,-3.5995,-3.6344,0.0,0.0,0.0,0.0,0.0,0.0,0.0,0.0,0.0,0.0,0.0,0.0,-3.6265,0.0,-3.637,-3.6644,-3.6782,-3.7287,-3.7914,-3.8492,-3.8341,-3.7789,-3.7462,-3.7563,-3.7538,-3.5755,-3.5956,0.0,0.0,0.0,0.0,0.0,0.0,0.0,0.0,0.0,-3.4093,0.0,0.0,0.0,0.0,0.0,0.0,0.0,0.0,0.0,0.0,0.0,0.0,0.0,0.0,0.0,0.0,0.0,0.0,0.0,-3.4371,-3.4188,-3.4084,-3.377,-3.3535,-3.343,-3.296,-3.2437,-3.1823,-3.1797,-3.1536,-3.0999,-3.0973,-3.0973,-3.0973,-3.0973,-3.0973,-3.0973,-3.0973,-3.0973,-3.0973,-3.0973,-3.0973,-3.1026,-3.1496,-3.1641,-3.1771,-3.3091,-3.3587,-3.3666,-3.4188,-3.4397,-3.4397,-3.8517,-3.923,0.0,0.0,0.0,0.0,0.0,0.0,0.0,0.0,0.0,0.0,0.0,0.0,0.0,0.0,0.0,0.0,-4.1683,0.0,0.0,0.0,0.0,-3.6603,-3.4645,-3.5711,-3.6044,0.0,0.0,0.0,0.0,0.0,0.0,0.0,-3.4622,0.0,0.0,0.0,-3.5069,0.0,-3.5622,-3.5892,0.0,-3.5881,-3.6383,-3.7337,-3.7914,-3.7739,-3.7337,0.0,-3.7638,-3.7236,0.0,-3.6358,-3.5734,0.0,0.0,0.0,0.0,0.0,0.0,0.0,-3.5244,0.0,0.0,0.0,0.0,0.0,0.0,0.0,0.0,0.0,0.0,0.0,0.0,0.0,0.0,0.0,0.0,0.0,0.0,0.0,0.0,0.0,-3.3456,-3.2934,-3.3326,-3.3352,-3.2829,-3.2725,-3.2437,-3.1823,-3.1797,-3.1536,-3.0999,-3.0973,-3.0973,-3.0973,-3.0973,-3.0973,-3.0973,-3.0973,-3.0973,-3.0973,-3.0973,-3.0973,-3.0999,-3.1052,-3.1078,-3.1261,-3.2934,-3.3587,-3.3666,-3.4188,-3.4397,-3.4397,-3.7738,-3.8691,0.0,0.0,0.0,0.0,0.0,0.0,0.0,0.0,0.0,0.0,0.0,0.0,0.0,0.0,0.0,-4.2167,0.0,0.0,0.0,0.0,0.0,0.0,-3.7128,-3.7025,-3.6955,0.0,-3.6446,0.0,0.0,0.0,0.0,0.0,-3.4312,0.0,-3.477,0.0,0.0,0.0,0.0,0.0,0.0,-3.538,-3.5646,-3.6207,-3.6132,-3.6157,-3.6157,0.0,-3.5906,0.0,0.0,0.0,0.0,0.0,0.0,0.0,0.0,0.0,0.0,0.0,0.0,0.0,-3.4968,0.0,-3.4725,0.0,0.0,0.0,0.0,0.0,0.0,0.0,0.0,0.0,0.0,0.0,0.0,0.0,0.0,0.0,0.0,0.0,0.0,0.0,0.0,-3.2803,-3.2228,-3.1888,-3.1601,-3.1339,-3.1339,-3.1235,-3.0973,-3.0973,-3.0973,-3.0973,-3.0973,-3.0973,-3.0973,-3.0973,-3.0973,-3.0973,-3.0973,-3.0973,-3.0973,-3.0973,-3.0973,-3.1078,-3.215,-3.2777,-3.3143,-3.3718,-3.4136,-3.4397,-3.684,0.0,0.0,0.0,0.0,0.0,0.0,0.0,0.0,0.0,0.0,0.0,-4.6314,-4.6445,0.0,0.0,-4.5409,-4.4553,0.0,0.0,-4.1247,0.0,0.0,0.0,0.0,0.0,-3.802,0.0,0.0,0.0,0.0,0.0,0.0,0.0,0.0,-3.4544,-3.5303,0.0,0.0,-3.5072,-3.5554,-3.5473,-3.5051,-3.5073,-3.5102,-3.5097,-3.4801,-3.4931,-3.5157,-3.4488,-3.4765,0.0,-3.473,0.0,0.0,0.0,0.0,0.0,-3.4041,0.0,0.0,0.0,0.0,0.0,0.0,0.0,0.0,0.0,0.0,0.0,0.0,0.0,0.0,0.0,0.0,0.0,0.0,0.0,0.0,0.0,0.0,0.0,0.0,0.0,0.0,-3.2751,-3.2698,-3.2385,-3.1615,-3.1209,-3.0973,-3.0973,-3.0973,-3.0973,-3.0973,-3.0973,-3.0973,-3.0973,-3.0973,-3.0973,-3.0973,-3.0973,-3.0973,-3.0973,-3.0973,-3.0973,-3.0973,-3.0973,-3.0973,-3.1026,-3.1444,-3.2045,-3.2751,-3.3378,-3.3927,-3.4397,-3.5614,-3.6596,0.0,0.0,0.0,0.0,0.0,0.0,0.0,0.0,0.0,0.0,0.0,0.0,0.0,0.0,0.0,-4.7153,-4.7672,0.0,-4.2218,0.0,0.0,-4.1632,0.0,0.0,0.0,0.0,0.0,0.0,0.0,0.0,0.0,0.0,0.0,-3.5659,-3.6302,-3.56,-3.5685,-3.6207,-3.4978,-3.435,-3.4202,0.0,-3.4756,-3.4262,-3.457,0.0,0.0,-3.4996,-3.5085,0.0,0.0,0.0,0.0,0.0,0.0,0.0,0.0,0.0,0.0,-3.4685,0.0,0.0,0.0,0.0,-3.4397,0.0,0.0,0.0,0.0,0.0,0.0,-3.3613,0.0,0.0,0.0,0.0,0.0,0.0,0.0,0.0,0.0,0.0,0.0,-3.2777,-3.2698,-3.2202,-3.1078,-3.0999,-3.0973,-3.0973,-3.0973,-3.0973,-3.0973,-3.0973,-3.0973,-3.0973,-3.0973,-3.0973,-3.0973,-3.0973,-3.0973,-3.0973,-3.0973,-3.0973,-3.0973,-3.0973,-3.0973,-3.0973,-3.0999,-3.1705,-3.2751,-3.3378,-3.3927,-3.4397,0.0,0.0,0.0,0.0,0.0,0.0,0.0,-4.1893,0.0,0.0,0.0,0.0,0.0,0.0,-5.1319,0.0,0.0,-5.0152,-4.9453,-4.7837,0.0,0.0,0.0,-4.3465,0.0,0.0,0.0,0.0,0.0,0.0,0.0,0.0,0.0,0.0,0.0,-3.627,0.0,0.0,0.0,0.0,0.0,-3.4042,-3.4272,0.0,0.0,-3.3811,-3.3615,-3.3751,0.0,-3.4117,-3.4186,-3.4229,-3.4444,-3.4401,-3.4314,-3.4623,-3.4673,0.0,0.0,0.0,-3.4868,-3.4502,0.0,0.0,0.0,0.0,0.0,0.0,0.0,0.0,0.0,0.0,0.0,-3.4659,0.0,0.0,0.0,0.0,0.0,0.0,0.0,0.0,0.0,0.0,0.0,-3.2137,-3.2084,-3.1784,-3.1026,-3.0973,-3.0973,-3.0973,-3.0973,-3.0973,-3.0973,-3.0973,-3.0973,-3.0973,-3.0973,-3.0973,-3.0973,-3.0973,-3.0973,-3.0973,-3.0973,-3.0973,-3.0973,-3.0973,-3.0973,-3.0973,-3.0973,-3.1444,-3.2111,-3.2319,-3.3038,-3.3875,-3.679,0.0,0.0,0.0,0.0,0.0,0.0,0.0,0.0,0.0,-4.7459,0.0,-5.1858,0.0,-5.2456,0.0,-5.3025,-5.2157,-5.0315,-4.9673,0.0,-4.695,-4.575,0.0,0.0,0.0,0.0,0.0,0.0,-4.1067,0.0,0.0,0.0,0.0,0.0,0.0,0.0,0.0,-3.5736,0.0,0.0,-3.3483,0.0,0.0,-3.3193,-3.3707,0.0,-3.2787,-3.3162,-3.345,-3.3502,-3.3595,-3.4053,-3.4189,-3.423,-3.4356,-3.4397,-3.4397,-3.4397,-3.4397,0.0,-3.4397,-3.4397,0.0,-3.4894,0.0,0.0,0.0,0.0,0.0,0.0,0.0,0.0,0.0,0.0,0.0,0.0,-3.262,0.0,0.0,0.0,0.0,0.0,0.0,-3.2986,-3.2163,-3.1928,-3.1562,0.0,0.0,-3.0973,-3.0973,-3.0973,-3.0973,-3.0973,-3.0973,-3.0973,-3.0973,-3.0973,-3.0973,-3.0973,-3.0973,-3.0973,-3.0973,-3.0973,-3.0973,-3.0973,-3.0973,-3.0973,-3.0973,-3.0973,-3.1339,-3.1823,-3.2032,-3.2881,-3.3849,0.0,0.0,0.0,0.0,-3.9918,0.0,0.0,0.0,-4.4796,0.0,-4.7608,-4.8985,-5.0255,-5.1588,-5.2576,-5.3174,-5.3803,0.0,-5.0405,-5.084,0.0,0.0,-4.6292,-4.5813,-4.268,0.0,0.0,0.0,0.0,0.0,0.0,0.0,0.0,0.0,-3.8854,0.0,-3.704,-3.6949,-3.5826,-3.4032,-3.3085,-3.2751,-3.266,-3.2019,-3.2696,-3.3856,-3.2474,-3.2008,-3.2177,-3.292,-3.3209,-3.3327,-3.4053,-3.4319,-3.4319,-3.4345,-3.4371,-3.4371,-3.4397,-3.4397,-3.4397,-3.4397,0.0,0.0,0.0,0.0,-3.4397,0.0,0.0,0.0,0.0,0.0,0.0,0.0,0.0,0.0,0.0,0.0,0.0,0.0,0.0,0.0,0.0,-3.4659,-3.3822,-3.2725,-3.2084,-3.151,0.0,0.0,-3.0973,-3.0973,-3.0973,-3.0973,-3.0973,-3.0973,-3.0973,-3.0973,-3.0973,-3.0973,-3.0973,-3.0973,-3.0973,-3.0973,-3.0973,-3.0973,-3.0973,-3.0973,-3.0973,-3.0973,-3.0973,-3.1339,-3.1876,-3.2437,-3.3352,-3.4241,-3.7258,-3.7837,-3.8631,0.0,-3.914,-3.929,0.0,0.0,0.0,0.0,-4.9763,-5.1708,-5.3054,-5.3922,-5.4281,-5.3982,-5.3653,0.0,0.0,0.0,0.0,-4.7369,-4.7279,-4.6681,-4.5334,-4.5125,0.0,-4.3569,0.0,0.0,-4.2381,0.0,0.0,0.0,0.0,0.0,-3.6734,-3.8155,-3.6996,-3.4157,-3.3266,-3.3169,0.0,0.0,-3.198,-3.2958,-3.215,-3.2136,-3.254,-3.2736,-3.2828,-3.2854,-3.3091,-3.3143,-3.3221,-3.3666,-3.3796,-3.3875,-3.4293,-3.4397,-3.4397,-3.4397,-3.4397,-3.4397,0.0,0.0,0.0,0.0,0.0,0.0,0.0,0.0,0.0,0.0,0.0,0.0,0.0,0.0,0.0,-3.359,0.0,0.0,-3.457,-3.3326,-3.2346,-3.2032,-3.1522,-3.113,0.0,0.0,0.0,-3.0973,-3.0973,-3.0973,-3.0973,-3.0973,-3.0973,-3.0973,-3.0973,-3.0973,-3.0973,-3.0973,-3.0973,-3.0973,-3.0973,-3.0973,-3.0973,-3.0973,-3.0973,-3.0973,-3.0973,-3.1339,-3.1823,-3.1954,-3.2515,-3.3117,-3.7419,0.0,0.0,-3.896,0.0,0.0,-4.1055,0.0,0.0,-4.707,-4.9464,0.0,-5.1977,-5.3144,-5.3623,-5.2965,-5.2546,0.0,-5.0451,0.0,0.0,-4.7938,-4.7489,-4.6711,-4.5442,-4.4796,0.0,-4.3449,0.0,0.0,-4.2351,0.0,0.0,0.0,0.0,-3.8901,0.0,-3.7386,-3.6505,-3.4616,-3.3541,0.0,0.0,-3.1893,-3.1668,-3.1888,-3.1575,-3.1679,-3.1993,-3.2228,-3.2333,-3.2359,-3.262,-3.2698,-3.2751,-3.3091,-3.3195,-3.3273,-3.3561,-3.3849,-3.4058,-3.4058,-3.4214,-3.4345,-3.411,-3.4058,-3.4058,0.0,0.0,0.0,0.0,0.0,0.0,0.0,0.0,0.0,0.0,0.0,0.0,0.0,-3.3966,0.0,-3.418,-3.2738,-3.1693,-3.1496,-3.1392,0.0,0.0,0.0,0.0,-3.0999,-3.1235,-3.1235,-3.0973,-3.1235,-3.1235,-3.0973,-3.0973,-3.0973,-3.0973,-3.0973,-3.0973,-3.0973,-3.0973,-3.0973,-3.0973,-3.0973,-3.0973,-3.0973,-3.0973,-3.1182,-3.147,-3.147,-3.215,-3.3064,0.0,0.0,0.0,0.0,0.0,0.0,0.0,-4.312,0.0,-4.6202,0.0,-4.9419,-4.9329,-5.087,-5.1678,-5.102,0.0,-5.0451,-4.9269,-4.9583,-4.9,-4.7249,-4.71,-4.6142,-4.4227,-4.3499,-4.288,0.0,0.0,0.0,0.0,0.0,0.0,0.0,0.0,0.0,0.0,-3.5923,-3.5326,0.0,-3.3893,-3.2897,-3.2218,-3.2146,-3.1626,-3.0973,-3.0973,-3.0973,-3.1052,-3.151,-3.1693,-3.1771,-3.2306,-3.2463,-3.2489,-3.2568,-3.2568,-3.2594,-3.2672,-3.3064,-3.3483,-3.3483,-3.3822,-3.4058,-3.3587,-3.3483,-3.3483,-3.3483,-3.2986,-3.2751,0.0,0.0,0.0,0.0,0.0,0.0,0.0,0.0,0.0,0.0,0.0,0.0,0.0,-3.2688,-3.1715,0.0,0.0,0.0,0.0,0.0,0.0,-3.0999,-3.1432,0.0,-3.1104,0.0,-3.1522,-3.1104,-3.1026,-3.0973,-3.0973,-3.0973,-3.0973,-3.0973,-3.0973,-3.0973,-3.0973,-3.0973,-3.0973,-3.0973,-3.0973,-3.0973,-3.0973,-3.0973,-3.2031,-3.338,0.0,0.0,0.0,0.0,0.0,-4.1919,-4.3274,-4.4318,-4.5484,-4.695,-4.8835,-4.9853,-4.9359,-5.0062,-5.0301,-4.9673,-4.9613,0.0,0.0,0.0,0.0,-4.6488,-4.5963,-4.4975,-4.3499,-4.2851,-4.2261,0.0,0.0,0.0,0.0,0.0,0.0,0.0,0.0,0.0,-3.7345,-3.6015,0.0,-3.541,-3.4471,-3.3665,-3.2932,-3.2326,-3.1626,-3.0973,-3.0973,-3.0973,-3.0999,-3.1104,-3.113,-3.1156,-3.1261,-3.1287,-3.1365,-3.1823,-3.1954,-3.2058,-3.2568,-3.2777,-3.2855,-3.2855,-3.2908,-3.296,-3.2881,-3.2855,-3.2855,-3.2855,-3.2385,-3.2137,-3.2751,0.0,0.0,0.0,0.0,0.0,0.0,0.0,0.0,0.0,0.0,0.0,0.0,0.0,0.0,0.0,0.0,0.0,0.0,0.0,0.0,0.0,-3.1078,0.0,0.0,0.0,-3.1313,-3.1641,-3.1209,-3.0973,-3.0973,-3.0973,-3.0973,-3.0973,-3.0973,-3.0973,-3.0973,-3.0973,-3.0973,-3.0973,-3.0973,-3.0973,-3.0973,-3.0973,-3.1698,-3.2602,0.0,0.0,0.0,0.0,0.0,0.0,0.0,-4.5938,0.0,-4.6503,-4.7442,-4.7938,-4.7279,-4.8117,-4.8446,-4.7788,-4.7429,-4.707,-4.677,-4.6441,-4.6112,-4.5813,-4.5454,0.0,-4.3319,-4.2013,-4.1354,-4.1422,0.0,0.0,0.0,0.0,0.0,0.0,0.0,-3.7404,0.0,0.0,0.0,-3.5935,-3.5218,-3.4476,-3.3734,-3.3359,-3.2791,-3.2137,-3.2137,-3.1882,-3.1505,-3.1123,-3.0973,-3.0973,-3.0973,-3.0973,-3.1026,-3.1313,-3.163,-3.1947,-3.1847,-3.2328,-3.2771,-3.2332,-3.2463,-3.2738,-3.2851,-3.2848,-3.2848,-3.2848,-3.2368,-3.2016,-3.2227,-3.3165,0.0,0.0,0.0,0.0,0.0,0.0,0.0,0.0,0.0,0.0,0.0,0.0,0.0,0.0,0.0,0.0,0.0,0.0,0.0,0.0,0.0,0.0,0.0,0.0,0.0,-3.1392,-3.1104,-3.0973,-3.0973,-3.0973,-3.0973,-3.0973,-3.0973,-3.0973,-3.0973,-3.0973,-3.0973,-3.0973,-3.0973,-3.0973,-3.1011,-3.1235,-3.158,-3.2064,0.0,-4.0004,0.0,0.0,-4.3183,0.0,-4.5464,-4.6772,-4.7266,-4.6218,-4.6251,-4.6154,-4.5574,-4.6322,-4.6681,-4.6142,-4.5603,-4.5304,-4.5304,-4.5155,-4.5035,-4.4885,-4.4736,-4.3988,-4.2482,-4.0846,-4.0157,0.0,0.0,0.0,0.0,0.0,0.0,0.0,0.0,0.0,0.0,0.0,-3.6267,-3.6237,-3.5699,-3.5004,-3.4279,-3.4143,-3.3699,-3.3178,-3.3003,-3.2684,-3.2254,-3.1653,-3.1272,-3.0973,-3.0973,-3.0973,-3.0973,-3.0973,-3.1394,-3.1736,-3.1161,-3.1889,-3.2685,-3.2008,-3.2352,-3.2794,-3.2803,-3.2806,-3.2806,-3.2806,-3.25,-3.2218,-3.2163,-3.3492,0.0,0.0,0.0,0.0,0.0,0.0,0.0,0.0,0.0,0.0,0.0,0.0,0.0,0.0,0.0,0.0,0.0,0.0,0.0,0.0,0.0,-3.1496,-3.1182,0.0,-3.1496,0.0,-3.1052,-3.0973,-3.0973,-3.0973,-3.0973,-3.0973,-3.0973,-3.0973,-3.0973,-3.0973,-3.0973,-3.1011,-3.1086,-3.1123,-3.1161,-3.1569,-3.1836,-3.2154,0.0,0.0,0.0,0.0,0.0,0.0,0.0,-4.5611,-4.6702,-4.7335,-4.6918,-4.6473,-4.6232,-4.5783,-4.5454,-4.5394,-4.5334,-4.5304,-4.5304,-4.4736,-4.4137,-4.3499,-4.294,-4.1782,-3.9828,-3.899,-3.8332,0.0,0.0,0.0,0.0,0.0,0.0,0.0,0.0,0.0,0.0,-3.5639,-3.5579,-3.5579,-3.5519,-3.5004,-3.4245,-3.3561,-3.3248,-3.3108,-3.2434,-3.2577,-3.3073,-3.3003,-3.2101,-3.0973,-3.0973,-3.0973,-3.0973,-3.0973,-3.1048,-3.1086,-3.1011,-3.1569,-3.2155,-3.2109,-3.2607,-3.2993,-3.2327,-3.2155,-3.2155,-3.2155,-3.2417,-3.2798,-3.3266,-3.3218,-3.3259,0.0,0.0,0.0,0.0,0.0,0.0,0.0,0.0,0.0,0.0,0.0,0.0,0.0,0.0,0.0,0.0,0.0,0.0,-3.0973,0.0,-3.1287,-3.1719,-3.1287,-3.1287,-3.1719,-3.1235,-3.0973,-3.0973,-3.0973,-3.0973,-3.0973,-3.0973,-3.0973,-3.0973,-3.0973,-3.0973,-3.1048,-3.1421,-3.1532,-3.1606,-3.1909,-3.2569,-3.3431,0.0,0.0,0.0,0.0,0.0,0.0,0.0,-4.6146,-4.6548,-4.6772,-4.6425,-4.615,-4.6098,-4.5494,-4.5072,-4.491,-4.4188,-4.3698,-4.3579,-4.291,-4.2432,-4.2162,-4.1923,-4.1235,-4.0038,-3.8931,-3.8272,0.0,0.0,0.0,0.0,0.0,0.0,0.0,0.0,-3.5519,-3.5519,-3.5519,-3.5519,-3.5519,-3.5519,-3.5326,-3.4971,-3.4673,-3.4572,-3.4539,-3.424,-3.4036,-3.3871,-3.3871,-3.3178,-3.2318,-3.2318,-3.2028,-3.1736,-3.2209,-3.1992,-3.1736,-3.2209,-3.2209,-3.211,-3.211,-3.2326,-3.2577,-3.272,-3.3108,-3.3429,-3.3567,-3.3802,-3.3922,-3.3663,-3.4565,-3.517,0.0,0.0,0.0,0.0,0.0,0.0,0.0,0.0,0.0,0.0,0.0,0.0,0.0,0.0,0.0,0.0,0.0,0.0,-3.1011,0.0,-3.1104,-3.1339,-3.1104,-3.1104,-3.1339,-3.1104,-3.0973,-3.0973,-3.0973,-3.0973,-3.0973,-3.0973,-3.0973,-3.1011,-3.1272,-3.1347,-3.1421,-3.2101,-3.239,-3.2461,-3.3143,-3.3665,-3.4104,-4.1463,0.0,-4.2109,0.0,-4.4178,-4.4641,-4.5557,-4.5865,-4.5887,-4.5546,-4.5358,-4.5221,-4.5314,-4.4777,-4.4213,-4.3796,-4.296,-4.2379,-4.2188,-4.1776,-4.1445,-4.1198,-4.1018,0.0,-3.9529,-3.8422,-3.7734,-3.7554,-3.6836,0.0,0.0,0.0,0.0,0.0,-3.5519,-3.5519,-3.5519,-3.5519,-3.5519,-3.5519,-3.5519,-3.5519,-3.5457,-3.5231,-3.5294,-3.5457,-3.5231,-3.4938,-3.4643,-3.4643,-3.4308,-3.3762,-3.3073,-3.2506,-3.2182,-3.272,-3.2648,-3.2541,-3.3073,-3.2967,-3.2755,-3.2755,-3.2932,-3.3143,-3.3318,-3.3768,-3.4211,-3.4409,-3.4776,-3.4876,-3.4283,-3.5525,-3.6325,-3.5394,0.0,0.0,0.0,0.0,0.0,0.0,-3.6029,-3.6155,-3.6068,0.0,0.0,0.0,0.0,0.0,0.0,0.0,0.0,0.0,0.0,0.0,0.0,-3.0973,-3.0973,-3.0973,-3.0973,-3.0973,-3.0973,-3.0973,-3.0973,-3.0973,-3.0973,-3.1048,-3.1198,-3.1495,-3.1763,-3.2055,-3.2791,-3.3178,-3.3422,-3.4177,-3.4581,-3.4813,-4.1463,-4.1586,-4.1832,-4.2509,-4.3156,-4.3624,-4.3624,-4.4209,-4.4394,-4.3716,-4.3655,-4.3683,-4.3905,-4.338,-4.2667,-4.1806,-4.1835,-4.1842,-4.1716,-4.1805,-4.1539,0.0,0.0,-3.9023,-3.7464,-3.6836,-3.6178,-3.5549,0.0,0.0,-3.5519,0.0,-3.5519,-3.5519,-3.5519,-3.5519,-3.5519,-3.5519,-3.5519,-3.5519,-3.5519,-3.5519,-3.5392,-3.461,-3.4806,-3.5392,-3.461,-3.4839,-3.5519,-3.5519,-3.5457,-3.5067,-3.2826,-3.211,-3.211,-3.211,-3.2613,-3.3178,-3.3178,-3.3734,-3.4279,-3.4279,-3.4872,-3.5195,-3.4036,-3.3796,-3.3865,-3.407,-3.481,-3.54,-3.54,-3.5559,-3.5688,-3.5688,0.0,0.0,0.0,0.0,0.0,0.0,-3.6743,-3.7024,-3.5812,0.0,0.0,0.0,0.0,0.0,0.0,0.0,0.0,-3.1606,-3.1606,0.0,-3.0973,-3.0973,-3.0973,-3.0973,-3.0973,-3.0973,-3.0973,-3.0973,-3.0973,-3.0973,-3.0973,-3.1235,-3.1606,-3.1606,-3.2101,-3.2932,-3.3318,-3.3802,-3.4346,-3.4743,-3.5204,-3.5688,-4.137,-4.1586,-4.1801,-4.2479,-4.2786,-4.291,-4.291,-4.3094,-4.3156,-4.294,-4.291,-4.2781,-4.2389,-4.2573,-4.2561,0.0,-4.1742,-4.1395,0.0,-4.0855,-4.0491,-4.0243,-3.9571,-3.8996,-3.8504,-3.7416,-3.6685,-3.6313,0.0,0.0,0.0,-3.5519,-3.5519,-3.5519,-3.5519,-3.5519,-3.5519,-3.5519,-3.5519,-3.5519,-3.5519,-3.5519,-3.5457,-3.5198,-3.5294,-3.5457,-3.5198,-3.5294,-3.5519,-3.5519,-3.5133,-3.4543,-3.3837,-3.3602,-3.3734,-3.424,-3.3457,-3.2684,-3.3699,-3.3213,-3.2676,-3.3526,-3.4138,-3.4539,-3.4543,-3.5008,-3.5464,-3.5497,-3.5879,-3.6163,-3.6163,-3.6195,-3.6258,-3.6258,-3.6383,0.0,0.0,0.0,0.0,0.0,-3.6567,-3.666,0.0,-3.6258,0.0,0.0,0.0,0.0,0.0,0.0,0.0,0.0,-3.1909,0.0,-3.1421,-3.1123,-3.1123,-3.1421,-3.1123,-3.1123,-3.1421,-3.1653,-3.1946,-3.2318,-3.2318,-3.2577,-3.3045,-3.3353,-3.3596,-3.3939,-3.4681,-3.5106,-3.5302,-3.5816,-3.61,-3.6258,-4.0662,-4.1032,-4.1247,-4.1432,-4.1894,-4.214,-4.1863,-4.2263,-4.2509,-4.2263,-4.2232,-4.1955,-4.1278,-4.134,0.0,-4.1551,-4.1189,-4.0939,-4.0761,-4.04,-4.0034,-3.9721,-3.9082,-3.8591,-3.828,0.0,0.0,-3.6321,-3.5864,-3.5557,-3.5519,-3.5519,-3.5519,-3.5519,-3.5519,-3.5519,-3.5519,-3.5519,-3.5519,-3.5519,-3.5519,-3.5519,-3.5519,-3.5519,-3.5519,-3.5519,-3.5519,-3.5519,-3.5519,-3.5519,-3.5166,-3.4743,-3.4743,-3.4743,-3.4806,-3.4971,-3.424,-3.3561,-3.4509,-3.3934,-3.3276,-3.4109,-3.4509,-3.4776,-3.5041,-3.5561,-3.6006,-3.6006,-3.6289,-3.6507,-3.6507,-3.6507,-3.6507,-3.6507,-3.6507,-3.6507,-3.6507,0.0,0.0,0.0,0.0,0.0,0.0,-3.6507,-3.6507,0.0,0.0,0.0,0.0,0.0,0.0,-3.3143,-3.2605,0.0,-3.1763,-3.1532,-3.1532,-3.1763,-3.1532,-3.1532,-3.1763,-3.1982,-3.239,-3.2897,-3.2897,-3.3318,-3.3945,-3.4211,-3.4514,-3.4879,-3.5464,-3.5816,-3.6068,-3.6383,-3.6507,-3.6507,-3.9398,-3.992,0.0,0.0,-4.057,0.0,-4.0536,-4.1586,-4.2232,-4.1617,-4.1524,-4.1247,-4.0505,-3.9859,-3.9702,-4.0147,0.0,0.0,0.0,-4.0374,-4.0036,-3.9161,-3.8583,-3.7875,-3.7068,-3.6179,-3.5752,-3.572,-3.5619,-3.5522,-3.5522,-3.5522,-3.5489,-3.5489,-3.5489,-3.5519,-3.5519,-3.5519,-3.5519,-3.5519,-3.5519,-3.5519,-3.5519,-3.5519,-3.5519,-3.5519,-3.5519,-3.5519,-3.5519,-3.5519,-3.5519,-3.5519,-3.5489,-3.5489,-3.5359,-3.461,-3.4872,-3.5424,-3.5424,-3.5424,-3.5457,-3.5623,-3.572,-3.572,-3.5529,-3.5623,-3.5752,-3.5752,-3.6163,-3.6507,-3.6507,-3.6507,-3.6507,-3.6507,-3.6507,-3.6507,-3.6507,0.0,0.0,0.0,0.0,0.0,0.0,-3.6507,-3.6507,0.0,0.0,0.0,0.0,0.0,-3.461,-3.3665,-3.3596,-3.3136,-3.2273,-3.2237,-3.22,-3.2237,-3.2237,-3.2237,-3.2273,-3.2309,-3.2605,-3.3108,-3.3108,-3.363,-3.4447,-3.4447,-3.4975,-3.5752,-3.5752,-3.6038,-3.6507,-3.6507,-3.6507,-3.6507,0.0,0.0,-3.8939,-3.8785,-3.9462,-3.992,-3.9736,-4.0443,-4.0935,-4.0782,-4.0751,-4.0474,-3.9797,-3.9582,-3.9336,-3.8964,-3.9428,-3.9736,-3.9702,-3.9736,-3.9428,-3.8719,-3.8043,-3.7612,-3.7394,-3.6688,-3.6258,-3.607,-3.5941,-3.5878,-3.5878,-3.5718,-3.5623,-3.5653,-3.5554,-3.5519,-3.5519,-3.5519,-3.5519,-3.5519,-3.5519,-3.5519,-3.5519,-3.5519,-3.5519,-3.5519,-3.5519,-3.5519,-3.5519,-3.5519,-3.5519,-3.5522,-3.5621,-3.5623,-3.5621,-3.5297,-3.5004,-3.481,-3.481,-3.471,-3.471,-3.5109,-3.5784,-3.6289,-3.6258,-3.6289,-3.632,-3.632,-3.6414,-3.6507,-3.6507,-3.6507,-3.6507,-3.6507,-3.6507,-3.6507,-3.6507,-3.6507,0.0,0.0,-3.6507,-3.6507,-3.6507,-3.6507,-3.6507,0.0,0.0,0.0,0.0,-3.6258,-3.5816,-3.5204,-3.448,-3.4007,-3.3768,-3.3463,-3.3325,-3.3325,-3.3526,-3.3693,-3.3802,-3.4075,-3.4514,-3.5041,-3.5041,-3.54,-3.5975,-3.5975,-3.6132,-3.632,-3.632,-3.6383,-3.6507,-3.6507,-3.6507,-3.6507,-3.7984,-3.8292,-3.8415,-3.8108,-3.86,-3.8939,-3.8631,-3.9154,-3.9582,-3.9582,-3.9582,-3.9428,-3.9059,-3.8785,-3.8569,-3.8508,-3.8846,-3.9062,-3.9062,-3.9062,-3.8754,-3.8077,-3.7707,-3.7369,-3.7061,-3.6598,-3.6289,-3.6132,-3.6037,-3.6005,-3.6005,-3.591,-3.5816,-3.5816,-3.575,-3.5748,-3.5748,-3.5748,-3.5748,-3.5748,-3.5748,-3.5748,-3.5748,-3.5748,-3.5748,-3.5748,-3.5748,-3.5748,-3.5748,-3.5748,-3.5748,-3.5748,-3.5814,-3.5816,-3.5846,-3.5748,-3.5492,-3.5237,-3.5237,-3.5172,-3.5172,-3.5529,-3.5794,-3.6014,-3.6014,-3.5829,-3.5645,-3.5953,-3.6014,-3.6138,-3.6445,-3.6507,-3.6507,-3.6507,-3.6507,-3.6507,-3.6507,-3.6507,0.0,-3.6507,-3.6507,-3.6507,-3.6507,-3.6507,-3.6507,-3.6507,-3.6507,0.0,-3.6507,-3.6507,-3.6258,-3.572,-3.5204,-3.4813,-3.4581,-3.4346,-3.4245,-3.4245,-3.4409,-3.4509,-3.4581,-3.481,-3.5172,-3.5688,-3.5688,-3.5975,-3.6507,-3.6507,-3.6507,-3.6507,-3.6507,-3.6507,-3.6507,-3.6507,-3.6507,-3.6507,-3.7338,-3.78,-3.8015,-3.7461,-3.7892,-3.8169,-3.7584,-3.8077,-3.8508,-3.8508,-3.8508,-3.8477,-3.8385,-3.7831,-3.7677,-3.8169,-3.82,-3.8262,-3.8354,-3.8354,-3.8046,-3.7369,-3.7338,-3.7092,-3.6507,-3.6352,-3.6195,-3.6068,-3.6068,-3.6068,-3.6068,-3.6037,-3.6037,-3.6037,-3.6005,-3.6005,-3.6005,-3.6005,-3.6005,-3.6005,-3.6005,-3.6005,-3.6005,-3.6005,-3.6005,-3.6005,-3.6005,-3.6005,-3.6005,-3.6005,-3.6005,-3.6005,-3.6037,-3.6037,-3.6037,-3.6068,-3.6068,-3.6068,-3.6037,-3.6008,-3.5917,-3.5951,-3.5646,-3.5367,-3.5367,-3.4905,-3.4659,-3.5244,-3.5429,-3.5645,-3.623,-3.6415,-3.6507,-3.6507,-3.6507,-3.6507,-3.6507,0.0,-3.6507,-3.6507,-3.6507,-3.6507,-3.6507,-3.6507,-3.6507,-3.6507,-3.6507,-3.6507,-3.6507,-3.6507,-3.6289,-3.5816,-3.5816,-3.5591,-3.5139,-3.5041,-3.5041,-3.5139,-3.5041,-3.5041,-3.5139,-3.5139,-3.5397,-3.5816,-3.5816,-3.61,-3.6507,-3.6507,-3.6507,-3.6507,-3.6507,-3.6507,-3.6507,-3.6507,-3.6507,-3.6507,-3.6661,-3.6722,-3.6784,-3.6661,-3.7215,-3.7615,-3.7523,-3.8077,-3.8508,-3.8508,-3.8508,-3.8292,-3.7707,-3.7554,-3.7307,-3.6846,-3.6815,-3.7061,-3.7615,-3.7646,-3.7369,-3.6661,-3.6661,-3.6599,-3.6507,-3.6445,-3.6445,-3.6414,-3.6414,-3.6414,-3.6414,-3.6258,-3.6164,-3.6164,-3.6068,-3.6005,-3.6005,-3.6005,-3.6005,-3.6005,-3.6005,-3.6005,-3.6005,-3.6005,-3.6005,-3.6005,-3.6005,-3.6005,-3.6005,-3.6005,-3.6005,-3.6037,-3.6133,-3.6164,-3.6196,-3.6352,-3.6414,-3.6383,-3.6226,-3.586,-3.5431,-3.4907,-3.4691,-3.4659,-3.4659,-3.4566,-3.4536,-3.4628,-3.5121,-3.5522,-3.5645,-3.6107,-3.6507,-3.6507,-3.6507,-3.6507,-3.6507,0.0,-3.6507,-3.6507,-3.6507,-3.6507,-3.6507,-3.6507,-3.6507,-3.6507,-3.6507,-3.6507,-3.6507,-3.6507,-3.6445,-3.6383,-3.6383,-3.6352,-3.6258,-3.5816,-3.5816,-3.6258,-3.5784,-3.5816,-3.6258,-3.6258,-3.6289,-3.6383,-3.6383,-3.6414,-3.6507,-3.6507,-3.6507,-3.6507,-3.6507,-3.6507,-3.6507,-3.6507,-3.6507,-3.6507,-3.6507,-3.6507,-3.6507,-3.6507,-3.6753,-3.6969,-3.6969,-3.6907,-3.6876,-3.6876,-3.6569,-3.6353,-3.6415,-3.6415,-3.6445,-3.6507,-3.6507,-3.663,-3.6938,-3.6969,-3.6815,-3.6507,-3.6507,-3.6507,-3.6507,-3.6507,-3.6507,-3.6507,-3.6507,-3.6507,-3.6507,-3.6414,-3.6352,-3.6352,-3.6289,-3.6258,-3.6258,-3.6258,-3.6258,-3.6258,-3.6258,-3.6258,-3.6258,-3.6258,-3.6258,-3.6258,-3.6258,-3.6258,-3.6258,-3.6258,-3.6258,-3.6289,-3.6352,-3.6352,-3.6383,-3.6445,-3.6507,-3.6415,-3.5953,-3.5646,-3.5337,-3.4659,-3.4197,-3.3891,-3.3891,-3.3614,-3.3488,-3.3829,-3.4137,-3.4599,-3.5367,-3.5737,-3.6076,-3.6445,-3.6507,0.0,0.0,-3.6507,-3.6507,-3.6507,-3.6507,-3.6507,-3.6507,-3.6507,-3.6507,-3.6507,-3.6507,-3.6507,-3.6507,-3.6507,-3.6507,-3.6507,-3.6507,-3.6507,-3.6507,-3.6258,-3.6258,-3.6507,-3.6258,-3.6258,-3.6507,-3.6507,-3.6507,-3.6507,-3.6507,-3.6507,-3.6507,-3.6507,-3.6507,-3.6507,-3.6507,-3.6507,-3.6507,-3.6507,-3.6507,-3.6507,-3.6507,-3.6507,-3.6507,-3.6507,-3.6507,-3.6507,-3.6507,-3.6045,-3.5707,-3.5707,-3.5306,-3.5183,-3.5706,-3.5707,-3.5922,-3.6445,-3.6353,-3.6261,-3.6261,-3.6107,-3.6168,-3.6476,-3.6507,-3.6507,-3.6507,-3.6507,-3.6507,-3.6507,-3.6507,-3.6507,-3.6507,-3.6507,-3.6507,-3.6507,-3.6507,-3.6507,-3.6507,-3.6507,-3.6507,-3.6507,-3.6507,-3.6507,-3.6507,-3.6507,-3.6507,-3.6507,-3.6507,-3.6507,-3.6507,-3.6507,-3.6507,-3.6507,-3.6507,-3.6507,-3.6507,-3.6507,-3.6384,-3.6107,-3.546,-3.5152,-3.4845,-3.4197,-3.3583,-3.3183,-3.3183,-3.2782,-3.2536,-3.3059,-3.3306,-3.3767,-3.5059,-3.5368,-3.5707,-3.6384,0.0,0.0,0.0,-3.6507,-3.6507,-3.6507,-3.6507,-3.6507,-3.6507,-3.6507,-3.6507,-3.6507,-3.6507,-3.6507,-3.6507,-3.6507,-3.6507,-3.6507,-3.6507,-3.6507,-3.6507,-3.6507,-3.6507,-3.6507,-3.6507,-3.6507,-3.6507,-3.6507,-3.6507,-3.6507,-3.6507,-3.6507,-3.6507,-3.6507,-3.6507,-3.6507,-3.6507,-3.6507,-3.6507,-3.6507,-3.6507,-3.6507,-3.6507,-3.6507,-3.6507,-3.6507,-3.6507,-3.6507,-3.6507,-3.6445,-3.6415,-3.6415,-3.6384,-3.6353,-3.6415,-3.6415,-3.6445,-3.6507,-3.5922,-3.5553,-3.5553,-3.4998,-3.5213,-3.6445,-3.6507,-3.6507,-3.6507,-3.6507,-3.6507,-3.6507,-3.6507,-3.6507,-3.6507,-3.6507,-3.6507,-3.6507,-3.6507,-3.6507,-3.6507,-3.6507,-3.6507,-3.6507,-3.6507,-3.6507,-3.6507,-3.6507,-3.6507,-3.6507,-3.6507,-3.6507,-3.6507,-3.6507,-3.6507,-3.6507,-3.6507,-3.6507,-3.6507,-3.6507,-3.6045,-3.5429,-3.4751,-3.4075,-3.3398,-3.2721,-3.2505,-3.2475,-3.2475,-3.2444,-3.2413,-3.2444,-3.2967,-3.3644,-3.4443,-3.509,-3.5707,-3.6384,0.0,0.0,-3.6507,-3.6507,-3.6507,-3.6507,-3.6507,-3.6507,-3.6507,-3.6507,-3.6507,-3.6507,-3.6507,-3.6507,-3.6507,-3.6507,-3.6507,-3.6507,-3.6507,-3.6507,-3.6507,-3.6507,-3.6507,-3.6507,-3.6507,-3.6507,-3.6507,-3.6507,-3.6507,-3.6507,-3.6507,-3.6507,-3.6507,-3.6507,-3.6507,-3.6507,-3.6507,-3.6507,-3.6507,-3.6507,-3.6507,-3.6507,-3.6507,-3.6507,-3.6507,-3.6507,-3.6507,-3.6507,-3.6507,-3.6138,-3.5891,-3.5891,-3.5521,-3.5429,-3.583,-3.5891,-3.6045,-3.6445,-3.6261,-3.5922,-3.5552,-3.5275,-3.5183,-3.5275,-3.5275,-3.546,-3.5861,-3.5491,-3.546,-3.5891,-3.546,-3.5491,-3.5891,-3.5891,-3.6076,-3.6507,-3.6507,-3.6507,-3.6476,-3.6045,-3.6107,-3.6445,-3.6045,-3.6107,-3.6507,-3.6507,-3.6507,-3.6507,-3.6507,-3.6507,-3.6507,-3.6507,-3.6507,-3.6507,-3.6507,-3.6199,-3.5799,-3.5398,-3.4752,-3.4137,-3.3891,-3.3614,-3.3244,-3.2567,-3.2382,-3.2382,-3.2382,-3.2382,-3.2382,-3.2382,-3.2598,-3.2998,-3.3675,-3.4412,-3.5121,-3.5768,0.0,-3.6507,-3.6507,-3.6507,-3.6507,-3.6507,-3.6507,-3.6507,-3.6507,-3.6507,-3.6507,-3.6507,-3.6507,-3.6507,-3.6507,-3.6507,-3.6507,-3.6507,-3.6507,-3.6507,-3.6507,-3.6507,-3.6507,-3.6507,-3.6507,-3.6507,-3.6507,-3.6507,-3.6507,-3.6507,-3.6507,-3.6507,-3.6507,-3.6507,-3.6507,-3.6507,-3.6507,-3.6507,-3.6507,-3.6507,-3.6507,-3.6507,-3.6168,-3.6353,-3.6507,-3.6507,-3.6507,-3.6507,-3.6507,-3.6107,-3.5799,-3.5799,-3.5429,-3.5306,-3.5737,-3.5799,-3.5984,-3.6445,-3.6292,-3.5984,-3.5552,-3.509,-3.4751,-3.4505,-3.4505,-3.472,-3.5183,-3.4751,-3.472,-3.5213,-3.472,-3.4751,-3.5213,-3.5398,-3.5614,-3.5891,-3.6076,-3.6168,-3.6138,-3.5491,-3.5553,-3.6107,-3.546,-3.546,-3.5891,-3.6138,-3.6076,-3.5891,-3.6107,-3.6045,-3.5861,-3.5861,-3.5861,-3.5861,-3.5861,-3.5583,-3.5121,-3.4628,-3.3952,-3.3398,-3.3398,-3.3244,-3.2967,-3.2505,-3.2382,-3.2382,-3.2382,-3.2382,-3.2382,-3.2382,-3.2382,-3.2598,-3.3275,-3.3798,-3.4382,-3.509,-3.5553,-3.5922,-3.6138,-3.6168,-3.6261,-3.6476,-3.6507,-3.6507,-3.6507,-3.6507,-3.6507,-3.6507,-3.6507,-3.6507,-3.6507,-3.6507,-3.6507,-3.6507,-3.6507,-3.6507,-3.6507,-3.6507,-3.6507,-3.6507,-3.6507,-3.6507,-3.6507,-3.6507,-3.6507,-3.6507,-3.6507,-3.6507,-3.6507,-3.6507,-3.6507,-3.6507,-3.6507,-3.6507,-3.6507,-3.6507,-3.6569,-3.6662,-3.5521,-3.6014,-3.6476,-3.6507,-3.6507,-3.6507,-3.6507,-3.6507,-3.6507,-3.6507,-3.6507,-3.6507,-3.6507,-3.6507,-3.6507,-3.6476,-3.5861,-3.5521,-3.546,-3.4168,-3.3706,-3.4443,-3.4474,-3.4505,-3.4505,-3.4505,-3.4505,-3.4505,-3.4505,-3.4505,-3.4505,-3.5183,-3.5152,-3.4536,-3.5213,-3.5491,-3.546,-3.4782,-3.4874,-3.543,-3.4751,-3.4505,-3.4566,-3.5244,-3.509,-3.4597,-3.5275,-3.5059,-3.4505,-3.4505,-3.4505,-3.4505,-3.4505,-3.4505,-3.4505,-3.4505,-3.3981,-3.3398,-3.3398,-3.2906,-3.2382,-3.2382,-3.2382,-3.2382,-3.2382,-3.2382,-3.2382,-3.2382,-3.2382,-3.2598,-3.3275,-3.3398,-3.3644,-3.4382,-3.4505,-3.4751,-3.5429,-3.5521,-3.5737,-3.6415,-3.6507,-3.6507,-3.6507,-3.6507,-3.6507,-3.6507,-3.6507,-3.6507,-3.6507,-3.6507,-3.6507,-3.6507,-3.6507,-3.6507,-3.6507,-3.6507,-3.6507,-3.6507,-3.6507,-3.6507,-3.6507,-3.6507,-3.6507,-3.6507,-3.6507,-3.6507,-3.6507,-3.6507,-3.6507,-3.6507,-3.6507,-3.6507,-3.6476,-3.6538,-3.6724,-3.6938,-3.5429,-3.5645,-3.5922,-3.6415,-3.6507,-3.6507,-3.6507,-3.6507,-3.6507,-3.6507,-3.6507,-3.6507,-3.6507,-3.6507,-3.6292,-3.583,-3.5645,-3.506,-3.4075,-3.3183,-3.2782,-3.2998,-3.3029,-3.3244,-3.3706,-3.3244,-3.3244,-3.3737,-3.3244,-3.3244,-3.3737,-3.3921,-3.4198,-3.4505,-3.472,-3.4813,-3.4751,-3.4014,-3.4137,-3.4751,-3.4014,-3.4043,-3.4536,-3.472,-3.469,-3.4536,-3.472,-3.469,-3.4505,-3.4505,-3.4505,-3.4412,-3.3891,-3.3737,-3.3644,-3.3152,-3.2875,-3.269,-3.269,-3.2536,-3.2382,-3.2382,-3.2382,-3.2382,-3.2382,-3.2382,-3.2382,-3.2382,-3.2382,-3.2444,-3.2659,-3.309,-3.346,-3.3675,-3.4166,-3.4751,-3.5429,-3.5521,-3.5737,-3.6415,-3.6507,-3.6507,-3.6507,-3.6507,-3.6507,-3.6507,-3.6507,-3.6507,-3.6507,-3.6507,-3.6507,-3.6507,-3.6507,-3.6507,-3.6507,-3.6507,-3.6507,-3.6507,-3.6507,-3.6507,-3.6507,-3.6507,-3.6507,-3.6507,-3.6507,-3.6507,-3.6507,-3.6507,-3.6507,-3.6507,-3.6754,-3.6847,-3.6877,-3.7059,-3.7178,-3.727,-3.4568,-3.5091,-3.5645,-3.6014,-3.6322,-3.6507,-3.6507,-3.6507,-3.6507,-3.6507,-3.6507,-3.6507,-3.6507,-3.6261,-3.6045,-3.5891,-3.5675,-3.4876,-3.349,-3.3029,-3.2659,-3.2413,-3.2382,-3.2598,-3.2998,-3.2598,-3.2598,-3.2998,-3.2598,-3.2598,-3.2998,-3.3275,-3.349,-3.3704,-3.395,-3.4073,-3.4014,-3.3106,-3.3227,-3.3983,-3.3075,-3.2989,-3.3415,-3.369,-3.3598,-3.3415,-3.369,-3.3715,-3.3673,-3.3673,-3.3673,-3.3611,-3.3152,-3.2998,-3.2906,-3.2505,-3.2382,-3.2382,-3.2382,-3.2382,-3.2382,-3.2382,-3.2382,-3.2382,-3.2382,-3.2382,-3.2382,-3.2382,-3.2382,-3.2382,-3.2382,-3.2721,-3.2998,-3.2998,-3.3367,-3.4012,-3.4967,-3.5121,-3.546,-3.6384,-3.6507,-3.6507,-3.6507,-3.6507,-3.6507,-3.6507,-3.6507,-3.6507,-3.6507,-3.6507,-3.6507,-3.6507,-3.6507,-3.6507,-3.6507,-3.6507,-3.6507,-3.6507,-3.6507,-3.6507,-3.6507,-3.6507,-3.6507,-3.6507,-3.6507,-3.6507,-3.6538,-3.6662,-3.6693,-3.6724,-3.7029,-3.709,-3.703,-3.7298,-3.7417,-3.7417,-3.3341,-3.4326,-3.5247,-3.54,-3.5891,-3.6321,-3.6476,-3.6445,-3.6445,-3.6476,-3.6445,-3.6414,-3.6414,-3.583,-3.5676,-3.6198,-3.5615,-3.4692,-3.3398,-3.3277,-3.2972,-3.2413,-3.2355,-3.2355,-3.2382,-3.2382,-3.2382,-3.2382,-3.2382,-3.2382,-3.2413,-3.3029,-3.2967,-3.2413,-3.3029,-3.3306,-3.3247,-3.2209,-3.2357,-3.3216,-3.2181,-3.1768,-3.1828,-3.2459,-3.2279,-3.1828,-3.2459,-3.2566,-3.2382,-3.2382,-3.2382,-3.2382,-3.2382,-3.2382,-3.2382,-3.2382,-3.2382,-3.2382,-3.2382,-3.2382,-3.2382,-3.2382,-3.2382,-3.2382,-3.2382,-3.2382,-3.2382,-3.2382,-3.2382,-3.2382,-3.2382,-3.2382,-3.2382,-3.2382,-3.2382,-3.2875,-3.4227,-3.4474,-3.4998,-3.6261,-3.6445,-3.6507,-3.6507,-3.6507,-3.6507,-3.6507,-3.6507,-3.6507,-3.6507,-3.6507,-3.6507,-3.6507,-3.6507,-3.6507,-3.6507,-3.6507,-3.6507,-3.6507,-3.6507,-3.6507,-3.6507,-3.6507,-3.6507,-3.6507,-3.6507,-3.6569,-3.66,-3.6908,-3.703,-3.706,-3.7328,-3.73,-3.7121,-3.7294,-3.7381,-3.7381,-3.2758,-3.2796,-3.3215,-3.4697,-3.4719,-3.499,-3.6321,-3.6163,-3.6006,-3.6445,-3.6132,-3.5879,-3.5879,-3.5272,-3.4753,-3.4494,-3.3727,-3.3056,-3.2631,-3.2292,-3.2175,-3.2413,-3.2048,-3.202,-3.2382,-3.2382,-3.2382,-3.2382,-3.2382,-3.2382,-3.2382,-3.2536,-3.2536,-3.2413,-3.2536,-3.2598,-3.2598,-3.2333,-3.2391,-3.2598,-3.2333,-3.2274,-3.2274,-3.2397,-3.2366,-3.2274,-3.2397,-3.2422,-3.2382,-3.2382,-3.2382,-3.2382,-3.2382,-3.2382,-3.2382,-3.2382,-3.2382,-3.2382,-3.2382,-3.2382,-3.2382,-3.2382,-3.2382,-3.2382,-3.2382,-3.2382,-3.2382,-3.2382,-3.2382,-3.2382,-3.2382,-3.2382,-3.2382,-3.2382,-3.2382,-3.269,-3.3521,-3.4166,-3.4813,-3.5614,-3.6168,-3.6507,-3.6507,-3.6507,-3.6507,-3.6507,-3.6507,-3.6507,-3.6507,-3.6507,-3.6507,-3.6507,-3.6507,-3.6507,-3.6507,-3.6507,-3.6507,-3.6507,-3.6507,-3.6507,-3.6507,-3.6507,-3.6507,-3.6507,-3.6785,-3.6877,-3.6908,-3.721,-3.7298,-3.7328,-3.7653,-3.777,-3.7677,-3.742,-3.7311,-3.7311,-3.1841,-3.196,-3.2403,-3.3691,-3.3981,-3.4396,-3.5565,-3.5494,-3.5429,-3.5688,-3.5494,-3.5332,-3.5332,-3.4735,-3.3953,-3.3017,-3.2553,-3.2138,-3.1769,-3.148,-3.1596,-3.2048,-3.1625,-3.1566,-3.2079,-3.1851,-3.1823,-3.2079,-3.2079,-3.2079,-3.2079,-3.2079,-3.2191,-3.2382,-3.2382,-3.2382,-3.2382,-3.2132,-3.2188,-3.2355,-3.2132,-3.2079,-3.2079,-3.2079,-3.2079,-3.2079,-3.2079,-3.2188,-3.2382,-3.2382,-3.2382,-3.2382,-3.2382,-3.2382,-3.2382,-3.2382,-3.2382,-3.2382,-3.2382,-3.2382,-3.2382,-3.2382,-3.2382,-3.2382,-3.2382,-3.2382,-3.2382,-3.2382,-3.2382,-3.2382,-3.2382,-3.2382,-3.2505,-3.2813,-3.2598,-3.2752,-3.3767,-3.4258,-3.4751,-3.5429,-3.6076,-3.6507,-3.6507,-3.6507,-3.6507,-3.6507,-3.6507,-3.6507,-3.6507,-3.6507,-3.6507,-3.6507,-3.6507,-3.66,-3.6754,-3.6754,-3.6785,-3.6938,-3.6785,-3.6816,-3.6938,-3.6938,-3.6938,-3.6938,-3.7119,-3.718,-3.721,-3.7506,-3.7401,-3.7144,-3.7459,-3.7102,-3.6378,-3.6325,-3.6529,-3.6794,-3.072,-3.1218,-3.1861,-3.2687,-3.3155,-3.3715,-3.461,-3.4662,-3.4629,-3.4728,-3.4662,-3.4596,-3.4596,-3.3944,-3.3003,-3.1837,-3.1837,-3.1631,-3.1043,-3.0896,-3.1073,-3.1567,-3.1131,-3.1073,-3.1567,-3.1277,-3.1248,-3.1596,-3.1682,-3.171,-3.171,-3.1796,-3.2051,-3.2382,-3.2382,-3.2382,-3.2355,-3.1964,-3.202,-3.2355,-3.1994,-3.1824,-3.1824,-3.1824,-3.1824,-3.1824,-3.1824,-3.2048,-3.2382,-3.2382,-3.2382,-3.2382,-3.2382,-3.2382,-3.2382,-3.2382,-3.2382,-3.2382,-3.2382,-3.2382,-3.2382,-3.2382,-3.2382,-3.2382,-3.2382,-3.2382,-3.2382,-3.2382,-3.2382,-3.2382,-3.2382,-3.2382,-3.2567,-3.3152,-3.2844,-3.2967,-3.4166,-3.4536,-3.4874,-3.543,-3.6076,-3.6507,-3.6507,-3.6507,-3.6507,-3.6507,-3.6507,-3.6507,-3.6507,-3.6507,-3.6507,-3.6507,-3.6507,-3.6631,-3.6908,-3.6908,-3.7059,-3.7417,-3.718,-3.718,-3.7417,-3.7417,-3.7417,-3.7417,-3.7476,-3.7506,-3.7506,-3.7857,-3.7555,-3.6914,-3.7196,-3.6367,-3.4963,-3.5156,-3.5428,-3.5785,-2.9609,-2.9768,-3.0412,-3.2029,-3.1568,-3.1686,-3.3809,-3.3722,-3.359,-3.405,-3.3722,-3.3454,-3.3454,-3.2449,-3.1629,-3.116,-3.1238,-3.1235,-3.1014,-3.0598,-3.0598,-3.1043,-3.0657,-3.0598,-3.1073,-3.1452,-3.1452,-3.1073,-3.1509,-3.171,-3.171,-3.2135,-3.2327,-3.2382,-3.2382,-3.2382,-3.2413,-3.2327,-3.2327,-3.2382,-3.2327,-3.2299,-3.2299,-3.2299,-3.2299,-3.2299,-3.2299,-3.2327,-3.2382,-3.2382,-3.2382,-3.2382,-3.2382,-3.2382,-3.2382,-3.2382,-3.2382,-3.2382,-3.2382,-3.2382,-3.2382,-3.2382,-3.2382,-3.2382,-3.2382,-3.2382,-3.2382,-3.2382,-3.2382,-3.2382,-3.2382,-3.2382,-3.2413,-3.2505,-3.2936,-3.3336,-3.3521,-3.4599,-3.5398,-3.5491,-3.6076,-3.6507,-3.6507,-3.6507,-3.6507,-3.6507,-3.6507,-3.6507,-3.6507,-3.6507,-3.6507,-3.6507,-3.6507,-3.6507,-3.6569,-3.6569,-3.6846,-3.7417,-3.7358,-3.7358,-3.7417,-3.7417,-3.7417,-3.7417,-3.7711,-3.7828,-3.7857,-3.8205,-3.7898,-3.7224,-3.7279,-3.6799,-3.6023,-3.5428,-3.4515,-3.3615,-2.8509,-2.8812,-2.9425,-3.0551,-3.093,-3.1523,-3.2901,-3.3191,-3.3209,-3.3106,-3.2877,-3.2487,-3.1777,-3.0926,-3.0506,-3.0719,-3.0477,-3.0275,-3.0205,-3.0021,-3.0113,-3.0598,-3.0174,-3.0144,-3.0628,-3.0568,-3.0447,-3.0235,-3.0925,-3.1422,-3.171,-3.1364,-3.1508,-3.2023,-3.1737,-3.1766,-3.1992,-3.1992,-3.2132,-3.2382,-3.2382,-3.2382,-3.2382,-3.2382,-3.2382,-3.2355,-3.2076,-3.2191,-3.2355,-3.2107,-3.216,-3.2382,-3.2382,-3.2382,-3.2382,-3.2382,-3.2382,-3.2382,-3.2382,-3.2382,-3.2382,-3.2382,-3.2382,-3.2382,-3.2382,-3.2382,-3.2382,-3.2382,-3.2382,-3.2382,-3.2382,-3.2382,-3.2659,-3.3457,-3.346,-3.3675,-3.4445,-3.5121,-3.5645,-3.5984,-3.6322,-3.6507,-3.6507,-3.6507,-3.6507,-3.6507,-3.6507,-3.6507,-3.6507,-3.6693,-3.6785,-3.6785,-3.6938,-3.7088,-3.7268,-3.7268,-3.7506,-3.7976,-3.7976,-3.7976,-3.7976,-3.7976,-3.7976,-3.7976,-3.8119,-3.8177,-3.8205,-3.8319,-3.7987,-3.7247,-3.6918,-3.5849,-3.4457,-3.4133,-3.3874,-3.3744]}]]